[[{"header":{"parameterUnit":"m.s-1","parameterCategory":1,"la1":31.0,"la2":29.5877,"lo1":-88.7671,"lo2":-86.6584,"dy":0.0162,"dx":0.0185,"nx":115,"ny":88,"refTime":"2025-07-26T00:00:00:Z","depth":0,"parameterNumber":2,"parameterNumberName":"U-component_of_WINDS"},"data":[0.0,0.0,0.0,0.0,0.0,0.0,0.0,0.0,0.0,0.0,0.0,0.0,0.0,0.0,0.0,0.0,0.0,0.0,0.0,0.0,0.0,0.0,0.0,0.0,0.0,0.0,0.0,0.0,0.0,0.0,0.0,0.0,0.0,0.0,0.0,0.0,0.0,0.0,0.0,0.0,0.0,0.0,0.0,0.0,0.0,0.0,0.0,0.0,0.0,0.0,0.0,0.0,0.0,0.0,0.0,0.0,0.0,0.0,0.0,0.0,0.0,0.0,0.0,0.0,0.0,0.0,0.0,0.0,0.0,0.0,0.0,0.0,0.0,0.0,0.0,0.0,0.0,0.0,0.0,0.0,0.0,0.0,0.0,0.0,0.0,0.0,0.0,0.0,0.0,0.0,0.0,0.0,0.0,0.0,0.0,0.0,0.0,0.0,0.0,0.0,0.0,0.0,0.0,0.0,0.0,0.0,0.0,0.0,0.0,0.0,0.0,0.0,0.0,0.0,0.0,0.0,0.0,0.0,0.0,0.0,0.0,0.0,0.0,0.0,0.0,0.0,0.0,0.0,0.0,0.0,0.0,0.0,0.0,0.0,0.0,0.0,0.0,0.0,0.0,0.0,0.0,0.0,0.0,0.0,0.0,0.0,0.0,0.0,0.0,0.0,0.0,0.0,0.0,0.0,0.0,0.0,0.0,0.0,0.0,0.0,0.0,0.0,0.0,0.0,0.0,0.0,0.0,0.0,0.0,0.0,0.0,0.0,0.0,0.0,0.0,0.0,0.0,0.0,0.0,0.0,0.0,0.0,0.0,0.0,0.0,0.0,0.0,0.0,0.0,0.0,0.0,0.0,0.0,0.0,0.0,0.0,0.0,0.0,0.0,0.0,0.0,0.0,0.0,0.0,0.0,0.0,0.0,0.0,0.0,0.0,0.0,0.0,0.0,0.0,0.0,0.0,0.0,0.0,0.0,0.0,0.0,0.0,0.0,0.0,0.0,0.0,0.0,0.0,0.0,0.0,0.0,0.0,0.0,0.0,0.0,0.0,0.0,0.0,0.0,0.0,0.0,0.0,0.0,0.0,0.0,0.0,0.0,0.0,0.0,0.0,0.0,0.0,0.0,0.0,0.0,0.0,0.0,0.0,0.0,0.0,0.0,0.0,0.0,0.0,0.0,0.0,0.0,0.0,0.0,0.0,0.0,0.0,0.0,0.0,0.0,0.0,0.0,0.0,0.0,0.0,0.0,0.0,0.0,0.0,0.0,0.0,0.0,0.0,0.0,0.0,0.0,0.0,0.0,0.0,0.0,0.0,0.0,0.0,0.0,0.0,0.0,0.0,0.0,0.0,0.0,0.0,0.0,0.0,0.0,0.0,0.0,0.0,0.0,0.0,0.0,0.0,0.0,0.0,0.0,0.0,0.0,0.0,0.0,0.0,0.0,0.0,0.0,0.0,0.0,0.0,0.0,0.0,0.0,0.0,0.0,0.0,0.0,0.0,0.0,0.0,0.0,0.0,0.0,0.0,0.0,0.0,0.0,0.0,0.0,0.0,0.0,0.0,0.0,0.0,0.0,0.0,0.0,0.0,0.0,0.0,0.0,0.0,0.0,0.0,0.0,0.0,0.0,0.0,0.0,0.0,0.0,0.0,0.0,0.0,0.0,0.0,0.0,0.0,0.0,0.0,0.0,0.0,0.0,0.0,0.0,0.0,0.0,0.0,0.0,0.0,0.0,0.0,0.0,0.0,0.0,0.0,0.0,0.0,0.0,0.0,0.0,0.0,0.0,0.0,0.0,0.0,0.0,0.0,0.0,0.0,0.0,0.0,0.0,0.0,0.0,0.0,0.0,0.0,0.0,0.0,0.0,0.0,0.0,0.0,0.0,0.0,0.0,0.0,0.0,0.0,0.0,0.0,0.0,0.0,0.0,0.0,0.0,0.0,0.0,0.0,0.0,0.0,0.0,0.0,0.0,0.0,0.0,0.0,0.0,0.0,0.0,0.0,0.0,0.0,0.0,0.0,0.0,0.0,0.0,0.0,0.0,0.0,0.0,0.0,0.0,0.0,0.0,0.0,0.0,0.0,0.0,0.0,0.0,0.0,0.0,0.0,0.0,0.0,0.0,0.0,0.0,0.0,0.0,0.0,0.0,0.0,0.0,0.0,0.0,0.0,0.0,0.0,0.0,0.0,0.0,0.0,0.0,0.0,0.0,0.0,0.0,0.0,0.0,0.0,0.0,0.0,0.0,0.0,0.0,0.0,0.0,0.0,0.0,0.0,0.0,0.0,0.0,0.0,0.0,0.0,0.0,0.0,0.0,0.0,0.0,0.0,0.0,0.0,0.0,0.0,0.0,0.0,0.0,0.0,0.0,0.0,0.0,0.0,0.0,0.0,0.0,0.0,0.0,0.0,0.0,0.0,0.0,0.0,0.0,0.0,0.0,0.0,0.0,0.0,0.0,0.0,0.0,0.0,0.0,0.0,0.0,0.0,0.0,0.0,0.0,0.0,0.0,0.0,0.0,0.0,0.0,0.0,0.0,0.0,0.0,0.0,0.0,0.0,0.0,0.0,0.0,0.0,0.0,0.0,0.0,0.0,0.0,0.0,0.0,0.0,0.0,0.0,0.0,0.0,0.0,0.0,0.0,0.0,0.0,0.0,0.0,0.0,0.0,0.0,0.0,0.0,0.0,0.0,0.0,0.0,0.0,0.0,0.0,0.0,0.0,0.0,0.0,0.0,0.0,0.0,0.0,0.0,0.0,0.0,0.0,0.0,0.0,0.0,0.0,0.0,0.0,0.0,0.0,0.0,0.0,0.0,0.0,0.0,0.0,0.0,0.0,0.0,0.0,0.0,0.0,0.0,0.0,0.0,0.0,0.0,0.0,0.0,0.0,0.0,0.0,0.0,0.0,0.0,0.0,0.0,0.0,0.0,0.0,0.0,0.0,0.0,0.0,0.0,0.0,0.0,0.0,0.0,0.0,0.0,0.0,0.0,0.0,0.0,0.0,0.0,0.0,0.0,0.0,0.0,0.0,0.0,0.0,0.0,0.0,0.0,0.0,0.0,0.0,0.0,0.0,0.0,0.0,0.0,0.0,0.0,0.0,0.0,0.0,0.0,0.0,0.0,0.0,0.0,0.0,0.0,0.0,0.0,0.0,0.0,0.0,0.0,0.0,0.0,0.0,0.0,0.0,0.0,0.0,0.0,0.0,0.0,0.0,0.0,0.0,0.0,0.0,0.0,0.0,0.0,0.0,0.0,0.0,0.0,0.0,0.0,0.0,0.0,0.0,0.0,0.0,0.0,0.0,0.0,0.0,0.0,0.0,0.0,0.0,0.0,0.0,0.0,0.0,0.0,0.0,0.0,0.0,0.0,0.0,0.0,0.0,0.0,0.0,0.0,0.0,0.0,0.0,0.0,0.0,0.0,0.0,0.0,0.0,0.0,0.0,0.0,0.0,0.0,0.0,0.0,0.0,0.0,0.0,0.0,0.0,0.0,0.0,0.0,0.0,0.0,0.0,0.0,0.0,0.0,0.0,0.0,0.0,0.0,0.0,0.0,0.0,0.0,0.0,0.0,0.0,0.0,0.0,0.0,0.0,0.0,0.0,0.0,0.0,0.0,0.0,0.0,0.0,0.0,0.0,0.0,0.0,0.0,0.0,0.0,0.0,0.0,0.0,0.0,0.0,0.0,0.0,0.0,0.0,0.0,0.0,0.0,0.0,0.0,0.0,0.0,0.0,0.0,0.0,0.0,0.0,0.0,0.0,0.0,0.0,0.0,0.0,0.0,0.0,0.0,0.0,0.0,0.0,0.0,0.0,0.0,0.0,0.0,0.0,0.0,0.0,0.0,0.0,0.0,0.0,0.0,0.0,0.0,0.0,0.0,0.0,0.0,0.0,0.0,0.0,0.0,0.0,0.0,0.0,0.0,0.0,0.0,0.0,0.0,0.0,0.0,0.0,0.0,0.0,0.0,0.0,0.0,0.0,0.0,0.0,0.0,0.0,0.0,0.0,0.0,0.0,0.0,0.0,0.0,0.0,0.0,0.0,0.0,0.0,0.0,0.0,0.0,0.0,0.0,0.0,0.0,0.0,0.0,0.0,0.0,0.0,0.0,0.0,0.0,0.0,0.0,0.0,0.0,0.0,0.0,0.0,0.0,0.0,0.0,0.0,0.0,0.0,0.0,0.0,0.0,0.0,0.0,0.0,0.0,0.0,0.0,0.0,0.0,0.0,0.0,0.0,0.0,0.0,0.0,0.0,0.0,0.0,0.0,-1.1992,0.0,0.0,0.0,0.0,0.0,0.0,0.0,0.0,0.0,0.0,0.0,0.0,0.0,0.0,0.0,0.0,0.0,0.0,0.0,0.0,0.0,0.0,0.0,0.0,0.0,0.0,0.0,0.0,0.0,0.0,0.0,0.0,0.0,0.0,0.0,0.0,0.0,0.0,0.0,0.0,0.0,0.0,0.0,0.0,0.0,0.0,0.0,0.0,0.0,0.0,0.0,0.0,0.0,0.0,0.0,0.0,0.0,0.0,0.0,0.0,0.0,0.0,0.0,0.0,0.0,0.0,0.0,0.0,0.0,0.0,0.0,0.0,0.0,0.0,0.0,0.0,0.0,0.0,0.0,0.0,0.0,0.0,0.0,0.0,0.0,0.0,0.0,0.0,0.0,0.0,0.0,0.0,0.0,0.0,0.0,0.0,0.0,0.0,0.0,0.0,0.0,0.0,0.0,0.0,0.0,0.0,0.0,0.0,0.0,0.0,-1.8734,-1.7856,-1.6497,-1.4979,-1.3213,0.0,0.0,0.0,0.0,0.0,0.0,0.0,0.0,0.0,0.0,0.0,0.0,0.0,0.0,0.0,0.0,0.0,0.0,0.0,0.0,0.0,0.0,0.0,0.0,0.0,0.0,0.0,0.0,0.0,0.0,0.0,0.0,0.0,0.0,0.0,0.0,0.0,0.0,0.0,0.0,0.0,0.0,0.0,0.0,0.0,0.0,0.0,0.0,0.0,0.0,0.0,0.0,0.0,0.0,0.0,0.0,0.0,0.0,0.0,0.0,0.0,0.0,0.0,0.0,0.0,0.0,0.0,0.0,0.0,0.0,0.0,0.0,0.0,0.0,0.0,0.0,0.0,0.0,0.0,0.0,0.0,0.0,0.0,0.0,0.0,0.0,0.0,0.0,0.0,0.0,0.0,0.0,0.0,0.0,0.0,0.0,0.0,0.0,0.0,0.0,0.0,0.0,0.0,0.0,0.0,0.0,0.0,0.0,0.0,0.0,0.0,0.0,-1.7423,-1.5975,-1.4358,0.0,0.0,0.0,0.0,0.0,0.0,0.0,0.0,0.0,0.0,0.0,0.0,0.0,0.0,0.0,0.0,0.0,0.0,0.0,0.0,0.0,0.0,0.0,0.0,0.0,0.0,0.0,0.0,0.0,0.0,0.0,0.0,0.0,0.0,0.0,0.0,0.0,0.0,0.0,0.0,0.0,0.0,0.0,0.0,0.0,0.0,0.0,0.0,0.0,0.0,0.0,0.0,0.0,0.0,0.0,0.0,0.0,0.0,0.0,0.0,0.0,0.0,0.0,0.0,0.0,0.0,0.0,0.0,0.0,0.0,0.0,0.0,0.0,0.0,0.0,0.0,0.0,0.0,0.0,0.0,0.0,0.0,0.0,0.0,0.0,0.0,0.0,0.0,0.0,0.0,0.0,0.0,0.0,0.0,0.0,0.0,0.0,0.0,0.0,0.0,0.0,0.0,0.0,0.0,0.0,0.0,0.0,0.0,0.0,0.0,-1.9432,-2.0664,-1.9928,0.0,-1.5802,0.0,0.0,0.0,0.0,0.0,0.0,0.0,0.0,0.0,0.0,0.0,0.0,0.0,0.0,0.0,0.0,0.0,0.0,0.0,0.0,0.0,0.0,0.0,0.0,0.0,0.0,0.0,0.0,0.0,0.0,0.0,0.0,0.0,0.0,0.0,0.0,0.0,0.0,0.0,0.0,0.0,0.0,0.0,0.0,0.0,0.0,0.0,0.0,0.0,0.0,0.0,0.0,0.0,0.0,0.0,0.0,0.0,0.0,0.0,0.0,0.0,0.0,0.0,0.0,0.0,0.0,0.0,0.0,0.0,0.0,0.0,0.0,0.0,0.0,0.0,0.0,0.0,0.0,0.0,0.0,0.0,0.0,0.0,0.0,0.0,0.0,0.0,0.0,0.0,0.0,0.0,0.0,0.0,0.0,0.0,0.0,0.0,0.0,0.0,0.0,0.0,0.0,0.0,0.0,0.0,0.0,0.0,0.0,0.0,0.0,-2.0771,-2.1155,-2.0003,-1.8386,0.0,0.0,0.0,0.0,0.0,0.0,0.0,0.0,0.0,0.0,0.0,0.0,0.0,0.0,0.0,0.0,0.0,0.0,0.0,0.0,0.0,0.0,0.0,0.0,0.0,0.0,0.0,0.0,0.0,0.0,0.0,0.0,0.0,0.0,0.0,0.0,0.0,0.0,0.0,0.0,0.0,0.0,0.0,0.0,0.0,0.0,0.0,0.0,0.0,0.0,0.0,0.0,0.0,0.0,0.0,0.0,0.0,0.0,0.0,0.0,0.0,0.0,0.0,0.0,0.0,0.0,0.0,0.0,0.0,0.0,0.0,0.0,0.0,0.0,0.0,0.0,0.0,0.0,0.0,0.0,0.0,0.0,0.0,0.0,0.0,0.0,0.0,0.0,0.0,0.0,0.0,0.0,0.0,0.0,0.0,0.0,0.0,0.0,0.0,0.0,0.0,0.0,0.0,0.0,0.0,0.0,0.0,0.0,0.0,0.0,-2.1696,-2.1807,-2.1726,-2.0378,-1.865,-1.6664,0.0,0.0,0.0,0.0,0.0,0.0,0.0,0.0,0.0,0.0,0.0,0.0,0.0,0.0,0.0,0.0,0.0,0.0,0.0,0.0,0.0,0.0,0.0,0.0,0.0,0.0,0.0,0.0,0.0,0.0,0.0,0.0,0.0,0.0,0.0,0.0,0.0,0.0,0.0,0.0,0.0,0.0,0.0,0.0,0.0,0.0,0.0,0.0,0.0,0.0,0.0,0.0,0.0,0.0,0.0,0.0,0.0,0.0,0.0,0.0,0.0,0.0,0.0,0.0,0.0,0.0,0.0,0.0,0.0,0.0,0.0,0.0,0.0,0.0,0.0,0.0,0.0,0.0,0.0,0.0,0.0,0.0,0.0,0.0,0.0,0.0,0.0,0.0,0.0,0.0,0.0,0.0,0.0,0.0,0.0,0.0,0.0,0.0,0.0,0.0,0.0,0.0,0.0,0.0,0.0,0.0,0.0,0.0,-2.545,-2.3225,-2.2281,-2.2994,-2.178,-1.9755,0.0,0.0,0.0,0.0,0.0,0.0,0.0,0.0,0.0,0.0,0.0,0.0,0.0,0.0,0.0,0.0,0.0,0.0,0.0,0.0,0.0,0.0,0.0,0.0,0.0,0.0,0.0,0.0,0.0,0.0,0.0,0.0,0.0,0.0,0.0,0.0,0.0,0.0,0.0,0.0,0.0,0.0,0.0,0.0,0.0,0.0,0.0,0.0,0.0,0.0,0.0,0.0,0.0,0.0,0.0,0.0,0.0,0.0,0.0,0.0,0.0,0.0,0.0,0.0,0.0,0.0,0.0,0.0,0.0,0.0,0.0,0.0,0.0,0.0,0.0,0.0,0.0,0.0,0.0,0.0,0.0,0.0,0.0,0.0,0.0,0.0,0.0,0.0,0.0,0.0,0.0,0.0,0.0,0.0,0.0,0.0,0.0,0.0,0.0,0.0,0.0,0.0,0.0,0.0,0.0,0.0,0.0,0.0,0.0,-2.3738,-2.322,-2.3805,-2.5468,-2.2694,-2.0325,0.0,0.0,0.0,0.0,0.0,0.0,0.0,0.0,0.0,0.0,0.0,0.0,0.0,0.0,0.0,0.0,0.0,0.0,0.0,0.0,0.0,0.0,0.0,0.0,0.0,0.0,0.0,0.0,0.0,0.0,0.0,0.0,0.0,0.0,0.0,0.0,0.0,0.0,0.0,0.0,0.0,0.0,0.0,0.0,0.0,0.0,0.0,0.0,0.0,0.0,0.0,0.0,0.0,0.0,0.0,0.0,0.0,0.0,0.0,0.0,0.0,0.0,0.0,0.0,0.0,0.0,0.0,0.0,0.0,0.0,0.0,0.0,0.0,0.0,0.0,0.0,0.0,0.0,0.0,0.0,0.0,0.0,0.0,0.0,0.0,0.0,0.0,0.0,0.0,0.0,0.0,0.0,0.0,0.0,0.0,0.0,0.0,0.0,0.0,0.0,0.0,0.0,0.0,0.0,0.0,0.0,0.0,0.0,0.0,-2.3667,0.0,-2.5132,-2.5829,-2.3254,-2.0665,0.0,0.0,0.0,0.0,0.0,0.0,0.0,0.0,0.0,0.0,0.0,0.0,0.0,0.0,0.0,0.0,0.0,0.0,0.0,0.0,0.0,0.0,0.0,0.0,0.0,0.0,0.0,0.0,0.0,0.0,0.0,0.0,0.0,0.0,0.0,0.0,0.0,0.0,0.0,0.0,0.0,0.0,0.0,0.0,0.0,0.0,0.0,0.0,0.0,0.0,0.0,0.0,0.0,0.0,0.0,0.0,0.0,0.0,0.0,0.0,0.0,0.0,0.0,0.0,0.0,0.0,0.0,0.0,0.0,0.0,0.0,0.0,0.0,0.0,0.0,0.0,0.0,0.0,0.0,0.0,0.0,0.0,0.0,0.0,0.0,0.0,0.0,0.0,0.0,0.0,0.0,0.0,0.0,0.0,0.0,0.0,0.0,0.0,0.0,0.0,0.0,0.0,0.0,0.0,0.0,0.0,0.0,0.0,-2.3812,-2.5891,-2.6692,-2.6076,-2.388,-2.3437,-2.0758,0.0,0.0,0.0,0.0,0.0,0.0,0.0,0.0,0.0,0.0,0.0,0.0,0.0,0.0,0.0,0.0,0.0,0.0,0.0,0.0,0.0,0.0,0.0,0.0,0.0,0.0,0.0,0.0,0.0,0.0,0.0,0.0,0.0,0.0,0.0,0.0,0.0,0.0,0.0,0.0,0.0,0.0,0.0,0.0,0.0,0.0,0.0,0.0,0.0,0.0,0.0,0.0,0.0,0.0,0.0,0.0,0.0,0.0,0.0,0.0,0.0,0.0,0.0,0.0,0.0,0.0,0.0,0.0,0.0,0.0,0.0,0.0,0.0,0.0,0.0,0.0,0.0,0.0,0.0,0.0,0.0,0.0,0.0,0.0,0.0,0.0,0.0,0.0,0.0,0.0,0.0,0.0,0.0,0.0,0.0,0.0,0.0,0.0,0.0,0.0,0.0,0.0,0.0,0.0,0.0,0.0,0.0,0.0,0.0,-2.6129,-2.625,-2.6581,-2.6991,-2.3638,-2.137,0.0,0.0,0.0,0.0,0.0,0.0,0.0,0.0,0.0,0.0,0.0,0.0,0.0,0.0,0.0,0.0,0.0,0.0,0.0,0.0,0.0,0.0,0.0,0.0,0.0,0.0,0.0,0.0,0.0,0.0,0.0,0.0,0.0,0.0,0.0,0.0,0.0,0.0,0.0,0.0,0.0,0.0,0.0,0.0,0.0,0.0,0.0,0.0,0.0,0.0,0.0,0.0,0.0,0.0,0.0,0.0,0.0,0.0,0.0,0.0,0.0,0.0,0.0,0.0,0.0,0.0,0.0,0.0,0.0,0.0,0.0,0.0,0.0,0.0,0.0,0.0,0.0,0.0,0.0,0.0,0.0,0.0,0.0,0.0,0.0,0.0,0.0,0.0,0.0,0.0,0.0,0.0,0.0,0.0,0.0,0.0,0.0,0.0,0.0,0.0,0.0,0.0,0.0,0.0,0.0,0.0,0.0,0.0,0.0,-2.7594,-2.7689,-2.7903,-2.8167,-2.4437,-2.2131,-2.1406,0.0,0.0,0.0,0.0,0.0,0.0,0.0,0.0,0.0,0.0,0.0,0.0,0.0,0.0,0.0,0.0,0.0,0.0,0.0,0.0,0.0,0.0,0.0,0.0,0.0,0.0,0.0,0.0,0.0,0.0,0.0,0.0,0.0,0.0,0.0,0.0,0.0,0.0,0.0,0.0,0.0,0.0,0.0,0.0,0.0,0.0,0.0,0.0,0.0,0.0,0.0,0.0,0.0,0.0,0.0,0.0,0.0,0.0,0.0,0.0,0.0,0.0,0.0,0.0,0.0,0.0,0.0,0.0,0.0,0.0,0.0,0.0,0.0,0.0,0.0,0.0,0.0,0.0,0.0,0.0,0.0,0.0,0.0,0.0,0.0,0.0,0.0,0.0,0.0,0.0,0.0,0.0,0.0,0.0,0.0,0.0,0.0,0.0,0.0,0.0,0.0,0.0,0.0,0.0,0.0,0.0,0.0,0.0,-2.9945,-3.0639,-2.9911,-2.7634,-2.5769,-2.3065,0.0,0.0,0.0,0.0,0.0,0.0,0.0,0.0,0.0,0.0,0.0,0.0,0.0,0.0,0.0,0.0,0.0,0.0,0.0,0.0,0.0,0.0,0.0,0.0,0.0,0.0,0.0,0.0,0.0,0.0,0.0,0.0,0.0,0.0,0.0,0.0,0.0,0.0,0.0,0.0,0.0,0.0,0.0,0.0,0.0,0.0,0.0,0.0,0.0,0.0,0.0,0.0,0.0,0.0,0.0,0.0,0.0,0.0,0.0,0.0,0.0,0.0,0.0,0.0,0.0,0.0,0.0,0.0,0.0,0.0,0.0,0.0,0.0,0.0,0.0,0.0,0.0,0.0,0.0,0.0,0.0,0.0,0.0,0.0,0.0,0.0,0.0,0.0,0.0,0.0,0.0,0.0,0.0,0.0,0.0,0.0,0.0,0.0,0.0,0.0,0.0,0.0,0.0,0.0,0.0,0.0,0.0,0.0,0.0,-3.1525,-3.2128,-3.1681,-3.0039,-2.7571,-2.511,0.0,0.0,0.0,0.0,0.0,0.0,0.0,0.0,0.0,0.0,0.0,0.0,0.0,0.0,0.0,0.0,0.0,0.0,0.0,0.0,0.0,0.0,0.0,0.0,0.0,0.0,0.0,0.0,0.0,0.0,0.0,0.0,0.0,0.0,0.0,0.0,0.0,0.0,0.0,0.0,0.0,0.0,0.0,0.0,0.0,0.0,0.0,0.0,0.0,0.0,0.0,0.0,0.0,0.0,0.0,0.0,0.0,0.0,0.0,0.0,0.0,0.0,0.0,0.0,0.0,0.0,0.0,0.0,0.0,0.0,0.0,0.0,0.0,0.0,0.0,0.0,0.0,0.0,0.0,0.0,0.0,0.0,0.0,0.0,0.0,0.0,0.0,0.0,0.0,0.0,0.0,0.0,0.0,0.0,0.0,0.0,0.0,0.0,0.0,0.0,0.0,0.0,0.0,0.0,0.0,0.0,0.0,0.0,-3.1758,-3.2144,-3.2695,-3.2422,-3.1291,-2.873,-2.6169,0.0,0.0,0.0,0.0,0.0,0.0,0.0,0.0,0.0,0.0,0.0,0.0,0.0,0.0,0.0,0.0,0.0,0.0,0.0,0.0,0.0,0.0,0.0,0.0,0.0,0.0,0.0,0.0,0.0,0.0,0.0,0.0,0.0,0.0,0.0,0.0,0.0,0.0,0.0,0.0,0.0,0.0,0.0,0.0,0.0,0.0,0.0,0.0,0.0,0.0,0.0,0.0,0.0,0.0,0.0,0.0,0.0,0.0,0.0,0.0,0.0,0.0,0.0,0.0,0.0,0.0,0.0,0.0,0.0,0.0,0.0,0.0,0.0,0.0,0.0,0.0,0.0,0.0,0.0,0.0,0.0,0.0,0.0,0.0,0.0,0.0,0.0,0.0,0.0,0.0,0.0,0.0,0.0,0.0,0.0,0.0,0.0,0.0,0.0,0.0,0.0,0.0,0.0,0.0,0.0,0.0,0.0,0.0,-3.1703,-3.2165,-3.2717,-3.2603,-3.1721,-2.953,-2.6696,0.0,0.0,0.0,0.0,0.0,0.0,0.0,0.0,0.0,0.0,0.0,0.0,0.0,0.0,0.0,0.0,0.0,0.0,0.0,0.0,0.0,0.0,0.0,0.0,0.0,0.0,0.0,0.0,0.0,0.0,0.0,0.0,0.0,0.0,0.0,0.0,0.0,0.0,0.0,0.0,0.0,0.0,0.0,0.0,0.0,0.0,0.0,0.0,0.0,0.0,0.0,0.0,0.0,0.0,0.0,0.0,0.0,0.0,0.0,0.0,0.0,0.0,0.0,0.0,0.0,0.0,0.0,0.0,0.0,0.0,0.0,0.0,0.0,0.0,0.0,0.0,0.0,0.0,0.0,0.0,0.0,0.0,0.0,0.0,0.0,0.0,0.0,0.0,0.0,0.0,0.0,0.0,0.0,0.0,0.0,0.0,0.0,0.0,0.0,0.0,0.0,0.0,0.0,0.0,0.0,0.0,0.0,0.0,-3.1504,-3.204,-3.2668,-3.2878,-3.2616,-3.082,-2.7901,0.0,0.0,0.0,0.0,0.0,0.0,0.0,0.0,0.0,0.0,0.0,0.0,0.0,0.0,0.0,0.0,0.0,0.0,0.0,0.0,0.0,0.0,0.0,0.0,0.0,0.0,0.0,0.0,0.0,0.0,0.0,0.0,0.0,0.0,0.0,0.0,0.0,0.0,0.0,0.0,0.0,0.0,0.0,0.0,0.0,0.0,0.0,0.0,-1.737,0.0,0.0,0.0,0.0,0.0,0.0,0.0,0.0,0.0,0.0,0.0,0.0,0.0,0.0,0.0,0.0,0.0,0.0,0.0,0.0,0.0,0.0,0.0,0.0,0.0,0.0,0.0,0.0,0.0,0.0,0.0,0.0,0.0,0.0,0.0,0.0,0.0,0.0,0.0,0.0,0.0,0.0,0.0,0.0,0.0,0.0,0.0,0.0,0.0,0.0,0.0,0.0,0.0,0.0,0.0,0.0,0.0,0.0,0.0,-3.107,-3.2023,-3.2296,-3.2375,-3.221,-3.1329,-2.8812,0.0,0.0,0.0,0.0,0.0,0.0,0.0,0.0,0.0,0.0,0.0,0.0,0.0,0.0,0.0,0.0,0.0,0.0,0.0,0.0,0.0,0.0,0.0,0.0,0.0,0.0,0.0,0.0,0.0,0.0,0.0,0.0,0.0,0.0,0.0,0.0,0.0,0.0,0.0,0.0,0.0,0.0,0.0,0.0,0.0,0.0,0.0,0.0,0.0,0.0,0.0,0.0,0.0,0.0,0.0,0.0,0.0,0.0,0.0,0.0,0.0,0.0,0.0,0.0,0.0,0.0,0.0,0.0,0.0,0.0,0.0,0.0,0.0,0.0,0.0,0.0,0.0,0.0,0.0,0.0,0.0,0.0,0.0,0.0,0.0,0.0,0.0,0.0,0.0,0.0,0.0,0.0,0.0,0.0,0.0,0.0,0.0,0.0,0.0,0.0,0.0,0.0,0.0,0.0,0.0,0.0,0.0,-2.9513,-3.0542,-3.2177,-3.1901,-3.1638,-3.151,-3.1271,-2.9338,-2.5464,0.0,0.0,0.0,0.0,0.0,0.0,0.0,0.0,0.0,0.0,0.0,0.0,0.0,0.0,0.0,0.0,0.0,0.0,0.0,0.0,0.0,0.0,0.0,0.0,0.0,0.0,0.0,0.0,0.0,0.0,0.0,0.0,0.0,0.0,0.0,0.0,0.0,0.0,-1.5775,-1.7101,0.0,0.0,0.0,0.0,0.0,0.0,0.0,0.0,-2.1575,0.0,0.0,0.0,0.0,0.0,0.0,0.0,0.0,0.0,0.0,0.0,0.0,0.0,0.0,0.0,0.0,0.0,0.0,0.0,0.0,0.0,0.0,0.0,0.0,0.0,0.0,0.0,0.0,0.0,0.0,0.0,0.0,0.0,0.0,0.0,0.0,0.0,0.0,0.0,0.0,0.0,0.0,0.0,0.0,0.0,0.0,0.0,0.0,0.0,0.0,0.0,0.0,0.0,0.0,0.0,0.0,-2.9768,-2.9216,-3.0224,-3.2913,-3.1874,-3.1382,-3.1553,-3.0603,-2.8866,-2.6369,0.0,0.0,0.0,0.0,0.0,0.0,0.0,0.0,0.0,0.0,0.0,0.0,0.0,0.0,0.0,0.0,0.0,0.0,0.0,0.0,0.0,0.0,0.0,0.0,0.0,0.0,0.0,0.0,0.0,0.0,0.0,0.0,0.0,0.0,0.0,0.0,0.0,0.0,0.0,-2.0525,-2.173,0.0,0.0,0.0,0.0,0.0,0.0,0.0,0.0,-2.2548,0.0,0.0,0.0,0.0,0.0,0.0,0.0,0.0,0.0,0.0,0.0,0.0,0.0,0.0,0.0,0.0,0.0,0.0,0.0,0.0,0.0,0.0,0.0,0.0,0.0,0.0,0.0,0.0,0.0,0.0,0.0,0.0,0.0,0.0,0.0,0.0,0.0,0.0,0.0,0.0,0.0,0.0,0.0,0.0,0.0,0.0,0.0,0.0,0.0,0.0,0.0,0.0,0.0,0.0,0.0,-2.987,-2.9561,-3.0301,-3.2251,-3.1231,-3.0503,-3.0201,-2.9916,-2.8765,0.0,0.0,0.0,0.0,0.0,0.0,0.0,0.0,0.0,0.0,0.0,0.0,0.0,0.0,0.0,0.0,0.0,0.0,0.0,0.0,0.0,0.0,0.0,0.0,0.0,0.0,0.0,0.0,0.0,0.0,0.0,0.0,0.0,0.0,0.0,0.0,0.0,0.0,0.0,0.0,-2.1789,-2.3048,-2.4299,0.0,0.0,0.0,0.0,0.0,0.0,-2.323,-2.3509,0.0,0.0,0.0,0.0,0.0,0.0,0.0,0.0,0.0,0.0,0.0,0.0,0.0,0.0,0.0,0.0,0.0,0.0,0.0,0.0,0.0,0.0,0.0,0.0,0.0,0.0,0.0,0.0,0.0,0.0,0.0,0.0,0.0,0.0,0.0,0.0,0.0,0.0,0.0,0.0,0.0,0.0,0.0,0.0,0.0,0.0,0.0,0.0,0.0,0.0,0.0,0.0,0.0,0.0,0.0,-2.968,-2.9674,-3.0359,-3.1705,-3.0638,-2.9727,-2.9193,-2.9353,-2.856,0.0,0.0,0.0,0.0,0.0,0.0,0.0,0.0,0.0,0.0,0.0,0.0,0.0,0.0,0.0,0.0,0.0,0.0,0.0,0.0,0.0,0.0,0.0,0.0,0.0,0.0,0.0,0.0,0.0,0.0,0.0,0.0,0.0,0.0,0.0,0.0,0.0,0.0,0.0,0.0,0.0,-2.4344,-2.5863,-2.543,0.0,0.0,0.0,0.0,-2.348,-2.4177,0.0,0.0,0.0,0.0,0.0,0.0,0.0,0.0,0.0,0.0,0.0,0.0,0.0,0.0,0.0,0.0,0.0,0.0,0.0,0.0,0.0,0.0,0.0,0.0,0.0,0.0,0.0,0.0,0.0,0.0,0.0,0.0,0.0,0.0,0.0,0.0,0.0,0.0,0.0,0.0,0.0,0.0,0.0,0.0,0.0,0.0,0.0,0.0,0.0,0.0,0.0,0.0,0.0,0.0,0.0,0.0,-2.8802,-2.8821,-3.0058,-3.236,-3.0659,-2.979,-3.0013,-2.8932,-2.7777,0.0,0.0,0.0,0.0,0.0,0.0,0.0,0.0,0.0,0.0,0.0,0.0,0.0,0.0,0.0,0.0,0.0,0.0,0.0,0.0,0.0,0.0,0.0,0.0,0.0,0.0,0.0,0.0,0.0,0.0,0.0,0.0,0.0,0.0,0.0,0.0,0.0,0.0,0.0,0.0,0.0,-2.7016,-2.6458,-2.6439,-2.652,0.0,0.0,-2.5158,-2.5693,-2.5713,0.0,0.0,0.0,0.0,0.0,0.0,0.0,0.0,0.0,0.0,0.0,0.0,0.0,0.0,0.0,0.0,0.0,0.0,0.0,0.0,0.0,0.0,0.0,0.0,0.0,0.0,0.0,0.0,0.0,0.0,0.0,0.0,0.0,0.0,0.0,0.0,0.0,0.0,0.0,0.0,0.0,0.0,0.0,0.0,0.0,0.0,0.0,0.0,0.0,0.0,0.0,0.0,0.0,0.0,0.0,-2.772,-2.8597,-2.9063,-2.983,-3.0961,-2.9582,-2.8762,-2.8671,-2.7902,-2.6824,0.0,0.0,0.0,0.0,0.0,0.0,0.0,0.0,0.0,0.0,0.0,0.0,0.0,0.0,0.0,0.0,0.0,0.0,0.0,0.0,0.0,0.0,0.0,0.0,0.0,0.0,0.0,0.0,0.0,0.0,0.0,0.0,0.0,0.0,0.0,0.0,0.0,0.0,0.0,0.0,0.0,0.0,-2.7833,-2.799,0.0,0.0,0.0,-2.647,-2.6244,0.0,0.0,0.0,0.0,0.0,0.0,0.0,0.0,0.0,0.0,0.0,0.0,0.0,0.0,0.0,0.0,0.0,0.0,0.0,0.0,0.0,0.0,0.0,0.0,0.0,0.0,0.0,0.0,0.0,0.0,0.0,0.0,0.0,0.0,0.0,0.0,0.0,0.0,0.0,0.0,0.0,0.0,0.0,0.0,0.0,0.0,0.0,0.0,0.0,0.0,0.0,0.0,0.0,0.0,0.0,0.0,0.0,-2.824,-2.9136,-2.9686,-2.9733,-2.873,-2.8088,-2.7805,-2.7115,0.0,0.0,0.0,0.0,0.0,0.0,0.0,0.0,0.0,0.0,0.0,0.0,0.0,0.0,0.0,0.0,0.0,0.0,0.0,0.0,0.0,0.0,0.0,0.0,0.0,0.0,0.0,-1.6208,0.0,0.0,0.0,0.0,0.0,0.0,0.0,0.0,0.0,0.0,0.0,0.0,0.0,0.0,-2.7307,-2.8595,-2.8686,-2.8494,0.0,0.0,-2.7254,-2.6627,-2.6382,-2.5955,0.0,0.0,0.0,0.0,0.0,0.0,0.0,0.0,0.0,0.0,0.0,0.0,0.0,0.0,0.0,0.0,0.0,0.0,0.0,0.0,0.0,0.0,0.0,0.0,0.0,0.0,0.0,0.0,0.0,0.0,0.0,0.0,0.0,0.0,0.0,0.0,0.0,0.0,0.0,0.0,0.0,0.0,0.0,0.0,0.0,0.0,0.0,0.0,0.0,0.0,0.0,0.0,0.0,0.0,-2.721,-2.7244,-2.8652,-2.9492,-2.9663,-2.873,-2.8337,-2.8572,-2.6968,-2.5617,0.0,0.0,0.0,0.0,0.0,0.0,0.0,0.0,0.0,0.0,0.0,0.0,0.0,0.0,0.0,0.0,0.0,0.0,0.0,0.0,0.0,0.0,0.0,0.0,0.0,0.0,0.0,0.0,0.0,0.0,0.0,0.0,0.0,0.0,0.0,0.0,0.0,0.0,0.0,0.0,0.0,-2.823,-2.793,-2.7805,-2.7707,0.0,-2.7332,-2.7257,-2.7319,-2.7116,-2.6669,-2.5863,0.0,0.0,0.0,0.0,0.0,0.0,0.0,0.0,0.0,0.0,0.0,0.0,0.0,0.0,0.0,0.0,0.0,0.0,0.0,0.0,0.0,0.0,0.0,0.0,0.0,0.0,0.0,0.0,0.0,0.0,0.0,0.0,0.0,0.0,0.0,0.0,0.0,0.0,0.0,0.0,0.0,0.0,0.0,0.0,0.0,0.0,0.0,0.0,0.0,0.0,0.0,0.0,0.0,-2.6879,-2.6277,-2.7715,-2.8125,-2.7446,-2.6913,-2.6623,-2.6551,-2.5789,-2.4511,0.0,0.0,0.0,0.0,0.0,0.0,0.0,0.0,0.0,0.0,0.0,0.0,0.0,0.0,0.0,0.0,0.0,0.0,0.0,0.0,0.0,0.0,0.0,0.0,0.0,0.0,0.0,0.0,-1.7878,-1.7803,-1.7652,0.0,0.0,0.0,0.0,0.0,0.0,0.0,0.0,0.0,0.0,-2.8083,-2.8018,-2.7745,0.0,0.0,-2.7491,-2.7592,-2.7951,-2.7101,-2.6274,-2.597,-2.4575,0.0,0.0,0.0,0.0,0.0,0.0,0.0,0.0,0.0,0.0,0.0,0.0,0.0,0.0,0.0,0.0,0.0,0.0,0.0,0.0,0.0,0.0,0.0,0.0,0.0,0.0,0.0,0.0,0.0,0.0,0.0,0.0,0.0,0.0,0.0,0.0,0.0,0.0,0.0,0.0,0.0,0.0,0.0,0.0,0.0,0.0,0.0,0.0,0.0,0.0,0.0,0.0,-2.6576,-2.5651,-2.7075,-2.7218,-2.6039,-2.58,-2.5544,-2.522,-2.4861,-2.3698,0.0,0.0,0.0,0.0,0.0,0.0,0.0,0.0,0.0,0.0,0.0,0.0,0.0,0.0,0.0,0.0,0.0,0.0,0.0,0.0,0.0,0.0,0.0,0.0,0.0,0.0,0.0,0.0,-1.8245,-1.832,-1.8057,0.0,0.0,0.0,0.0,0.0,0.0,0.0,0.0,0.0,0.0,-2.8015,-2.7712,-2.7429,-2.7214,-2.7136,-2.7223,-2.7504,-2.8044,-2.6991,-2.6059,-2.5816,0.0,0.0,0.0,0.0,0.0,0.0,0.0,0.0,0.0,0.0,0.0,0.0,0.0,0.0,0.0,0.0,0.0,0.0,0.0,0.0,0.0,0.0,0.0,0.0,0.0,0.0,0.0,-3.1984,0.0,0.0,-3.0729,0.0,0.0,0.0,0.0,0.0,0.0,0.0,0.0,0.0,0.0,0.0,0.0,0.0,0.0,0.0,0.0,0.0,0.0,0.0,0.0,0.0,0.0,-2.6334,-2.554,-2.6881,-2.7077,-2.6003,-2.5808,-2.5535,-2.525,-2.4396,-2.3344,-2.2108,0.0,0.0,0.0,0.0,0.0,0.0,0.0,0.0,0.0,0.0,0.0,0.0,0.0,0.0,0.0,0.0,0.0,0.0,0.0,0.0,0.0,0.0,0.0,0.0,0.0,0.0,-1.798,-1.7845,-1.8189,0.0,0.0,0.0,0.0,0.0,0.0,0.0,0.0,0.0,-2.6201,-2.769,-2.8189,-2.6938,-2.6724,-2.6535,-2.59,-2.6333,-2.6882,-2.7349,-2.6829,-2.6139,0.0,0.0,0.0,0.0,0.0,0.0,0.0,0.0,0.0,0.0,0.0,0.0,0.0,0.0,0.0,0.0,0.0,0.0,0.0,0.0,0.0,0.0,0.0,0.0,0.0,0.0,0.0,-3.3138,-3.2827,0.0,0.0,0.0,0.0,0.0,0.0,0.0,0.0,0.0,0.0,0.0,-3.1541,-3.2115,0.0,0.0,0.0,0.0,0.0,0.0,0.0,0.0,0.0,0.0,0.0,0.0,-2.6296,-2.5576,-2.6387,-2.6081,-2.4603,-2.4336,-2.414,-2.39,-2.3476,-2.2757,-2.1718,0.0,0.0,0.0,0.0,0.0,0.0,0.0,0.0,0.0,0.0,0.0,0.0,0.0,0.0,0.0,0.0,0.0,0.0,0.0,0.0,0.0,0.0,0.0,0.0,0.0,-2.0441,0.0,0.0,0.0,0.0,0.0,0.0,0.0,0.0,0.0,0.0,0.0,-2.747,-2.7155,-2.8042,-2.8389,-2.7461,-2.6904,-2.6654,0.0,0.0,0.0,0.0,0.0,0.0,0.0,0.0,0.0,0.0,0.0,0.0,0.0,0.0,-2.4175,-2.4109,-2.4598,-2.4869,-2.4489,0.0,0.0,0.0,0.0,0.0,0.0,0.0,0.0,0.0,0.0,0.0,0.0,0.0,0.0,-3.4264,0.0,-3.3153,0.0,0.0,0.0,0.0,0.0,0.0,0.0,0.0,-3.3468,-3.2886,-3.1574,-3.2124,-3.1771,0.0,-3.0133,-2.9687,0.0,0.0,0.0,0.0,0.0,0.0,0.0,0.0,-2.6314,-2.5539,-2.5816,-2.5266,-2.3868,-2.3594,-2.3407,-2.3241,-2.253,-2.1756,-2.0916,-2.0111,-1.9639,0.0,0.0,0.0,0.0,0.0,0.0,0.0,0.0,0.0,0.0,0.0,0.0,0.0,0.0,0.0,0.0,0.0,0.0,0.0,0.0,0.0,0.0,0.0,-2.1754,0.0,0.0,0.0,0.0,0.0,0.0,0.0,0.0,0.0,-2.616,-2.7862,-2.8755,-2.8028,-2.8812,-2.9093,-2.7988,0.0,0.0,0.0,0.0,0.0,0.0,0.0,-2.5707,-2.4873,-2.4239,-2.382,-2.381,-2.4249,-2.4593,-2.4677,0.0,0.0,-2.4703,-2.5124,-2.552,-2.5344,-2.6103,-2.6585,-2.6027,-2.6178,-2.6226,0.0,0.0,0.0,0.0,0.0,0.0,0.0,0.0,-3.6662,-3.606,0.0,-3.4522,0.0,0.0,0.0,0.0,0.0,-3.3133,0.0,0.0,-3.2865,-3.2363,-3.1583,-3.1602,-3.1531,-3.1407,-3.0388,-3.0234,-3.0791,-2.9884,0.0,0.0,0.0,0.0,0.0,0.0,-2.6297,-2.5521,-2.5322,-2.4735,-2.3871,-2.3594,-2.3448,-2.3289,-2.1704,-2.0504,-1.9834,-1.9572,-1.9106,-1.8532,-1.9756,0.0,0.0,0.0,0.0,0.0,0.0,0.0,0.0,0.0,0.0,0.0,0.0,0.0,0.0,0.0,0.0,0.0,0.0,0.0,0.0,-2.1832,0.0,0.0,0.0,0.0,0.0,0.0,0.0,0.0,0.0,0.0,-2.9225,-2.9134,-2.9006,-2.8749,0.0,0.0,0.0,0.0,-2.8555,-2.8091,-2.7411,-2.6998,-2.732,-2.6352,-2.5103,-2.3899,0.0,0.0,-2.3434,-2.4249,-2.4851,-2.4738,-2.5239,-2.5801,-2.5643,-2.5324,-2.5303,-2.5751,-2.5941,-2.5941,-2.5887,-2.5986,-2.5928,-3.7345,0.0,0.0,0.0,0.0,-3.6677,-3.6794,-3.6774,-3.6385,-3.5963,-3.5457,-3.4859,0.0,0.0,0.0,0.0,0.0,0.0,-3.2798,-3.2184,-3.2651,-3.2084,-3.0714,-3.1309,-3.1277,-3.063,-3.0185,-3.0284,-3.0866,-3.0468,-2.9481,-2.7969,0.0,0.0,0.0,0.0,-2.6316,-2.5539,-2.5303,-2.4796,-2.3955,-2.3765,-2.3539,-2.3223,-2.1704,-2.0966,-2.1114,-2.0111,-1.9671,-1.9917,-2.0808,0.0,0.0,0.0,0.0,0.0,0.0,0.0,0.0,0.0,0.0,0.0,0.0,0.0,0.0,0.0,0.0,0.0,0.0,0.0,-2.2579,-2.2439,-2.2962,0.0,0.0,0.0,0.0,0.0,0.0,0.0,0.0,0.0,-3.0711,-3.0776,-3.0476,0.0,0.0,-2.9649,-2.8349,-2.8046,-2.7805,-2.7162,-2.6641,0.0,-2.5369,-2.4788,-2.4099,-2.3357,-2.3004,-2.2799,-2.2732,-2.3247,-2.3685,-2.3698,-2.4275,-2.4776,-2.4958,-2.5684,-2.6145,-2.5995,-2.6467,-2.6717,-2.6108,-2.6013,-2.6075,-3.7717,-3.8332,-3.7175,-3.6688,-3.6727,-3.7058,-3.6999,-3.6688,-3.6493,-3.622,-3.583,-3.5008,-3.4549,-3.4351,-3.3519,0.0,0.0,0.0,-3.2178,-3.1263,-3.1715,-3.1359,-3.0424,-3.0886,-3.0823,-3.0286,-2.9844,-2.9749,-2.9941,-2.9833,-2.8986,-2.753,0.0,0.0,-2.6857,-2.6428,-2.5982,-2.5501,-2.4992,-2.447,-2.4014,-2.3747,-2.3499,-2.3223,-2.1464,-2.0787,-2.1333,-1.9963,-1.95,-2.0108,-2.0895,-2.1277,0.0,0.0,0.0,0.0,0.0,0.0,0.0,0.0,0.0,0.0,0.0,-2.2321,-2.2094,0.0,0.0,0.0,-2.3334,-2.3789,-2.497,-2.4835,0.0,0.0,0.0,0.0,0.0,0.0,0.0,-3.0989,-3.0553,-3.0404,-3.1099,-3.0942,-3.0572,-3.0049,-2.9872,-2.938,-2.8257,0.0,-2.7259,-2.6614,-2.6016,-2.5304,-2.4517,-2.3971,-2.3455,-2.2692,-2.2458,-2.23,-2.2154,-2.2587,-2.301,-2.3021,-2.3369,-2.3798,-2.4163,-2.5033,-2.5693,-2.5575,-2.5869,-2.5945,-2.537,-2.5209,-2.511,-3.7643,-3.8146,-3.6489,-3.5855,-3.5992,-3.6752,-3.6576,-3.5777,-3.6537,-3.644,-3.5646,-3.4928,-3.4975,-3.5541,-3.4825,0.0,-3.2953,-3.2182,-3.1288,-3.0402,-3.039,-3.041,-3.0398,-3.0333,-3.0263,-3.0201,-2.9382,-2.8804,-2.8442,-2.848,-2.7862,-2.6723,-2.8225,-2.8227,-2.6745,-2.591,-2.5465,-2.5408,-2.4498,-2.3996,-2.3976,-2.366,-2.3448,-2.3295,-2.1103,-2.0228,-2.0814,-1.9425,-1.8981,-1.9688,-2.0459,-2.1268,-2.2043,0.0,0.0,0.0,0.0,0.0,0.0,0.0,0.0,0.0,0.0,0.0,0.0,0.0,0.0,0.0,-2.5423,0.0,-2.7637,-2.7938,0.0,0.0,0.0,-3.0141,-3.046,-3.064,-3.0988,-3.164,0.0,0.0,-3.0721,-2.9999,-2.9599,-2.9819,-2.9707,-2.9156,-2.7945,-2.7343,-2.6819,-2.6041,-2.536,-2.4728,-2.4161,-2.3579,-2.2869,-2.2014,-2.1832,-2.1794,-2.1731,-2.222,-2.2618,-2.2564,-2.2644,-2.2964,-2.3524,-2.3781,-2.3998,-2.4705,-2.465,-2.4416,-2.4287,-2.3839,-2.3399,-3.642,-3.6511,-3.5438,-3.5357,-3.5981,-3.6196,-3.5415,-3.405,-3.4206,-3.4186,-3.3971,-3.3779,-3.3453,-3.301,-3.2823,-3.2204,-3.128,-3.104,-3.0766,-3.0492,-3.043,-3.0394,-3.0371,-2.9778,-2.944,-2.9321,-2.8571,-2.8056,-2.7818,-2.7717,-2.7148,-2.6148,-2.6414,-2.6321,-2.5894,-2.5633,-2.5189,-2.4598,-2.4205,-2.3955,-2.3837,-2.3616,-2.3476,-2.343,-2.1226,-2.0331,-2.0847,-1.9597,-1.9429,-2.0687,-2.1931,-2.2769,-2.3121,-2.316,0.0,0.0,0.0,0.0,0.0,0.0,0.0,0.0,0.0,-2.3469,-2.2355,0.0,-2.4438,0.0,-2.5727,-2.6776,-2.6928,-2.7012,0.0,0.0,-3.012,-3.0952,-3.1066,-3.1285,-3.1316,-3.105,-3.1004,-3.057,-2.9519,-2.9157,-2.8605,-2.7656,-2.7805,-2.7623,-2.6739,-2.6209,-2.5559,-2.4628,-2.3926,-2.3339,-2.2795,-2.2221,-2.1781,-2.1408,-2.1345,-2.1295,-2.1209,-2.1586,-2.1956,-2.1943,-2.2233,-2.2603,-2.295,-2.295,-2.3031,-2.346,-2.4153,-2.4596,-2.3923,-2.273,-2.1946,-3.6018,-3.5923,-3.5062,-3.4749,-3.4845,-3.4842,-3.4295,-3.3398,-3.3398,-3.3398,-3.3398,-3.338,-3.2916,-3.212,-3.2104,-3.1804,-3.1266,-3.0847,-3.06,-3.0546,-3.0491,-3.0235,-2.9866,-2.9407,-2.8972,-2.8546,-2.7748,-2.7262,-2.7039,-2.654,-2.5962,-2.5367,-2.522,-2.5151,-2.5096,-2.4653,-2.4377,-2.4266,-2.4095,-2.3937,-2.3795,-2.366,-2.3522,-2.3348,-2.1621,-2.1044,-2.1769,-2.0662,-2.0523,-2.1633,-2.2438,-2.2943,-2.3111,-2.3211,-2.326,0.0,0.0,0.0,0.0,0.0,0.0,0.0,0.0,0.0,0.0,0.0,-2.5389,-2.6387,-2.7232,-2.7977,-2.8636,-2.8687,-2.8924,-2.9431,-3.0129,-3.0569,-3.0499,-3.0959,-3.1123,-3.0828,-3.0463,-2.9952,-2.9017,-2.81,-2.7142,-2.6063,-2.5617,-2.5336,-2.5035,-2.4621,-2.3967,-2.2903,-2.2405,-2.1961,-2.1431,-2.1401,-2.1266,-2.0927,-2.0992,-2.1095,-2.1073,-2.1162,-2.1286,-2.1299,-2.1446,-2.1747,-2.2155,-2.2207,-2.2247,-2.2454,-2.3253,-2.3592,-2.275,-2.1508,-2.0746,-3.5677,-3.558,-3.4738,-3.3914,-3.3231,-3.3127,-3.3085,-3.3066,-3.3066,-3.3066,-3.3068,-3.3094,-3.2668,-3.1948,-3.1951,-3.1906,-3.1799,-3.1042,-3.0671,-3.0607,-3.0424,-2.995,-2.9187,-2.8985,-2.8483,-2.772,-2.6921,-2.6438,-2.6228,-2.526,-2.4699,-2.4584,-2.4337,-2.42,-2.4129,-2.3264,-2.3251,-2.4173,-2.4057,-2.3937,-2.3816,-2.3747,-2.3571,-2.3242,-2.2198,-2.2017,-2.2839,-2.1977,-2.1792,-2.2411,-2.2427,-2.2573,-2.2834,-2.2882,-2.3226,0.0,-2.4713,0.0,0.0,0.0,0.0,0.0,0.0,0.0,0.0,-2.5913,-2.6505,-2.8653,-2.8822,-2.9364,-3.0649,-3.0886,-3.0738,-3.0057,-2.9738,-2.9556,-2.9403,-3.0039,-3.048,-3.0342,-2.9696,-2.9081,-2.8362,-2.6908,-2.5654,-2.4823,-2.3899,-2.3254,-2.3101,-2.2968,-2.2475,-2.1366,-2.1073,-2.0939,-2.0541,-2.0836,-2.0962,-2.0462,-2.0536,-2.0833,-2.0944,-2.0686,-2.0539,-2.0568,-2.0607,-2.0817,-2.1302,-2.1446,-2.1394,-2.1352,-2.1817,-2.1971,-2.1267,-2.0251,-1.9524,-3.3886,-3.3803,-3.2943,-3.2494,-3.2298,-3.1654,-3.1337,-3.1289,-3.1352,-3.1376,-3.1381,-3.1383,-3.1267,-3.1131,-3.1132,-3.1132,-3.1091,-3.0829,-3.07,-3.0645,-2.9898,-2.9419,-2.911,-2.7817,-2.7083,-2.6891,-2.6043,-2.5628,-2.5572,-2.4588,-2.4014,-2.3872,-2.3042,-2.2585,-2.2439,0.0,0.0,0.0,-2.4074,-2.3958,-2.3896,-2.3768,-2.3696,-2.3594,-2.3023,0.0,-2.2511,-2.2094,-2.2098,-2.262,-2.2638,0.0,0.0,0.0,0.0,0.0,0.0,0.0,0.0,0.0,0.0,0.0,-2.6992,-2.5815,-2.5017,-2.5338,-2.6285,-2.7858,-2.8044,-2.8146,-2.8414,-2.9353,-2.9763,-2.9282,-2.8757,-2.854,-2.8605,-2.8793,-2.8649,-2.7879,-2.7708,-2.7237,-2.6255,-2.5613,-2.4929,-2.3671,-2.3147,-2.2521,-2.1425,-2.1595,-2.1624,-2.1362,-2.093,-2.0655,-2.0344,-2.0265,-2.0347,-2.0247,-1.9953,-1.9898,-1.9978,-1.9714,-1.9621,-1.9943,-2.0053,-2.0188,-2.0851,-2.0552,-2.0181,-2.0243,-2.0015,-1.9789,-1.9947,-1.8825,-1.7945,-3.3378,0.0,-3.2458,-3.2107,0.0,-3.1228,-3.0894,-3.0849,-3.0891,-3.0913,-3.0915,-3.0916,-3.0917,-3.0918,-3.0918,-3.0918,-3.0879,-3.0333,-3.0059,-3.001,-2.9098,-2.8424,-2.7932,-2.711,-2.6483,-2.6041,-2.5653,-2.5432,-2.5348,-2.4399,-2.3834,-2.3676,-2.2701,-2.2144,-2.1977,-2.1522,-2.1849,-2.296,-2.325,-2.3555,-2.3878,-2.3792,-2.3664,-2.3513,-2.3135,0.0,0.0,0.0,0.0,0.0,0.0,0.0,0.0,0.0,0.0,-2.4164,-2.5829,-2.6897,-2.6933,-2.7604,-2.8129,-2.8238,-2.7247,-2.637,-2.5609,-2.6268,-2.7012,-2.7688,-2.7789,-2.7941,-2.8366,-2.8505,-2.8444,-2.8126,-2.7438,-2.7032,-2.7178,-2.755,-2.764,-2.7169,-2.6814,-2.6325,-2.5717,-2.4782,-2.402,-2.3097,-2.2388,-2.1689,-2.0895,-2.0563,-2.0336,-1.9932,-2.0128,-2.003,-1.9598,-1.9795,-1.9702,-1.932,-1.9324,-1.9248,-1.8808,-1.8764,-1.8742,-1.875,-1.8818,-1.916,-1.9376,-1.9208,-1.9008,-1.9018,-1.8811,-1.8449,-1.8408,-1.7673,-1.709,-3.2922,-3.2891,-3.2168,-3.1894,-3.1835,-3.119,-3.0916,-3.0915,0.0,0.0,0.0,-3.0917,-3.0918,-3.0918,-3.0918,-3.082,-3.0625,-2.9773,-2.9308,-2.9128,-2.8209,-2.7387,-2.6721,-2.6547,-2.6122,-2.5429,-2.5329,-2.5244,-2.5125,-2.4024,-2.3388,-2.3187,-2.2293,-2.169,-2.1569,-2.1507,-2.1482,-2.1547,-2.2246,-2.2901,-2.35,-2.342,-2.3256,-2.2981,-2.3,-2.3144,-2.3356,-2.3287,-2.3194,-2.3103,-2.2969,-2.2635,-2.2082,-2.3271,-2.4009,-2.411,-2.6703,-2.7942,-2.7238,-2.8521,-2.8727,-2.7415,-2.6945,-2.6708,-2.6708,-2.7266,-2.7587,-2.7604,-2.7587,-2.7892,-2.8501,-2.7818,-2.7226,-2.7105,-2.6285,-2.5835,-2.5885,-2.6303,-2.6646,-2.6535,-2.602,-2.5564,-2.5208,-2.402,-2.2915,-2.2452,-2.1493,-2.0676,-2.0333,-1.9842,-1.9273,-1.8651,-1.9123,-1.9373,-1.8891,-1.9154,-1.9208,-1.8173,-1.8588,-1.8692,-1.7768,-1.7731,-1.779,-1.7308,-1.7545,-1.7761,-1.7826,-1.7827,-1.7797,-1.7697,-1.7725,-1.7523,-1.6852,-1.6531,-1.6345,-3.1102,-3.123,-3.1047,-3.1011,-3.1055,-3.0957,-3.0918,-3.0918,-3.0917,-3.0917,-3.0918,-3.0918,-3.0918,-3.0918,-3.0917,-3.0488,-2.9765,-2.9506,-2.9043,-2.8325,-2.7348,-2.6818,-2.6663,-2.601,-2.5615,-2.5453,-2.4733,-2.4385,-2.42,-2.2665,-2.178,-2.1547,-2.063,-2.0088,-1.995,-1.9888,-2.0174,-2.0831,-2.151,-2.1899,-2.2008,-2.1898,-2.1805,-2.1803,-2.2901,-2.3307,-2.2903,-2.3456,-2.3585,-2.3117,-2.2501,-2.2099,-2.2032,-2.2819,-2.3271,-2.3371,-2.5414,-2.6453,-2.5832,-2.6555,-2.6741,-2.6015,-2.6387,-2.6708,-2.6708,-2.6793,-2.6843,-2.686,-2.6894,-2.6877,-2.6996,-2.6876,-2.6757,-2.6724,-2.6305,-2.5926,-2.5567,-2.5385,-2.5177,-2.488,-2.4601,-2.4085,-2.3212,-2.2655,-2.1925,-2.0822,-2.043,-1.9869,-1.928,-1.9191,-1.9067,-1.8548,-1.8804,-1.9031,-1.8817,-1.8666,-1.8422,-1.7774,-1.7718,-1.7502,-1.6518,-1.6532,-1.6625,-1.6533,-1.6292,-1.6319,-1.6642,-1.6536,-1.6303,-1.6157,-1.6264,-1.6115,-1.5573,-1.5174,-1.5077,-3.0662,-3.079,-3.0784,-3.0832,-3.0859,-3.041,-3.0469,-3.084,-3.039,-3.0469,-3.0898,-3.0918,-3.0918,-3.0859,-3.0409,-2.9961,-2.9491,-2.8513,-2.7858,-2.7435,-2.6489,-2.6064,-2.5967,-2.52,-2.4812,-2.4728,-2.396,-2.3547,-2.3398,-2.2221,-2.1529,-2.1301,-2.0327,-1.9738,-1.9606,-1.9564,-1.9722,-2.0045,-2.0698,-2.1256,-2.1678,-2.1589,-2.1553,-2.1534,-2.2342,-2.261,-2.2334,-2.2816,-2.2965,-2.2685,-2.2348,-2.2147,-2.2163,-2.2853,-2.3257,-2.3308,-2.4957,-2.5697,-2.497,-2.5257,-2.534,-2.5082,-2.5385,-2.5758,-2.623,-2.6555,-2.6708,-2.6708,-2.6708,-2.6708,-2.6708,-2.6315,-2.6052,-2.6068,-2.5486,-2.5059,-2.4863,-2.4759,-2.463,-2.441,-2.4076,-2.3474,-2.2539,-2.1728,-2.1003,-2.0157,-1.999,-1.9542,-1.8738,-1.8782,-1.8809,-1.8417,-1.868,-1.8817,-1.8669,-1.8117,-1.768,-1.7247,-1.6835,-1.6319,-1.5625,-1.5533,-1.5428,-1.5141,-1.4964,-1.498,-1.5153,-1.4881,-1.4725,-1.4835,-1.4587,-1.4409,-1.4296,-1.4111,-1.4256,-3.0613,-3.068,-3.0735,-3.0701,-3.0506,-2.9668,-2.9687,-3.0215,-2.959,-2.9687,-3.0293,-3.0508,-3.0605,-3.0525,-2.9705,-2.916,-2.8768,-2.7528,-2.6824,-2.6556,-2.5862,-2.5537,-2.5421,-2.4626,-2.4225,-2.4077,-2.3185,-2.2694,-2.2546,-2.1785,-2.127,-2.0995,-2.0234,-1.9757,-1.9628,-1.962,-1.9611,-1.9583,-2.004,-2.0607,-2.118,-2.113,-2.1114,-2.1115,-2.1646,-2.1874,-2.1759,-2.2337,-2.2588,-2.2443,-2.2432,-2.2405,-2.2366,-2.2892,-2.3197,-2.3316,-2.4435,-2.4927,-2.4367,-2.4282,-2.433,-2.4377,-2.453,-2.4985,-2.5814,-2.6281,-2.6605,-2.6708,-2.6758,-2.6775,-2.6708,-2.6262,-2.5799,-2.5705,-2.5059,-2.4641,-2.4331,-2.429,-2.4228,-2.4058,-2.3483,-2.2738,-2.1838,-2.0682,-1.9823,-1.9611,-1.9606,-1.9311,-1.8787,-1.8579,-1.8425,-1.8276,-1.8419,-1.8564,-1.8394,-1.7814,-1.7202,-1.6772,-1.623,-1.5665,-1.5114,-1.484,-1.4485,-1.3986,-1.3737,-1.3691,-1.3484,-1.331,-1.326,-1.343,-1.3259,-1.3094,-1.3202,-1.3077,-1.3228,-3.0563,-3.0619,-3.0613,-3.0217,-2.955,-2.8747,-2.8495,-2.8574,-2.8456,-2.8456,-2.8689,-2.9354,-2.9686,-2.9606,-2.8802,-2.8023,-2.7303,-2.7011,-2.65,-2.587,-2.5657,-2.5586,-2.545,-2.4657,-2.4263,-2.3948,-2.2557,-2.182,-2.1764,-2.0901,-2.0312,-2.0064,-1.9922,-1.9823,-1.9712,-1.9686,-1.9692,-1.9673,-1.9685,-1.9689,-1.9704,-1.9644,-1.9562,-1.9531,-2.0966,-2.1588,-2.1297,-2.2712,-2.3271,-2.2892,-2.2816,-2.2747,-2.2542,-2.2556,-2.259,-2.2641,-2.3374,-2.375,-2.3699,-2.3682,-2.3682,-2.3733,-2.4279,-2.4961,-2.5743,-2.5917,-2.6243,-2.667,-2.6891,-2.6891,-2.6876,-2.6724,-2.6404,-2.5992,-2.5668,-2.5313,-2.4238,-2.3871,-2.3437,-2.2845,-2.2129,-2.119,-2.0104,-1.9168,-1.8578,-1.8435,-1.8728,-1.8865,-1.8744,-1.8455,-1.8165,-1.7817,-1.7937,-1.8094,-1.7927,-1.7766,-1.7042,-1.6336,-1.5968,-1.5326,-1.4712,-1.4401,-1.423,-1.3263,-1.2827,-1.2579,-1.2295,-1.1993,-1.2015,-1.2105,-1.2152,-1.2273,-1.2075,-1.1895,-1.2161,-3.052,-3.0486,-3.0025,-2.9407,-2.8661,-2.7884,-2.783,-2.824,-2.7733,-2.7809,-2.8217,-2.814,-2.8334,-2.8763,-2.7922,-2.7299,-2.6912,-2.6426,-2.5994,-2.5599,-2.5119,-2.4874,-2.4765,-2.3458,-2.2812,-2.2688,-2.1561,-2.0978,-2.087,-2.0539,-2.0253,-2.0097,-2.0079,-1.9971,-1.9763,-1.9757,-1.9751,-1.9686,-1.966,-1.9652,-1.9625,-1.9512,-1.9453,-1.9534,-2.0362,-2.0735,-2.0598,-2.1832,-2.2418,-2.2131,-2.2613,-2.2883,-2.2807,-2.2747,-2.2721,-2.2747,-2.2853,-2.2959,-2.2948,-2.2931,-2.2986,-2.3069,-2.3344,-2.3904,-2.4729,-2.4844,-2.5126,-2.5743,-2.6165,-2.6173,-2.5683,-2.5421,-2.5161,-2.4778,-2.4381,-2.3767,-2.2754,-2.2546,-2.2222,-2.1483,-2.0814,-2.0047,-1.9092,-1.8236,-1.7729,-1.7654,-1.8003,-1.8316,-1.8236,-1.7772,-1.7445,-1.7453,-1.7238,-1.7044,-1.7064,-1.6606,-1.606,-1.5505,-1.4924,-1.4358,-1.3858,-1.3591,-1.3268,-1.2638,-1.2294,-1.2004,-1.1822,-1.1427,-1.1245,-1.1201,-1.0984,-1.1115,-1.1249,-1.1139,-1.1334,-3.0471,-3.0318,-2.94,-2.852,-2.7764,-2.698,-2.6988,-2.7476,-2.691,-2.7025,-2.7471,-2.6923,-2.7001,-2.745,-2.6923,-2.6613,-2.6479,-2.572,-2.5332,-2.5175,-2.4431,-2.4038,-2.3897,-2.253,-2.1789,-2.1655,-2.0938,-2.0483,-2.0395,-2.0385,-2.0353,-2.0231,-2.02,-2.0088,-1.9885,-1.9847,-1.9825,-1.9776,-1.9738,-1.9712,-1.9694,-1.9625,-1.9541,-1.9586,-2.0115,-2.028,-2.0082,-2.1179,-2.1688,-2.1399,-2.2247,-2.2764,-2.2751,-2.2835,-2.2883,-2.2867,-2.2738,-2.2605,-2.2605,-2.2605,-2.2676,-2.2738,-2.2764,-2.3119,-2.3884,-2.412,-2.4336,-2.4757,-2.5107,-2.5043,-2.4734,-2.4349,-2.3998,-2.3603,-2.3133,-2.2439,-2.149,-2.1255,-2.0915,-2.0159,-1.95,-1.8793,-1.8105,-1.747,-1.712,-1.7298,-1.7532,-1.7745,-1.759,-1.7088,-1.6782,-1.6956,-1.6352,-1.6139,-1.6233,-1.5861,-1.5168,-1.4612,-1.4151,-1.3663,-1.3032,-1.2928,-1.2567,-1.2162,-1.1884,-1.1553,-1.1282,-1.0964,-1.0708,-1.0592,-1.04,-1.0262,-1.0431,-1.0324,-1.038,-3.039,-3.0155,-2.8783,-2.768,-2.6815,-2.6122,-2.5792,-2.6007,-2.5831,-2.581,-2.5943,-2.5844,-2.5805,-2.5924,-2.5885,-2.5783,-2.5664,-2.4963,-2.4592,-2.4456,-2.3618,-2.3178,-2.3105,-2.222,-2.1772,-2.162,-2.0899,-2.0464,-2.04,-2.0395,-2.0357,-2.0294,-2.0223,-2.0122,-1.9983,-1.9926,-1.9938,-1.9949,-1.9806,-1.9738,-1.9775,-1.9738,-1.9665,-1.9685,-2.0267,-2.0512,-2.0439,-2.117,-2.1421,-2.1033,-2.1773,-2.218,-2.221,-2.2649,-2.2927,-2.2902,-2.2893,-2.2868,-2.2868,-2.2868,-2.2893,-2.2919,-2.2919,-2.3232,-2.3929,-2.4051,-2.4059,-2.4155,-2.3971,-2.4013,-2.4282,-2.4096,-2.3881,-2.3422,-2.2784,-2.1923,-2.0906,-2.021,-1.9593,-1.8882,-1.8266,-1.7681,-1.6811,-1.6564,-1.6796,-1.7076,-1.7267,-1.718,-1.7105,-1.6834,-1.6503,-1.607,-1.5728,-1.5485,-1.5651,-1.543,-1.4883,-1.4286,-1.3812,-1.3399,-1.3079,-1.2731,-1.2187,-1.1715,-1.142,-1.1094,-1.0764,-1.0495,-1.0302,-1.0157,-0.9902,-0.9796,-0.9721,-0.931,-0.9274,-2.93,-2.883,-2.8372,-2.7342,-2.6052,-2.5793,-2.5689,-2.5689,-2.5689,-2.5689,-2.5687,-2.5687,-2.5694,-2.5701,-2.5693,-2.5705,-2.5661,-2.5351,-2.4942,-2.4371,-2.3497,-2.2806,-2.2207,-2.1381,-2.0974,-2.0906,-2.0651,-2.0488,-2.0464,-2.0464,-2.0408,-2.0308,-2.028,-2.0184,-2.0022,-1.9971,-1.9977,-1.9982,-1.9919,-1.9908,-1.9919,-1.9866,-1.9818,-1.9813,-1.9961,-1.9958,-1.9761,-2.0453,-2.0699,-2.0438,-2.1678,-2.2416,-2.2479,-2.2962,-2.3236,-2.3146,-2.2968,-2.2944,-2.3003,-2.2952,-2.2995,-2.3193,-2.3144,-2.3232,-2.3612,-2.3731,-2.3658,-2.3465,-2.318,-2.3048,-2.2907,-2.2967,-2.2865,-2.2415,-2.1763,-2.0923,-1.9954,-1.9161,-1.8427,-1.777,-1.7369,-1.7103,-1.6823,-1.6659,-1.6675,-1.6761,-1.6688,-1.6607,-1.6535,-1.6376,-1.6126,-1.5742,-1.5433,-1.519,-1.5096,-1.5053,-1.4685,-1.3974,-1.3421,-1.2859,-1.2472,-1.2006,-1.1457,-1.1057,-1.0829,-1.0677,-1.0302,-1.0069,-0.9913,-0.9607,-0.9346,-0.9177,-0.9007,-0.8594,-0.8383,-2.829,-2.7655,-2.7729,-2.6942,-2.5664,-2.5657,-2.5687,-2.5687,-2.5687,-2.5687,-2.5689,-2.5693,-2.5563,-2.5371,-2.5546,-2.5485,-2.5248,-2.4988,-2.4532,-2.3903,-2.2814,-2.1947,-2.1387,-2.0775,-2.0506,-2.0516,-2.0515,-2.0507,-2.0507,-2.0507,-2.0463,-2.0366,-2.0314,-2.0223,-2.0115,-2.0041,-2.001,-2.0028,-2.0034,-1.9985,-1.9996,-1.9955,-1.9934,-1.9911,-1.9782,-1.9641,-1.9462,-1.9837,-1.9984,-1.9992,-2.1114,-2.2179,-2.286,-2.3354,-2.3531,-2.3359,-2.3188,-2.3126,-2.3217,-2.3144,-2.3193,-2.3401,-2.336,-2.336,-2.3517,-2.343,-2.3271,-2.3102,-2.2738,-2.2402,-2.2226,-2.2209,-2.2049,-2.1589,-2.0821,-2.0007,-1.9288,-1.8373,-1.7692,-1.7212,-1.7057,-1.6959,-1.6866,-1.6825,-1.6738,-1.6607,-1.6474,-1.6409,-1.6262,-1.6179,-1.6052,-1.5769,-1.5374,-1.4998,-1.4697,-1.4438,-1.4159,-1.3501,-1.3032,-1.2437,-1.1861,-1.1345,-1.0867,-1.0505,-1.0235,-1.0118,-0.9922,-0.9646,-0.9368,-0.9047,-0.8765,-0.8561,-0.8259,-0.7841,-0.749,-2.7495,-2.6858,-2.684,-2.6478,-2.5671,-2.5659,-2.5687,-2.5687,-2.5687,-2.5687,-2.5689,-2.5642,-2.5156,-2.4726,-2.519,-2.5144,-2.4467,-2.3748,-2.3347,-2.3091,-2.1626,-2.0816,-2.0605,-2.0558,-2.0501,-2.0513,-2.0515,-2.0507,-2.0512,-2.0507,-2.0502,-2.0448,-2.036,-2.0287,-2.0287,-2.0106,-2.005,-2.0079,-2.0057,-2.0017,-1.9991,-1.9998,-2.0015,-1.9993,-1.988,-1.9745,-1.9612,-1.946,-1.935,-1.9292,-1.9993,-2.138,-2.3175,-2.3663,-2.3689,-2.3567,-2.3494,-2.3494,-2.3476,-2.3494,-2.3453,-2.3544,-2.3517,-2.3544,-2.3571,-2.3389,-2.3223,-2.3175,-2.2825,-2.2443,-2.2371,-2.2215,-2.1911,-2.1287,-2.0319,-1.9514,-1.9143,-1.8081,-1.7208,-1.7126,-1.7093,-1.7002,-1.7002,-1.7018,-1.6942,-1.6799,-1.6773,-1.6722,-1.6474,-1.6382,-1.6289,-1.6039,-1.5566,-1.5029,-1.4415,-1.3795,-1.3437,-1.302,-1.2614,-1.2126,-1.142,-1.0867,-1.0408,-1.003,-0.9677,-0.9518,-0.911,-0.8878,-0.8707,-0.839,-0.8185,-0.7807,-0.7426,-0.7001,-0.6404,-2.7051,-2.6848,-2.693,-2.647,-2.5735,-2.5685,-2.5687,-2.5687,-2.5687,-2.5687,-2.5593,-2.5056,-2.4628,-2.4487,-2.4695,-2.4627,-2.4261,-2.3488,-2.3104,-2.2909,-2.1913,-2.1051,-2.0586,-2.0516,-2.0503,-2.0519,-2.0506,-2.0517,-2.0511,-2.0517,-2.0478,-2.0421,-2.0347,-2.0275,-2.025,-2.015,-2.0153,-2.0155,-2.0155,-2.0136,-2.0125,-2.0136,-2.0136,-2.0117,-1.9974,-1.9847,-1.9797,-1.9541,-1.9372,-1.9308,-1.9986,-2.1225,-2.283,-2.3549,-2.3774,-2.381,-2.3678,-2.3594,-2.3642,-2.3602,-2.3664,-2.3771,-2.3768,-2.3789,-2.3834,-2.375,-2.362,-2.3513,-2.3265,-2.3032,-2.2678,-2.2476,-2.2186,-2.1807,-2.0517,-1.9605,-1.9372,-1.8286,-1.7517,-1.7377,-1.7345,-1.7314,-1.724,-1.7208,-1.715,-1.7027,-1.6977,-1.6926,-1.685,-1.6633,-1.6448,-1.6258,-1.5684,-1.5057,-1.4308,-1.3014,-1.1782,-1.1684,-1.156,-1.1446,-1.0857,-1.039,-0.9961,-0.9469,-0.9119,-0.8756,-0.839,-0.8054,-0.7799,-0.7502,-0.7085,-0.679,-0.6537,-0.5979,-0.5283,-2.6345,-2.6418,-2.6481,-2.601,-2.5254,-2.5215,-2.5022,-2.477,-2.4731,-2.4907,-2.5027,-2.4646,-2.4414,-2.4468,-2.4697,-2.4623,-2.4245,-2.3464,-2.3093,-2.2857,-2.18,-2.0996,-2.0547,-2.0503,-2.0513,-2.0499,-2.0504,-2.0508,-2.0519,-2.0495,-2.0478,-2.0425,-2.0346,-2.0295,-2.0272,-2.023,-2.0208,-2.0209,-2.0209,-2.0199,-2.0208,-2.0199,-2.0209,-2.0164,-1.999,-1.9873,-1.9843,-1.9582,-1.9435,-1.9546,-2.0083,-2.102,-2.2116,-2.2901,-2.3402,-2.3535,-2.3689,-2.3771,-2.3795,-2.3774,-2.3816,-2.3955,-2.3917,-2.3917,-2.3978,-2.3958,-2.3774,-2.3692,-2.3387,-2.3135,-2.284,-2.2625,-2.2354,-2.1792,-2.0649,-1.9748,-1.9151,-1.8198,-1.7609,-1.7542,-1.7512,-1.7482,-1.7417,-1.7425,-1.7368,-1.7264,-1.7248,-1.7199,-1.715,-1.6986,-1.686,-1.6606,-1.6099,-1.5279,-1.4257,-1.246,-1.0312,-1.0147,-1.0244,-1.0263,-1.005,-0.9793,-0.9421,-0.8643,-0.8144,-0.7765,-0.7398,-0.6917,-0.6573,-0.6234,-0.6064,-0.5492,-0.5101,-0.4496,-0.3891,-2.5537,-2.5537,-2.5597,-2.5127,-2.4369,-2.4313,-2.3944,-2.3267,-2.3208,-2.3735,-2.4325,-2.4276,-2.4316,-2.4551,-2.5012,-2.4896,-2.4268,-2.3465,-2.3085,-2.2586,-2.1464,-2.0562,-2.0514,-2.0503,-2.05,-2.05,-2.0516,-2.0516,-2.0516,-2.0515,-2.0499,-2.048,-2.038,-2.0321,-2.036,-2.025,-2.0233,-2.0197,-2.0216,-2.0216,-2.0205,-2.0216,-2.0208,-2.018,-1.996,-1.9821,-1.9793,-1.9614,-1.9508,-1.9573,-2.0129,-2.0653,-2.1037,-2.2063,-2.2719,-2.2774,-2.3485,-2.3757,-2.3886,-2.3959,-2.3996,-2.4034,-2.4034,-2.3999,-2.3909,-2.364,-2.3518,-2.3554,-2.3181,-2.2937,-2.2905,-2.2651,-2.2134,-2.1319,-2.039,-1.9413,-1.8172,-1.776,-1.7698,-1.7681,-1.7612,-1.7536,-1.7589,-1.7658,-1.7618,-1.7526,-1.7595,-1.7555,-1.7432,-1.7368,-1.7446,-1.7094,-1.6571,-1.5604,-1.4572,-0.9132,-0.7344,-0.8407,-0.8537,-0.8593,-0.8907,-0.8805,-0.8561,-0.7829,-0.7238,-0.6859,-0.6422,-0.5984,-0.5771,-0.5733,-0.5163,-0.4322,-0.3712,-0.3325,-0.2843,-2.5207,-2.4728,-2.4739,-2.4222,-2.3486,-2.3432,-2.3318,-2.3105,-2.309,-2.3579,-2.4147,-2.3709,-2.3886,-2.4394,-2.4623,-2.4553,-2.4196,-2.3497,-2.3092,-2.2808,-2.1285,-2.0558,-2.0503,-2.0503,-2.0506,-2.0511,-2.0525,-2.05,-2.0516,-2.0499,-2.0511,-2.0515,-2.0419,-2.0374,-2.0385,-2.0354,-2.028,-2.0219,-2.0269,-2.0265,-2.0254,-2.0265,-2.0233,-2.0115,-1.9981,-1.987,-1.9794,-1.9665,-1.9526,-1.9505,-2.016,-2.0572,-2.0631,-2.1458,-2.199,-2.2136,-2.2758,-2.3233,-2.3343,-2.382,-2.4133,-2.4151,-2.4078,-2.3895,-2.3308,-2.3119,-2.3002,-2.2964,-2.2818,-2.2883,-2.3087,-2.267,-2.1662,-2.0258,-1.9676,-1.903,-1.8217,-1.7883,-1.7816,-1.7839,-1.7749,-1.7726,-1.7732,-1.7849,-1.7898,-1.78,-1.7844,-1.7932,-1.7783,-1.7636,-1.767,-1.7552,-1.7042,-1.6018,-1.3505,-0.7435,-0.4834,-0.6325,-0.6706,-0.6594,-0.7079,-0.7495,-0.7231,-0.6816,-0.6477,-0.6099,-0.5653,-0.5163,-0.5173,-0.487,-0.4037,-0.3067,-0.3117,-0.2857,-0.2186,-2.416,-2.3837,-2.3852,-2.3355,-2.2662,-2.292,-2.271,-2.2283,-2.2836,-2.3366,-2.3719,-2.3765,-2.4119,-2.49,-2.4941,-2.4725,-2.4312,-2.3497,-2.2912,-2.2328,-2.1114,-2.0552,-2.0506,-2.0533,-2.054,-2.0545,-2.056,-2.0533,-2.0506,-2.051,-2.0503,-2.0499,-2.0433,-2.0381,-2.0383,-2.0365,-2.0321,-2.025,-2.03,-2.0296,-2.0292,-2.0304,-2.0269,-2.0167,-2.0022,-1.9904,-1.9763,-1.9679,-1.9564,-1.9567,-1.99,-2.0174,-2.0203,-2.0857,-2.1265,-2.1322,-2.2299,-2.296,-2.3088,-2.3712,-2.4153,-2.4117,-2.3933,-2.3511,-2.3052,-2.263,-2.2281,-2.2319,-2.2149,-2.2224,-2.2321,-2.1768,-2.0802,-1.9872,-1.9199,-1.8706,-1.8113,-1.8031,-1.7988,-1.7988,-1.7988,-1.7971,-1.7915,-1.8149,-1.8211,-1.817,-1.8232,-1.8252,-1.8191,-1.8017,-1.7283,-1.6589,-1.5116,-1.3409,-1.1266,-0.6086,-0.3347,-0.4552,-0.5053,-0.4876,-0.5338,-0.5993,-0.6215,-0.6019,-0.568,-0.5193,-0.4561,-0.3938,-0.3548,-0.307,-0.2413,-0.2059,-0.1969,-0.2103,-0.1478,-2.3088,-2.313,-2.3229,-2.2725,-2.2207,-2.2759,-2.2416,-2.1444,-2.2524,-2.3212,-2.3488,-2.4095,-2.474,-2.5694,-2.5504,-2.5271,-2.4511,-2.3567,-2.263,-2.1906,-2.1117,-2.0776,-2.0789,-2.0625,-2.059,-2.057,-2.0591,-2.0562,-2.0528,-2.0516,-2.0516,-2.0487,-2.0441,-2.041,-2.0399,-2.0352,-2.0308,-2.0292,-2.0304,-2.0299,-2.0294,-2.0294,-2.0287,-2.0223,-2.0106,-1.9936,-1.9794,-1.9725,-1.9668,-1.9532,-1.9559,-1.967,-1.9736,-2.0284,-2.0515,-2.084,-2.1854,-2.274,-2.2942,-2.3474,-2.4099,-2.4026,-2.3382,-2.2995,-2.2847,-2.2172,-2.157,-2.1842,-2.1331,-2.1179,-2.1105,-2.0412,-1.9957,-1.954,-1.8974,-1.8577,-1.831,-1.8201,-1.8155,-1.8138,-1.8205,-1.8246,-1.831,-1.8432,-1.8586,-1.8454,-1.8531,-1.8551,-1.8532,-1.8457,-1.6581,-1.4175,-1.2234,-0.9907,-0.7544,-0.4692,-0.3294,-0.2937,-0.3293,-0.3453,-0.3825,-0.444,-0.5053,-0.512,-0.453,-0.377,-0.297,-0.2443,-0.2051,-0.1697,-0.1343,-0.0897,-0.0539,-0.0852,-0.0584,-2.3961,-2.4024,-2.4086,-2.3621,-2.2929,-2.3013,-2.2903,-2.2578,-2.2937,-2.3566,-2.4036,-2.4331,-2.4918,-2.5698,-2.5699,-2.5585,-2.5078,-2.3802,-2.2645,-2.1843,-2.1655,-2.1536,-2.1374,-2.0978,-2.0627,-2.0603,-2.054,-2.0528,-2.0529,-2.0558,-2.0515,-2.0492,-2.048,-2.0461,-2.0404,-2.0371,-2.0338,-2.0313,-2.0299,-2.0301,-2.0314,-2.0295,-2.0275,-2.0204,-2.0124,-2.002,-1.9892,-1.987,-1.98,-1.9681,-1.9657,-1.9694,-1.9662,-1.9689,-1.9826,-2.0244,-2.1242,-2.2097,-2.2243,-2.2904,-2.3548,-2.3953,-2.2939,-2.2402,-2.2955,-2.1581,-2.1112,-2.1279,-2.0916,-2.0463,-2.0335,-2.0244,-1.9774,-1.9253,-1.8967,-1.8824,-1.8751,-1.8601,-1.8485,-1.8445,-1.8487,-1.8526,-1.8528,-1.8753,-1.8825,-1.8771,-1.8789,-1.8824,-1.8752,-1.8664,-1.5662,-1.2398,-0.8872,-0.6492,-0.4505,-0.2613,-0.2221,-0.1426,-0.1649,-0.196,-0.2341,-0.2802,-0.338,-0.3447,-0.3202,-0.2401,-0.1467,-0.1247,-0.0937,-0.0582,-0.0359,-0.0135,0.0045,-0.0,-0.018,-2.3543,-2.3612,-2.3699,-2.3478,-2.3174,-2.3497,-2.3474,-2.3322,-2.4012,-2.4329,-2.4488,-2.4803,-2.5271,-2.5662,-2.5681,-2.5526,-2.4863,-2.3763,-2.2869,-2.248,-2.2416,-2.2419,-2.224,-2.162,-2.1147,-2.1082,-2.0655,-2.0698,-2.0928,-2.0722,-2.05,-2.0515,-2.0503,-2.0453,-2.0405,-2.0376,-2.039,-2.0347,-2.0308,-2.0308,-2.0347,-2.0354,-2.0282,-2.0223,-2.0167,-2.0088,-2.001,-1.9928,-2.0059,-2.0201,-2.0214,-1.9992,-1.9689,-1.9532,-1.9633,-2.0204,-2.1089,-2.2002,-2.2407,-2.2774,-2.3252,-2.3693,-2.227,-2.184,-2.1639,-2.0726,-2.0244,-2.0308,-2.0094,-1.9754,-1.9703,-1.9703,-1.9397,-1.9199,-1.9019,-1.9036,-1.8984,-1.8861,-1.8752,-1.8716,-1.8789,-1.8825,-1.8894,-1.9033,-1.9097,-1.9081,-1.9051,-1.9028,-1.8074,-1.7416,-1.3797,-1.023,-0.6036,-0.3086,-0.1359,-0.0427,-0.066,-0.0223,-0.0089,-0.0401,-0.0753,-0.1227,-0.1693,-0.1666,-0.1595,-0.0845,-0.0089,0.0089,0.0089,0.0269,0.0448,0.0494,0.045,0.036,0.0045,-2.3097,-2.3182,-2.3327,-2.3373,-2.3505,-2.4229,-2.4213,-2.3849,-2.5029,-2.519,-2.4823,-2.541,-2.5605,-2.5703,-2.5701,-2.5191,-2.4472,-2.406,-2.3617,-2.3322,-2.3286,-2.3288,-2.3083,-2.2494,-2.2132,-2.2051,-2.1269,-2.123,-2.1344,-2.1083,-2.072,-2.056,-2.0499,-2.0457,-2.0409,-2.0376,-2.0381,-2.0377,-2.0321,-2.0308,-2.0373,-2.0399,-2.0411,-2.0607,-2.0816,-2.0826,-2.0785,-2.0689,-2.0709,-2.1173,-2.1081,-2.069,-2.026,-1.9978,-2.0103,-2.0886,-2.1662,-2.2311,-2.2808,-2.3065,-2.3191,-2.324,-2.1922,-2.1235,-2.112,-2.0611,-2.0022,-1.9706,-1.9573,-1.9401,-1.9383,-1.9364,-1.9401,-1.9364,-1.9328,-1.9184,-1.9135,-1.9034,-1.9017,-1.8948,-1.9016,-1.9064,-1.9115,-1.9214,-1.9308,-1.9383,-1.9341,-1.9065,-1.8154,-1.6531,-1.3417,-1.0247,-0.6609,-0.197,0.0206,0.0903,0.0798,0.1065,0.1289,0.0972,0.0706,0.0441,0.0087,-0.0088,0.0177,0.0666,0.0846,0.0805,0.0851,0.1074,0.0897,0.0674,0.0629,0.0629,0.036,-2.4315,-2.4968,-2.5052,-2.5085,-2.511,-2.5303,-2.5258,-2.5236,-2.5496,-2.5623,-2.5507,-2.5644,-2.5703,-2.5703,-2.5703,-2.5195,-2.4687,-2.4664,-2.4676,-2.4266,-2.4178,-2.4176,-2.4015,-2.3325,-2.3228,-2.3322,-2.2403,-2.171,-2.175,-2.1546,-2.1041,-2.0638,-2.0499,-2.046,-2.0418,-2.0376,-2.0381,-2.0383,-2.0328,-2.0308,-2.0328,-2.0495,-2.0805,-2.1287,-2.1789,-2.2126,-2.2213,-2.2247,-2.2326,-2.2258,-2.2117,-2.199,-2.1843,-2.1593,-2.1594,-2.1829,-2.2356,-2.2896,-2.3228,-2.3205,-2.3591,-2.3696,-2.2704,-2.2256,-2.2253,-2.1496,-2.0496,-2.0096,-1.9709,-1.9504,-2.0111,-1.9612,-1.968,-1.9863,-1.9662,-1.9326,-1.9326,-1.9326,-1.9246,-1.9115,-1.9196,-1.9292,-1.9323,-1.9283,-1.9236,-1.9298,-1.9339,-1.916,-1.8564,-1.6881,-1.4486,-1.1322,-0.8088,-0.3089,0.1356,0.178,0.1951,0.2334,0.25,0.216,0.1994,0.2027,0.1857,0.1342,0.1128,0.1312,0.1409,0.1383,0.1254,0.1165,0.0942,0.0719,0.0764,0.0808,0.0853,-2.4966,-2.536,-2.5418,-2.5456,-2.5478,-2.551,-2.5561,-2.5597,-2.5637,-2.5673,-2.57,-2.5702,-2.5702,-2.5702,-2.57,-2.5426,-2.5291,-2.541,-2.5408,-2.5076,-2.5027,-2.5057,-2.4913,-2.4135,-2.4343,-2.4282,-2.332,-2.2372,-2.2318,-2.1872,-2.1294,-2.069,-2.0506,-2.0474,-2.0441,-2.0418,-2.0395,-2.0399,-2.0347,-2.0288,-2.0386,-2.0727,-2.134,-2.1765,-2.2462,-2.2828,-2.2837,-2.2772,-2.292,-2.3108,-2.3082,-2.3213,-2.3295,-2.3251,-2.2996,-2.2821,-2.3045,-2.3459,-2.3663,-2.3603,-2.3521,-2.3668,-2.2802,-2.2342,-2.2327,-2.1585,-2.0774,-2.017,-1.9856,-1.9522,-1.9837,-1.9583,-1.9617,-1.9779,-1.9614,-1.9464,-1.9472,-1.9549,-1.9435,-1.9292,-1.9387,-1.9446,-1.9456,-1.9364,-1.9179,-1.9212,-1.9234,-1.8813,-1.8341,-1.5624,-1.2906,-0.9355,-0.5658,-0.1729,0.2254,0.246,0.2722,0.3147,0.3298,0.2992,0.2752,0.2514,0.242,0.2138,0.2082,0.1967,0.1802,0.1698,0.1477,0.1253,0.1211,0.1122,0.0987,0.0987,0.1075,-2.5302,-2.5302,-2.535,-2.5376,-2.5401,-2.5446,-2.5496,-2.5565,-2.5609,-2.5637,-2.5676,-2.5699,-2.57,-2.5699,-2.5697,-2.5673,-2.5689,-2.5701,-2.5662,-2.5624,-2.5563,-2.5631,-2.5405,-2.4914,-2.4549,-2.4676,-2.3694,-2.3018,-2.2746,-2.2105,-2.1284,-2.0718,-2.051,-2.0506,-2.0486,-2.0441,-2.0441,-2.0386,-2.0357,-2.0308,-2.0547,-2.1353,-2.194,-2.2075,-2.2868,-2.3507,-2.3601,-2.3554,-2.3753,-2.4024,-2.4125,-2.4195,-2.4576,-2.4617,-2.4273,-2.3737,-2.3667,-2.4017,-2.4172,-2.4113,-2.3839,-2.3926,-2.3139,-2.273,-2.2293,-2.1915,-2.0966,-2.0206,-2.0048,-2.0277,-2.0541,-1.9795,-1.9902,-2.0258,-2.0059,-1.9586,-1.9748,-1.9769,-1.9611,-1.955,-1.9564,-1.9485,-1.9405,-1.9397,-1.9234,-1.793,-1.7881,-1.6429,-1.5506,-1.1928,-0.8912,-0.5584,-0.2185,0.0935,0.3111,0.3148,0.3262,0.3382,0.3387,0.3139,0.2929,0.2703,0.2614,0.2512,0.2566,0.2391,0.221,0.1908,0.1635,0.1502,0.1517,0.1524,0.1523,0.1521,0.1566,-2.5303,-2.5303,-2.5293,-2.5303,-2.5341,-2.539,-2.5398,-2.5447,-2.5537,-2.5603,-2.562,-2.5675,-2.5699,-2.5698,-2.5696,-2.5691,-2.5689,-2.5574,-2.5538,-2.5521,-2.5449,-2.5366,-2.5414,-2.4759,-2.43,-2.4282,-2.3411,-2.3076,-2.2731,-2.2027,-2.1284,-2.0667,-2.051,-2.0506,-2.0516,-2.0474,-2.0441,-2.0405,-2.038,-2.0404,-2.0714,-2.1991,-2.2604,-2.3165,-2.4114,-2.4946,-2.4853,-2.4791,-2.4979,-2.5003,-2.5013,-2.5023,-2.5037,-2.491,-2.4771,-2.4561,-2.4484,-2.4439,-2.4561,-2.4507,-2.4471,-2.4478,-2.4351,-2.4128,-2.3342,-2.2567,-2.1934,-2.1882,-2.1603,-2.1639,-2.1604,-2.0639,-2.0944,-2.1152,-2.1105,-2.0689,-2.0527,-2.0173,-1.9996,-1.9745,-1.9755,-1.9442,-1.9228,-1.9269,-1.9121,-1.7677,-1.6233,-1.4864,-1.2463,-0.895,-0.5435,-0.2206,-0.0327,0.2592,0.3501,0.3625,0.3586,0.3617,0.3437,0.3282,0.3039,0.285,0.2723,0.2685,0.2745,0.2679,0.2384,0.2088,0.181,0.1799,0.1871,0.2012,0.2192,0.2146,0.2055,-2.5313,-2.5313,-2.5313,-2.5313,-2.5313,-2.5312,-2.5365,-2.541,-2.5454,-2.5522,-2.559,-2.5629,-2.5664,-2.5691,-2.5691,-2.5689,-2.559,-2.518,-2.497,-2.4801,-2.457,-2.427,-2.4091,-2.3809,-2.3587,-2.3363,-2.2785,-2.227,-2.2115,-2.1901,-2.1308,-2.062,-2.0513,-2.0531,-2.0543,-2.0494,-2.0449,-2.0395,-2.0394,-2.0643,-2.1301,-2.2301,-2.3198,-2.363,-2.4856,-2.5398,-2.5499,-2.5456,-2.5395,-2.5312,-2.5264,-2.5212,-2.5061,-2.4981,-2.4956,-2.4874,-2.4823,-2.4768,-2.4726,-2.4787,-2.4827,-2.4832,-2.4818,-2.4412,-2.3681,-2.3182,-2.2593,-2.2039,-2.1977,-2.2224,-2.2481,-2.1562,-2.1721,-2.2002,-2.2324,-2.1932,-2.1494,-2.0797,-2.0447,-2.0177,-1.9819,-1.9286,-1.8923,-1.897,-1.8606,-1.7348,-1.5671,-1.3989,-1.0591,-0.6186,-0.2673,0.0829,0.2192,0.3581,0.3733,0.3737,0.3631,0.3602,0.3452,0.329,0.3126,0.2968,0.2869,0.2762,0.2721,0.2624,0.2463,0.2439,0.2329,0.2303,0.2275,0.241,0.2544,0.2679,0.2588,-2.5212,-2.5192,-2.5283,-2.5313,-2.5313,-2.5313,-2.5312,-2.5374,-2.5387,-2.546,-2.5537,-2.5593,-2.5642,-2.5605,-2.5453,-2.5278,-2.5278,-2.4477,-2.4152,-2.3808,-2.3494,-2.3249,-2.3171,-2.298,-2.2702,-2.2659,-2.1837,-2.1476,-2.1422,-2.1325,-2.1002,-2.0503,-2.0506,-2.0538,-2.0562,-2.0531,-2.0464,-2.0428,-2.0338,-2.0631,-2.132,-2.2385,-2.3205,-2.398,-2.4832,-2.551,-2.5495,-2.5453,-2.5367,-2.5331,-2.5351,-2.5244,-2.501,-2.5005,-2.4987,-2.4934,-2.4889,-2.4922,-2.4894,-2.4903,-2.4912,-2.4921,-2.4896,-2.4661,-2.4124,-2.3779,-2.3562,-2.2927,-2.2827,-2.2768,-2.2672,-2.2694,-2.289,-2.3325,-2.3739,-2.3293,-2.2678,-2.1597,-2.0581,-2.0,-1.9481,-1.8726,-1.848,-1.8596,-1.8027,-1.6923,-1.5234,-1.3024,-0.8357,-0.3042,-0.0505,0.2754,0.32,0.3964,0.3969,0.39,0.3795,0.3673,0.3483,0.3419,0.3364,0.3223,0.3113,0.2963,0.2845,0.2954,0.3066,0.2984,0.2924,0.2859,0.2807,0.2804,0.2896,0.3031,0.3078,-2.4929,-2.4955,-2.5182,-2.5284,-2.5284,-2.5313,-2.5313,-2.5322,-2.5374,-2.5395,-2.5446,-2.5479,-2.5506,-2.5427,-2.4846,-2.4495,-2.4436,-2.3579,-2.327,-2.3177,-2.3104,-2.2829,-2.2578,-2.2171,-2.1844,-2.1737,-2.1158,-2.0779,-2.0633,-2.0805,-2.0639,-2.0516,-2.0514,-2.0543,-2.0568,-2.0545,-2.0522,-2.0469,-2.0355,-2.043,-2.1101,-2.2004,-2.2966,-2.3444,-2.46,-2.5557,-2.5503,-2.5468,-2.5456,-2.5415,-2.5404,-2.5293,-2.5069,-2.5065,-2.5056,-2.4974,-2.4953,-2.4985,-2.5025,-2.5044,-2.5057,-2.5057,-2.5006,-2.4923,-2.4609,-2.4565,-2.4451,-2.4198,-2.3878,-2.3975,-2.412,-2.4337,-2.4017,-2.4073,-2.4161,-2.3764,-2.2982,-2.1826,-2.0848,-1.9951,-1.9257,-1.8689,-1.8174,-1.8302,-1.7925,-1.6891,-1.1486,-0.9104,-0.3891,0.0857,0.1952,0.3672,0.3831,0.4132,0.4231,0.4153,0.4004,0.388,0.3738,0.377,0.3794,0.3593,0.3397,0.3462,0.3442,0.3539,0.3558,0.3373,0.3258,0.3364,0.3341,0.3296,0.3211,0.3214,0.3214,-2.4902,-2.4915,-2.5019,-2.5103,-2.5182,-2.5171,-2.5214,-2.5284,-2.5331,-2.5365,-2.5383,-2.5007,-2.481,-2.4631,-2.4044,-2.3618,-2.3482,-2.274,-2.2432,-2.2107,-2.1855,-2.1577,-2.1329,-2.1299,-2.0974,-2.0951,-2.0627,-2.0503,-2.0528,-2.0511,-2.054,-2.0545,-2.0521,-2.0547,-2.057,-2.0549,-2.0533,-2.049,-2.0478,-2.056,-2.1283,-2.1698,-2.2455,-2.312,-2.4031,-2.471,-2.4761,-2.527,-2.5352,-2.5348,-2.5365,-2.5293,-2.5184,-2.5214,-2.5201,-2.5122,-2.5087,-2.5099,-2.5125,-2.5132,-2.5089,-2.5038,-2.5019,-2.4974,-2.4879,-2.4704,-2.4629,-2.4543,-2.4528,-2.4495,-2.4426,-2.451,-2.4482,-2.451,-2.4342,-2.402,-2.3235,-2.21,-2.1022,-2.0089,-1.9503,-1.8984,-1.8477,-1.8043,-1.7535,-1.6509,-1.0485,-0.4891,-0.0633,0.3103,0.3797,0.4151,0.4242,0.4307,0.4382,0.4318,0.4226,0.4123,0.4021,0.4086,0.4151,0.3956,0.3793,0.3886,0.3938,0.388,0.3782,0.3644,0.3605,0.3701,0.3727,0.3751,0.3619,0.3571,0.3568,-2.4775,-2.4775,-2.4775,-2.4915,-2.5084,-2.5084,-2.519,-2.5274,-2.5293,-2.534,-2.5337,-2.4649,-2.4287,-2.4031,-2.3185,-2.273,-2.2498,-2.1936,-2.1594,-2.1287,-2.0937,-2.0544,-2.0516,-2.0547,-2.0625,-2.0506,-2.0531,-2.0525,-2.0543,-2.0543,-2.0566,-2.0588,-2.0568,-2.057,-2.057,-2.0525,-2.0514,-2.0483,-2.0522,-2.064,-2.1262,-2.1647,-2.1901,-2.2644,-2.3436,-2.3836,-2.4064,-2.4522,-2.4923,-2.5018,-2.5155,-2.5311,-2.5313,-2.5303,-2.5351,-2.5322,-2.5264,-2.5214,-2.5198,-2.5172,-2.5107,-2.5063,-2.5006,-2.4879,-2.4719,-2.4645,-2.4582,-2.4532,-2.4497,-2.4497,-2.4411,-2.4422,-2.4439,-2.4371,-2.4352,-2.4016,-2.3289,-2.2287,-2.122,-2.0222,-1.9559,-1.8633,-1.7242,-1.6428,-1.5261,-1.4164,-1.0148,-0.5244,-0.1542,0.1836,0.4226,0.4436,0.4468,0.4473,0.4517,0.4452,0.442,0.4528,0.4458,0.4479,0.4479,0.4285,0.4248,0.4409,0.4378,0.4212,0.4064,0.3953,0.4009,0.4081,0.4109,0.4168,0.4583,0.4535,0.4264,-2.4534,-2.4517,-2.4534,-2.4712,-2.4972,-2.5084,-2.5133,-2.511,-2.5091,-2.51,-2.5004,-2.4326,-2.4019,-2.3703,-2.2388,-2.1864,-2.1701,-2.1111,-2.0767,-2.0731,-2.0661,-2.0527,-2.0508,-2.0508,-2.0505,-2.0503,-2.0523,-2.0561,-2.0596,-2.0578,-2.0578,-2.0596,-2.0597,-2.0575,-2.0593,-2.0545,-2.0501,-2.0504,-2.0494,-2.0564,-2.0781,-2.1308,-2.1607,-2.1889,-2.2598,-2.3014,-2.319,-2.3799,-2.4172,-2.4239,-2.4896,-2.5048,-2.4851,-2.5005,-2.507,-2.5038,-2.5041,-2.508,-2.518,-2.5195,-2.5149,-2.5044,-2.498,-2.4837,-2.4707,-2.4599,-2.4534,-2.45,-2.4549,-2.4515,-2.4407,-2.4261,-2.4244,-2.4246,-2.4227,-2.3747,-2.2989,-2.2397,-2.1295,-2.0169,-1.9068,-1.7881,-1.612,-1.4544,-1.302,-1.1218,-0.8618,-0.5182,-0.1215,0.1439,0.4382,0.4692,0.4692,0.4666,0.4672,0.4614,0.4652,0.476,0.4856,0.4902,0.4864,0.473,0.4762,0.4864,0.4722,0.447,0.4405,0.4306,0.4427,0.4558,0.4545,0.4703,0.5211,0.541,0.5005,-2.45,-2.45,-2.45,-2.4329,-2.4166,-2.4714,-2.4739,-2.426,-2.3861,-2.3658,-2.3501,-2.2829,-2.2453,-2.2075,-2.157,-2.0951,-2.0896,-2.0828,-2.0547,-2.0605,-2.0575,-2.0541,-2.0522,-2.0504,-2.0507,-2.0508,-2.0547,-2.0546,-2.0527,-2.0547,-2.0527,-2.0527,-2.0584,-2.0601,-2.0601,-2.0579,-2.0582,-2.0562,-2.0537,-2.0529,-2.0533,-2.0816,-2.0982,-2.0999,-2.1799,-2.2153,-2.2191,-2.2939,-2.3334,-2.3449,-2.4184,-2.4374,-2.4113,-2.4182,-2.4532,-2.4484,-2.4473,-2.4662,-2.4977,-2.5164,-2.5069,-2.4993,-2.4907,-2.4779,-2.4615,-2.4551,-2.45,-2.4517,-2.4566,-2.4515,-2.4409,-2.4222,-2.4169,-2.4192,-2.3989,-2.3217,-2.2537,-2.206,-2.1272,-2.011,-1.8982,-1.6769,-1.4813,-1.238,-1.0634,-0.7311,-0.4435,-0.1675,0.2011,0.3223,0.5217,0.499,0.4884,0.4852,0.4826,0.489,0.4858,0.489,0.5087,0.5246,0.5207,0.5049,0.5017,0.5023,0.4902,0.4754,0.4683,0.4699,0.4929,0.5046,0.4956,0.508,0.5528,0.5646,0.5427,-2.4482,-2.4518,-2.4482,-2.4031,-2.3562,-2.4138,-2.4018,-2.3403,-2.2959,-2.2795,-2.266,-2.1971,-2.1594,-2.1328,-2.0772,-2.0394,-2.0415,-2.0453,-2.048,-2.0528,-2.054,-2.0525,-2.051,-2.0511,-2.0516,-2.0503,-2.0503,-2.0501,-2.0505,-2.0505,-2.0505,-2.0526,-2.0546,-2.0566,-2.0585,-2.0604,-2.0604,-2.0585,-2.0565,-2.0545,-2.0544,-2.0579,-2.0564,-2.0692,-2.1003,-2.1293,-2.1493,-2.195,-2.254,-2.2746,-2.3114,-2.3605,-2.3482,-2.3499,-2.408,-2.4282,-2.4524,-2.4743,-2.5056,-2.5209,-2.5106,-2.4934,-2.4861,-2.4719,-2.4549,-2.4517,-2.45,-2.4517,-2.4566,-2.4481,-2.4375,-2.4188,-2.4172,-2.421,-2.3859,-2.3106,-2.2227,-2.1769,-2.1108,-1.995,-1.8608,-1.6203,-1.3118,-1.0501,-0.8127,-0.413,-0.0131,0.2349,0.4393,0.502,0.5548,0.5399,0.5266,0.5257,0.5257,0.5295,0.5226,0.5055,0.5226,0.5467,0.5372,0.5214,0.5182,0.5182,0.5189,0.5138,0.5017,0.5085,0.523,0.5305,0.5257,0.5459,0.5869,0.5926,0.5941,-2.443,-2.4482,-2.4393,-2.3856,-2.3256,-2.3184,-2.295,-2.2554,-2.2604,-2.2594,-2.2556,-2.1645,-2.1299,-2.1221,-2.0593,-2.0301,-2.0308,-2.0362,-2.039,-2.043,-2.0477,-2.0483,-2.0509,-2.0509,-2.0499,-2.0504,-2.0508,-2.0511,-2.0502,-2.05,-2.05,-2.0502,-2.052,-2.0543,-2.0565,-2.0586,-2.0586,-2.0605,-2.0605,-2.0586,-2.0566,-2.0546,-2.0521,-2.0591,-2.065,-2.0663,-2.0842,-2.1258,-2.157,-2.1933,-2.2456,-2.3198,-2.3456,-2.3267,-2.4028,-2.463,-2.4896,-2.5154,-2.5173,-2.5231,-2.5111,-2.4915,-2.4775,-2.4626,-2.4549,-2.45,-2.45,-2.4517,-2.4549,-2.4411,-2.4284,-2.4266,-2.4248,-2.4117,-2.3947,-2.3106,-2.2063,-2.1366,-2.0739,-1.9721,-1.8509,-1.5918,-1.1498,-0.8454,-0.5031,-0.0303,0.2924,0.3228,0.4939,0.5307,0.5772,0.5847,0.5744,0.571,0.5734,0.5725,0.5602,0.5432,0.5414,0.5561,0.5442,0.5474,0.5522,0.5554,0.5582,0.5613,0.5854,0.5739,0.5492,0.5538,0.573,0.5861,0.6266,0.6593,0.6699,-2.4209,-2.4302,-2.371,-2.3026,-2.2189,-2.1156,-2.1004,-2.1449,-2.1058,-2.0813,-2.0795,-2.067,-2.0632,-2.047,-2.0304,-2.0238,-2.0234,-2.0244,-2.0316,-2.0357,-2.0402,-2.046,-2.0494,-2.0497,-2.0503,-2.0506,-2.0509,-2.0514,-2.0516,-2.0499,-2.0508,-2.0511,-2.0506,-2.0527,-2.0533,-2.0533,-2.0561,-2.0585,-2.0585,-2.0585,-2.0604,-2.0566,-2.0566,-2.0525,-2.0495,-2.0467,-2.0616,-2.0686,-2.0876,-2.1,-2.1659,-2.2125,-2.1429,-2.1853,-2.2636,-2.3463,-2.437,-2.5252,-2.5271,-2.519,-2.5061,-2.491,-2.4775,-2.4645,-2.4551,-2.45,-2.45,-2.4534,-2.4532,-2.4411,-2.4247,-2.4174,-2.41,-2.3896,-2.3545,-2.2703,-2.1732,-2.109,-2.0427,-1.9419,-1.8226,-1.4259,-0.9884,-0.5613,-0.1898,0.3155,0.5849,0.5619,0.557,0.5955,0.6157,0.6278,0.6349,0.6354,0.623,0.6191,0.5982,0.582,0.5885,0.589,0.5846,0.587,0.5905,0.6042,0.6305,0.6635,0.7023,0.6737,0.6307,0.6317,0.6454,0.6506,0.6613,0.6957,0.713,-2.3706,-2.3891,-2.3254,-2.2299,-2.1176,-1.9974,-1.987,-2.0307,-2.0047,-1.9926,-1.9928,-2.0058,-2.0069,-2.0078,-2.0136,-2.0152,-2.0156,-2.0192,-2.025,-2.0289,-2.0341,-2.0381,-2.0405,-2.0449,-2.0457,-2.048,-2.049,-2.0503,-2.0497,-2.05,-2.0509,-2.0514,-2.0503,-2.0506,-2.0511,-2.0511,-2.0504,-2.0539,-2.0544,-2.0563,-2.0584,-2.0586,-2.0566,-2.0547,-2.0505,-2.0511,-2.0514,-2.0451,-2.0441,-2.0454,-2.1095,-2.1245,-2.1041,-2.1817,-2.1958,-2.2752,-2.3398,-2.4265,-2.4571,-2.4676,-2.4748,-2.4828,-2.4785,-2.4692,-2.4566,-2.45,-2.45,-2.4517,-2.4498,-2.4426,-2.4245,-2.4045,-2.3824,-2.3602,-2.2887,-2.2154,-2.1493,-2.0851,-1.9998,-1.9079,-1.6265,-1.2328,-0.8069,-0.3666,0.0637,0.4773,0.6949,0.6956,0.676,0.6821,0.6899,0.6951,0.7001,0.7049,0.6909,0.6779,0.6682,0.6631,0.6692,0.6643,0.6449,0.6577,0.6844,0.7049,0.7207,0.7517,0.778,0.7523,0.723,0.7171,0.7087,0.7147,0.7118,0.7168,0.7279,-2.2924,-2.3304,-2.2747,-2.1552,-2.0208,-1.9538,-1.9341,-1.9402,-1.9649,-1.9775,-1.9781,-1.9832,-1.9907,-1.995,-2.003,-2.0098,-2.0115,-2.0159,-2.02,-2.0196,-2.0269,-2.0314,-2.0344,-2.0366,-2.0386,-2.0409,-2.0422,-2.0445,-2.0487,-2.0494,-2.0516,-2.0516,-2.0499,-2.0496,-2.048,-2.0461,-2.0464,-2.0523,-2.051,-2.051,-2.0563,-2.0547,-2.0506,-2.0507,-2.0502,-2.0506,-2.0519,-2.0503,-2.0506,-2.0511,-2.0616,-2.0953,-2.1444,-2.2138,-2.208,-2.2223,-2.2755,-2.3312,-2.389,-2.4111,-2.438,-2.4594,-2.4831,-2.4716,-2.4599,-2.4517,-2.45,-2.4411,-2.4375,-2.4063,-2.3824,-2.3566,-2.3309,-2.2795,-2.208,-2.1494,-2.0979,-2.0378,-1.9729,-1.8534,-1.6237,-1.2144,-0.7249,-0.2915,0.1404,0.5688,0.7655,0.7765,0.784,0.77,0.7702,0.7638,0.7464,0.7518,0.7663,0.756,0.7455,0.746,0.7511,0.7396,0.719,0.7484,0.7895,0.8009,0.807,0.8237,0.8362,0.8166,0.7893,0.7605,0.7596,0.7727,0.7734,0.773,0.7608,-2.1957,-2.1714,-2.0962,-2.0101,-1.934,-1.9139,-1.918,-1.9305,-1.938,-1.9509,-1.9649,-1.972,-1.9797,-1.9885,-1.9928,-1.9981,-2.0088,-2.0107,-2.0169,-2.0184,-2.0212,-2.0253,-2.0289,-2.0308,-2.0307,-2.0307,-2.0338,-2.0366,-2.0386,-2.0441,-2.0503,-2.05,-2.0482,-2.0463,-2.0434,-2.0404,-2.041,-2.0477,-2.0474,-2.0494,-2.0559,-2.0583,-2.0584,-2.0565,-2.0566,-2.0544,-2.0539,-2.0508,-2.0516,-2.0519,-2.05,-2.0632,-2.0795,-2.1621,-2.1881,-2.1878,-2.2255,-2.27,-2.309,-2.3495,-2.382,-2.4081,-2.4312,-2.4531,-2.4596,-2.4532,-2.4428,-2.4284,-2.4026,-2.3639,-2.3308,-2.2997,-2.2646,-2.1951,-2.1275,-2.0853,-2.0429,-1.9926,-1.9388,-1.7807,-1.593,-1.1708,-0.6753,-0.2196,0.2127,0.5091,0.7113,0.8013,0.8308,0.8319,0.8479,0.8362,0.7833,0.7867,0.8193,0.8371,0.8306,0.8173,0.8166,0.807,0.7948,0.8201,0.8522,0.8776,0.8903,0.9014,0.9013,0.8865,0.8599,0.8327,0.8269,0.8504,0.854,0.8508,0.8307,-2.0903,-2.0749,-2.0109,-1.9408,-1.8878,-1.893,-1.9081,-1.9162,-1.9259,-1.935,-1.9485,-1.9559,-1.9657,-1.975,-1.9786,-1.9896,-1.9991,-2.0001,-2.0079,-2.0124,-2.015,-2.0178,-2.02,-2.0234,-2.026,-2.0268,-2.0283,-2.0308,-2.032,-2.0324,-2.0366,-2.0404,-2.0404,-2.0399,-2.0383,-2.0346,-2.0357,-2.0452,-2.0428,-2.0467,-2.0551,-2.0575,-2.0597,-2.0597,-2.0599,-2.0585,-2.0566,-2.0523,-2.0506,-2.05,-2.05,-2.0516,-2.0623,-2.0947,-2.1118,-2.1172,-2.1443,-2.1926,-2.2288,-2.2688,-2.3084,-2.3317,-2.3423,-2.3498,-2.3337,-2.326,-2.3531,-2.3392,-2.2974,-2.2592,-2.2336,-2.2059,-2.1657,-2.1074,-2.0451,-1.9953,-1.9707,-1.9426,-1.909,-1.8449,-1.5487,-1.0959,-0.6201,-0.1838,0.2384,0.5957,0.7694,0.8226,0.8521,0.8918,0.909,0.9172,0.8718,0.8793,0.9329,0.9357,0.9198,0.906,0.8849,0.9078,0.916,0.9064,0.9135,0.9438,0.9648,0.9677,0.9639,0.9525,0.9534,0.9363,0.9301,0.9328,0.9337,0.9319,0.9235,-1.983,-2.0045,-1.9599,-1.9079,-1.8596,-1.8789,-1.8964,-1.9031,-1.9178,-1.9256,-1.932,-1.9434,-1.949,-1.954,-1.9606,-1.975,-1.9862,-1.9928,-1.9991,-2.005,-2.0089,-2.0108,-2.0116,-2.0124,-2.015,-2.02,-2.0219,-2.026,-2.0275,-2.0276,-2.0282,-2.0301,-2.0314,-2.0334,-2.0346,-2.034,-2.0346,-2.0385,-2.041,-2.0422,-2.048,-2.0564,-2.0591,-2.0594,-2.0593,-2.0594,-2.0583,-2.0547,-2.0503,-2.0516,-2.0508,-2.0501,-2.0514,-2.0614,-2.0531,-2.0653,-2.0659,-2.1023,-2.1328,-2.1702,-2.2028,-2.2265,-2.23,-2.2338,-2.2267,-2.2241,-2.2517,-2.2399,-2.1988,-2.1742,-2.1504,-2.1248,-2.0831,-2.0325,-1.9737,-1.9301,-1.917,-1.9,-1.8807,-1.8499,-1.4569,-1.0077,-0.5627,-0.1258,0.2661,0.6259,0.7987,0.8324,0.8732,0.9288,0.9621,0.9838,0.9763,1.0011,1.0253,1.0107,0.982,0.9715,0.9583,1.0022,1.0244,0.994,0.9889,1.0171,1.033,1.0321,1.033,1.0271,1.0273,1.0196,1.0127,1.0054,1.0095,1.0125,1.0223,-1.9065,-1.8586,-1.8495,-1.8481,-1.8502,-1.8582,-1.877,-1.8981,-1.9031,-1.915,-1.9264,-1.9305,-1.939,-1.9499,-1.9513,-1.9606,-1.9738,-1.9809,-1.9885,-1.9936,-2.0019,-2.0049,-2.004,-2.005,-2.005,-2.0088,-2.0122,-2.0167,-2.0184,-2.0229,-2.0276,-2.0288,-2.0346,-2.034,-2.0315,-2.0308,-2.0328,-2.0365,-2.0363,-2.0366,-2.0426,-2.0506,-2.059,-2.0593,-2.0593,-2.0561,-2.0546,-2.0508,-2.0506,-2.0503,-2.0519,-2.051,-2.0519,-2.0511,-2.0477,-2.0422,-2.0371,-2.0474,-2.0824,-2.1181,-2.1537,-2.1531,-2.1698,-2.2059,-2.1821,-2.1381,-2.1527,-2.1512,-2.1258,-2.1232,-2.1018,-2.0831,-2.0468,-1.9863,-1.9264,-1.9117,-1.8983,-1.8753,-1.8518,-1.668,-1.3729,-0.9131,-0.4508,-0.0203,0.4048,0.6997,0.8659,0.9047,0.9136,0.9664,1.0137,1.0351,1.0572,1.0457,1.0399,1.0466,1.0301,1.0205,1.0235,1.0477,1.0582,1.0572,1.0601,1.0791,1.0905,1.0933,1.0954,1.084,1.0802,1.0725,1.0725,1.0761,1.0794,1.0748,1.0758]},{"header":{"parameterUnit":"m.s-1","parameterCategory":1,"la1":31.0,"la2":29.5877,"lo1":-88.7671,"lo2":-86.6584,"dy":0.0162,"dx":0.0185,"nx":115,"ny":88,"refTime":"2025-07-26T00:00:00:Z","depth":0,"parameterNumber":3,"parameterNumberName":"V-component_of_WINDS"},"data":[0.0,0.0,0.0,0.0,0.0,0.0,0.0,0.0,0.0,0.0,0.0,0.0,0.0,0.0,0.0,0.0,0.0,0.0,0.0,0.0,0.0,0.0,0.0,0.0,0.0,0.0,0.0,0.0,0.0,0.0,0.0,0.0,0.0,0.0,0.0,0.0,0.0,0.0,0.0,0.0,0.0,0.0,0.0,0.0,0.0,0.0,0.0,0.0,0.0,0.0,0.0,0.0,0.0,0.0,0.0,0.0,0.0,0.0,0.0,0.0,0.0,0.0,0.0,0.0,0.0,0.0,0.0,0.0,0.0,0.0,0.0,0.0,0.0,0.0,0.0,0.0,0.0,0.0,0.0,0.0,0.0,0.0,0.0,0.0,0.0,0.0,0.0,0.0,0.0,0.0,0.0,0.0,0.0,0.0,0.0,0.0,0.0,0.0,0.0,0.0,0.0,0.0,0.0,0.0,0.0,0.0,0.0,0.0,0.0,0.0,0.0,0.0,0.0,0.0,0.0,0.0,0.0,0.0,0.0,0.0,0.0,0.0,0.0,0.0,0.0,0.0,0.0,0.0,0.0,0.0,0.0,0.0,0.0,0.0,0.0,0.0,0.0,0.0,0.0,0.0,0.0,0.0,0.0,0.0,0.0,0.0,0.0,0.0,0.0,0.0,0.0,0.0,0.0,0.0,0.0,0.0,0.0,0.0,0.0,0.0,0.0,0.0,0.0,0.0,0.0,0.0,0.0,0.0,0.0,0.0,0.0,0.0,0.0,0.0,0.0,0.0,0.0,0.0,0.0,0.0,0.0,0.0,0.0,0.0,0.0,0.0,0.0,0.0,0.0,0.0,0.0,0.0,0.0,0.0,0.0,0.0,0.0,0.0,0.0,0.0,0.0,0.0,0.0,0.0,0.0,0.0,0.0,0.0,0.0,0.0,0.0,0.0,0.0,0.0,0.0,0.0,0.0,0.0,0.0,0.0,0.0,0.0,0.0,0.0,0.0,0.0,0.0,0.0,0.0,0.0,0.0,0.0,0.0,0.0,0.0,0.0,0.0,0.0,0.0,0.0,0.0,0.0,0.0,0.0,0.0,0.0,0.0,0.0,0.0,0.0,0.0,0.0,0.0,0.0,0.0,0.0,0.0,0.0,0.0,0.0,0.0,0.0,0.0,0.0,0.0,0.0,0.0,0.0,0.0,0.0,0.0,0.0,0.0,0.0,0.0,0.0,0.0,0.0,0.0,0.0,0.0,0.0,0.0,0.0,0.0,0.0,0.0,0.0,0.0,0.0,0.0,0.0,0.0,0.0,0.0,0.0,0.0,0.0,0.0,0.0,0.0,0.0,0.0,0.0,0.0,0.0,0.0,0.0,0.0,0.0,0.0,0.0,0.0,0.0,0.0,0.0,0.0,0.0,0.0,0.0,0.0,0.0,0.0,0.0,0.0,0.0,0.0,0.0,0.0,0.0,0.0,0.0,0.0,0.0,0.0,0.0,0.0,0.0,0.0,0.0,0.0,0.0,0.0,0.0,0.0,0.0,0.0,0.0,0.0,0.0,0.0,0.0,0.0,0.0,0.0,0.0,0.0,0.0,0.0,0.0,0.0,0.0,0.0,0.0,0.0,0.0,0.0,0.0,0.0,0.0,0.0,0.0,0.0,0.0,0.0,0.0,0.0,0.0,0.0,0.0,0.0,0.0,0.0,0.0,0.0,0.0,0.0,0.0,0.0,0.0,0.0,0.0,0.0,0.0,0.0,0.0,0.0,0.0,0.0,0.0,0.0,0.0,0.0,0.0,0.0,0.0,0.0,0.0,0.0,0.0,0.0,0.0,0.0,0.0,0.0,0.0,0.0,0.0,0.0,0.0,0.0,0.0,0.0,0.0,0.0,0.0,0.0,0.0,0.0,0.0,0.0,0.0,0.0,0.0,0.0,0.0,0.0,0.0,0.0,0.0,0.0,0.0,0.0,0.0,0.0,0.0,0.0,0.0,0.0,0.0,0.0,0.0,0.0,0.0,0.0,0.0,0.0,0.0,0.0,0.0,0.0,0.0,0.0,0.0,0.0,0.0,0.0,0.0,0.0,0.0,0.0,0.0,0.0,0.0,0.0,0.0,0.0,0.0,0.0,0.0,0.0,0.0,0.0,0.0,0.0,0.0,0.0,0.0,0.0,0.0,0.0,0.0,0.0,0.0,0.0,0.0,0.0,0.0,0.0,0.0,0.0,0.0,0.0,0.0,0.0,0.0,0.0,0.0,0.0,0.0,0.0,0.0,0.0,0.0,0.0,0.0,0.0,0.0,0.0,0.0,0.0,0.0,0.0,0.0,0.0,0.0,0.0,0.0,0.0,0.0,0.0,0.0,0.0,0.0,0.0,0.0,0.0,0.0,0.0,0.0,0.0,0.0,0.0,0.0,0.0,0.0,0.0,0.0,0.0,0.0,0.0,0.0,0.0,0.0,0.0,0.0,0.0,0.0,0.0,0.0,0.0,0.0,0.0,0.0,0.0,0.0,0.0,0.0,0.0,0.0,0.0,0.0,0.0,0.0,0.0,0.0,0.0,0.0,0.0,0.0,0.0,0.0,0.0,0.0,0.0,0.0,0.0,0.0,0.0,0.0,0.0,0.0,0.0,0.0,0.0,0.0,0.0,0.0,0.0,0.0,0.0,0.0,0.0,0.0,0.0,0.0,0.0,0.0,0.0,0.0,0.0,0.0,0.0,0.0,0.0,0.0,0.0,0.0,0.0,0.0,0.0,0.0,0.0,0.0,0.0,0.0,0.0,0.0,0.0,0.0,0.0,0.0,0.0,0.0,0.0,0.0,0.0,0.0,0.0,0.0,0.0,0.0,0.0,0.0,0.0,0.0,0.0,0.0,0.0,0.0,0.0,0.0,0.0,0.0,0.0,0.0,0.0,0.0,0.0,0.0,0.0,0.0,0.0,0.0,0.0,0.0,0.0,0.0,0.0,0.0,0.0,0.0,0.0,0.0,0.0,0.0,0.0,0.0,0.0,0.0,0.0,0.0,0.0,0.0,0.0,0.0,0.0,0.0,0.0,0.0,0.0,0.0,0.0,0.0,0.0,0.0,0.0,0.0,0.0,0.0,0.0,0.0,0.0,0.0,0.0,0.0,0.0,0.0,0.0,0.0,0.0,0.0,0.0,0.0,0.0,0.0,0.0,0.0,0.0,0.0,0.0,0.0,0.0,0.0,0.0,0.0,0.0,0.0,0.0,0.0,0.0,0.0,0.0,0.0,0.0,0.0,0.0,0.0,0.0,0.0,0.0,0.0,0.0,0.0,0.0,0.0,0.0,0.0,0.0,0.0,0.0,0.0,0.0,0.0,0.0,0.0,0.0,0.0,0.0,0.0,0.0,0.0,0.0,0.0,0.0,0.0,0.0,0.0,0.0,0.0,0.0,0.0,0.0,0.0,0.0,0.0,0.0,0.0,0.0,0.0,0.0,0.0,0.0,0.0,0.0,0.0,0.0,0.0,0.0,0.0,0.0,0.0,0.0,0.0,0.0,0.0,0.0,0.0,0.0,0.0,0.0,0.0,0.0,0.0,0.0,0.0,0.0,0.0,0.0,0.0,0.0,0.0,0.0,0.0,0.0,0.0,0.0,0.0,0.0,0.0,0.0,0.0,0.0,0.0,0.0,0.0,0.0,0.0,0.0,0.0,0.0,0.0,0.0,0.0,0.0,0.0,0.0,0.0,0.0,0.0,0.0,0.0,0.0,0.0,0.0,0.0,0.0,0.0,0.0,0.0,0.0,0.0,0.0,0.0,0.0,0.0,0.0,0.0,0.0,0.0,0.0,0.0,0.0,0.0,0.0,0.0,0.0,0.0,0.0,0.0,0.0,0.0,0.0,0.0,0.0,0.0,0.0,0.0,0.0,0.0,0.0,0.0,0.0,0.0,0.0,0.0,0.0,0.0,0.0,0.0,0.0,0.0,0.0,0.0,0.0,0.0,0.0,0.0,0.0,0.0,0.0,0.0,0.0,0.0,0.0,0.0,0.0,0.0,0.0,0.0,0.0,0.0,0.0,0.0,0.0,0.0,0.0,0.0,0.0,0.0,0.0,0.0,0.0,0.0,0.0,0.0,0.0,0.0,0.0,0.0,0.0,0.0,0.0,0.0,0.0,0.0,0.0,0.0,0.0,0.0,0.0,0.0,0.0,0.0,0.0,0.0,0.0,0.0,0.0,0.0,0.0,0.0,0.0,0.0,0.0,0.0,0.0,0.0,0.0,0.0,0.0,0.0,0.0,0.0,0.0,0.0,-1.2637,0.0,0.0,0.0,0.0,0.0,0.0,0.0,0.0,0.0,0.0,0.0,0.0,0.0,0.0,0.0,0.0,0.0,0.0,0.0,0.0,0.0,0.0,0.0,0.0,0.0,0.0,0.0,0.0,0.0,0.0,0.0,0.0,0.0,0.0,0.0,0.0,0.0,0.0,0.0,0.0,0.0,0.0,0.0,0.0,0.0,0.0,0.0,0.0,0.0,0.0,0.0,0.0,0.0,0.0,0.0,0.0,0.0,0.0,0.0,0.0,0.0,0.0,0.0,0.0,0.0,0.0,0.0,0.0,0.0,0.0,0.0,0.0,0.0,0.0,0.0,0.0,0.0,0.0,0.0,0.0,0.0,0.0,0.0,0.0,0.0,0.0,0.0,0.0,0.0,0.0,0.0,0.0,0.0,0.0,0.0,0.0,0.0,0.0,0.0,0.0,0.0,0.0,0.0,0.0,0.0,0.0,0.0,0.0,0.0,0.0,-0.8,-0.9847,-1.0309,-1.0883,-1.1741,0.0,0.0,0.0,0.0,0.0,0.0,0.0,0.0,0.0,0.0,0.0,0.0,0.0,0.0,0.0,0.0,0.0,0.0,0.0,0.0,0.0,0.0,0.0,0.0,0.0,0.0,0.0,0.0,0.0,0.0,0.0,0.0,0.0,0.0,0.0,0.0,0.0,0.0,0.0,0.0,0.0,0.0,0.0,0.0,0.0,0.0,0.0,0.0,0.0,0.0,0.0,0.0,0.0,0.0,0.0,0.0,0.0,0.0,0.0,0.0,0.0,0.0,0.0,0.0,0.0,0.0,0.0,0.0,0.0,0.0,0.0,0.0,0.0,0.0,0.0,0.0,0.0,0.0,0.0,0.0,0.0,0.0,0.0,0.0,0.0,0.0,0.0,0.0,0.0,0.0,0.0,0.0,0.0,0.0,0.0,0.0,0.0,0.0,0.0,0.0,0.0,0.0,0.0,0.0,0.0,0.0,0.0,0.0,0.0,0.0,0.0,0.0,-1.0366,-1.0928,-1.1472,0.0,0.0,0.0,0.0,0.0,0.0,0.0,0.0,0.0,0.0,0.0,0.0,0.0,0.0,0.0,0.0,0.0,0.0,0.0,0.0,0.0,0.0,0.0,0.0,0.0,0.0,0.0,0.0,0.0,0.0,0.0,0.0,0.0,0.0,0.0,0.0,0.0,0.0,0.0,0.0,0.0,0.0,0.0,0.0,0.0,0.0,0.0,0.0,0.0,0.0,0.0,0.0,0.0,0.0,0.0,0.0,0.0,0.0,0.0,0.0,0.0,0.0,0.0,0.0,0.0,0.0,0.0,0.0,0.0,0.0,0.0,0.0,0.0,0.0,0.0,0.0,0.0,0.0,0.0,0.0,0.0,0.0,0.0,0.0,0.0,0.0,0.0,0.0,0.0,0.0,0.0,0.0,0.0,0.0,0.0,0.0,0.0,0.0,0.0,0.0,0.0,0.0,0.0,0.0,0.0,0.0,0.0,0.0,0.0,0.0,-0.855,-0.9526,-1.082,0.0,-1.2513,0.0,0.0,0.0,0.0,0.0,0.0,0.0,0.0,0.0,0.0,0.0,0.0,0.0,0.0,0.0,0.0,0.0,0.0,0.0,0.0,0.0,0.0,0.0,0.0,0.0,0.0,0.0,0.0,0.0,0.0,0.0,0.0,0.0,0.0,0.0,0.0,0.0,0.0,0.0,0.0,0.0,0.0,0.0,0.0,0.0,0.0,0.0,0.0,0.0,0.0,0.0,0.0,0.0,0.0,0.0,0.0,0.0,0.0,0.0,0.0,0.0,0.0,0.0,0.0,0.0,0.0,0.0,0.0,0.0,0.0,0.0,0.0,0.0,0.0,0.0,0.0,0.0,0.0,0.0,0.0,0.0,0.0,0.0,0.0,0.0,0.0,0.0,0.0,0.0,0.0,0.0,0.0,0.0,0.0,0.0,0.0,0.0,0.0,0.0,0.0,0.0,0.0,0.0,0.0,0.0,0.0,0.0,0.0,0.0,0.0,-0.8234,-0.9144,-1.0302,-1.1377,0.0,0.0,0.0,0.0,0.0,0.0,0.0,0.0,0.0,0.0,0.0,0.0,0.0,0.0,0.0,0.0,0.0,0.0,0.0,0.0,0.0,0.0,0.0,0.0,0.0,0.0,0.0,0.0,0.0,0.0,0.0,0.0,0.0,0.0,0.0,0.0,0.0,0.0,0.0,0.0,0.0,0.0,0.0,0.0,0.0,0.0,0.0,0.0,0.0,0.0,0.0,0.0,0.0,0.0,0.0,0.0,0.0,0.0,0.0,0.0,0.0,0.0,0.0,0.0,0.0,0.0,0.0,0.0,0.0,0.0,0.0,0.0,0.0,0.0,0.0,0.0,0.0,0.0,0.0,0.0,0.0,0.0,0.0,0.0,0.0,0.0,0.0,0.0,0.0,0.0,0.0,0.0,0.0,0.0,0.0,0.0,0.0,0.0,0.0,0.0,0.0,0.0,0.0,0.0,0.0,0.0,0.0,0.0,0.0,0.0,-0.7049,-0.8208,-0.9447,-1.0383,-1.1206,-1.1886,0.0,0.0,0.0,0.0,0.0,0.0,0.0,0.0,0.0,0.0,0.0,0.0,0.0,0.0,0.0,0.0,0.0,0.0,0.0,0.0,0.0,0.0,0.0,0.0,0.0,0.0,0.0,0.0,0.0,0.0,0.0,0.0,0.0,0.0,0.0,0.0,0.0,0.0,0.0,0.0,0.0,0.0,0.0,0.0,0.0,0.0,0.0,0.0,0.0,0.0,0.0,0.0,0.0,0.0,0.0,0.0,0.0,0.0,0.0,0.0,0.0,0.0,0.0,0.0,0.0,0.0,0.0,0.0,0.0,0.0,0.0,0.0,0.0,0.0,0.0,0.0,0.0,0.0,0.0,0.0,0.0,0.0,0.0,0.0,0.0,0.0,0.0,0.0,0.0,0.0,0.0,0.0,0.0,0.0,0.0,0.0,0.0,0.0,0.0,0.0,0.0,0.0,0.0,0.0,0.0,0.0,0.0,0.0,-0.6819,-0.7267,-0.8609,-1.0906,-1.1581,-1.187,0.0,0.0,0.0,0.0,0.0,0.0,0.0,0.0,0.0,0.0,0.0,0.0,0.0,0.0,0.0,0.0,0.0,0.0,0.0,0.0,0.0,0.0,0.0,0.0,0.0,0.0,0.0,0.0,0.0,0.0,0.0,0.0,0.0,0.0,0.0,0.0,0.0,0.0,0.0,0.0,0.0,0.0,0.0,0.0,0.0,0.0,0.0,0.0,0.0,0.0,0.0,0.0,0.0,0.0,0.0,0.0,0.0,0.0,0.0,0.0,0.0,0.0,0.0,0.0,0.0,0.0,0.0,0.0,0.0,0.0,0.0,0.0,0.0,0.0,0.0,0.0,0.0,0.0,0.0,0.0,0.0,0.0,0.0,0.0,0.0,0.0,0.0,0.0,0.0,0.0,0.0,0.0,0.0,0.0,0.0,0.0,0.0,0.0,0.0,0.0,0.0,0.0,0.0,0.0,0.0,0.0,0.0,0.0,0.0,-0.5535,-0.6385,-0.8313,-1.1273,-1.0764,-1.0864,0.0,0.0,0.0,0.0,0.0,0.0,0.0,0.0,0.0,0.0,0.0,0.0,0.0,0.0,0.0,0.0,0.0,0.0,0.0,0.0,0.0,0.0,0.0,0.0,0.0,0.0,0.0,0.0,0.0,0.0,0.0,0.0,0.0,0.0,0.0,0.0,0.0,0.0,0.0,0.0,0.0,0.0,0.0,0.0,0.0,0.0,0.0,0.0,0.0,0.0,0.0,0.0,0.0,0.0,0.0,0.0,0.0,0.0,0.0,0.0,0.0,0.0,0.0,0.0,0.0,0.0,0.0,0.0,0.0,0.0,0.0,0.0,0.0,0.0,0.0,0.0,0.0,0.0,0.0,0.0,0.0,0.0,0.0,0.0,0.0,0.0,0.0,0.0,0.0,0.0,0.0,0.0,0.0,0.0,0.0,0.0,0.0,0.0,0.0,0.0,0.0,0.0,0.0,0.0,0.0,0.0,0.0,0.0,0.0,-0.541,0.0,-0.8105,-1.0831,-1.0292,-1.0247,0.0,0.0,0.0,0.0,0.0,0.0,0.0,0.0,0.0,0.0,0.0,0.0,0.0,0.0,0.0,0.0,0.0,0.0,0.0,0.0,0.0,0.0,0.0,0.0,0.0,0.0,0.0,0.0,0.0,0.0,0.0,0.0,0.0,0.0,0.0,0.0,0.0,0.0,0.0,0.0,0.0,0.0,0.0,0.0,0.0,0.0,0.0,0.0,0.0,0.0,0.0,0.0,0.0,0.0,0.0,0.0,0.0,0.0,0.0,0.0,0.0,0.0,0.0,0.0,0.0,0.0,0.0,0.0,0.0,0.0,0.0,0.0,0.0,0.0,0.0,0.0,0.0,0.0,0.0,0.0,0.0,0.0,0.0,0.0,0.0,0.0,0.0,0.0,0.0,0.0,0.0,0.0,0.0,0.0,0.0,0.0,0.0,0.0,0.0,0.0,0.0,0.0,0.0,0.0,0.0,0.0,0.0,0.0,-0.5116,-0.6756,-0.709,-0.8097,-0.9769,-1.0312,-1.0237,0.0,0.0,0.0,0.0,0.0,0.0,0.0,0.0,0.0,0.0,0.0,0.0,0.0,0.0,0.0,0.0,0.0,0.0,0.0,0.0,0.0,0.0,0.0,0.0,0.0,0.0,0.0,0.0,0.0,0.0,0.0,0.0,0.0,0.0,0.0,0.0,0.0,0.0,0.0,0.0,0.0,0.0,0.0,0.0,0.0,0.0,0.0,0.0,0.0,0.0,0.0,0.0,0.0,0.0,0.0,0.0,0.0,0.0,0.0,0.0,0.0,0.0,0.0,0.0,0.0,0.0,0.0,0.0,0.0,0.0,0.0,0.0,0.0,0.0,0.0,0.0,0.0,0.0,0.0,0.0,0.0,0.0,0.0,0.0,0.0,0.0,0.0,0.0,0.0,0.0,0.0,0.0,0.0,0.0,0.0,0.0,0.0,0.0,0.0,0.0,0.0,0.0,0.0,0.0,0.0,0.0,0.0,0.0,0.0,-0.6032,-0.685,-0.8381,-1.0564,-1.0095,-1.0136,0.0,0.0,0.0,0.0,0.0,0.0,0.0,0.0,0.0,0.0,0.0,0.0,0.0,0.0,0.0,0.0,0.0,0.0,0.0,0.0,0.0,0.0,0.0,0.0,0.0,0.0,0.0,0.0,0.0,0.0,0.0,0.0,0.0,0.0,0.0,0.0,0.0,0.0,0.0,0.0,0.0,0.0,0.0,0.0,0.0,0.0,0.0,0.0,0.0,0.0,0.0,0.0,0.0,0.0,0.0,0.0,0.0,0.0,0.0,0.0,0.0,0.0,0.0,0.0,0.0,0.0,0.0,0.0,0.0,0.0,0.0,0.0,0.0,0.0,0.0,0.0,0.0,0.0,0.0,0.0,0.0,0.0,0.0,0.0,0.0,0.0,0.0,0.0,0.0,0.0,0.0,0.0,0.0,0.0,0.0,0.0,0.0,0.0,0.0,0.0,0.0,0.0,0.0,0.0,0.0,0.0,0.0,0.0,0.0,-0.6371,-0.729,-0.8865,-1.1095,-1.031,-1.0261,-1.1203,0.0,0.0,0.0,0.0,0.0,0.0,0.0,0.0,0.0,0.0,0.0,0.0,0.0,0.0,0.0,0.0,0.0,0.0,0.0,0.0,0.0,0.0,0.0,0.0,0.0,0.0,0.0,0.0,0.0,0.0,0.0,0.0,0.0,0.0,0.0,0.0,0.0,0.0,0.0,0.0,0.0,0.0,0.0,0.0,0.0,0.0,0.0,0.0,0.0,0.0,0.0,0.0,0.0,0.0,0.0,0.0,0.0,0.0,0.0,0.0,0.0,0.0,0.0,0.0,0.0,0.0,0.0,0.0,0.0,0.0,0.0,0.0,0.0,0.0,0.0,0.0,0.0,0.0,0.0,0.0,0.0,0.0,0.0,0.0,0.0,0.0,0.0,0.0,0.0,0.0,0.0,0.0,0.0,0.0,0.0,0.0,0.0,0.0,0.0,0.0,0.0,0.0,0.0,0.0,0.0,0.0,0.0,0.0,-0.7536,-0.8353,-0.9575,-1.1165,-1.0872,-1.0755,0.0,0.0,0.0,0.0,0.0,0.0,0.0,0.0,0.0,0.0,0.0,0.0,0.0,0.0,0.0,0.0,0.0,0.0,0.0,0.0,0.0,0.0,0.0,0.0,0.0,0.0,0.0,0.0,0.0,0.0,0.0,0.0,0.0,0.0,0.0,0.0,0.0,0.0,0.0,0.0,0.0,0.0,0.0,0.0,0.0,0.0,0.0,0.0,0.0,0.0,0.0,0.0,0.0,0.0,0.0,0.0,0.0,0.0,0.0,0.0,0.0,0.0,0.0,0.0,0.0,0.0,0.0,0.0,0.0,0.0,0.0,0.0,0.0,0.0,0.0,0.0,0.0,0.0,0.0,0.0,0.0,0.0,0.0,0.0,0.0,0.0,0.0,0.0,0.0,0.0,0.0,0.0,0.0,0.0,0.0,0.0,0.0,0.0,0.0,0.0,0.0,0.0,0.0,0.0,0.0,0.0,0.0,0.0,0.0,-0.8817,-0.9746,-1.0754,-1.1833,-1.1774,-1.1776,0.0,0.0,0.0,0.0,0.0,0.0,0.0,0.0,0.0,0.0,0.0,0.0,0.0,0.0,0.0,0.0,0.0,0.0,0.0,0.0,0.0,0.0,0.0,0.0,0.0,0.0,0.0,0.0,0.0,0.0,0.0,0.0,0.0,0.0,0.0,0.0,0.0,0.0,0.0,0.0,0.0,0.0,0.0,0.0,0.0,0.0,0.0,0.0,0.0,0.0,0.0,0.0,0.0,0.0,0.0,0.0,0.0,0.0,0.0,0.0,0.0,0.0,0.0,0.0,0.0,0.0,0.0,0.0,0.0,0.0,0.0,0.0,0.0,0.0,0.0,0.0,0.0,0.0,0.0,0.0,0.0,0.0,0.0,0.0,0.0,0.0,0.0,0.0,0.0,0.0,0.0,0.0,0.0,0.0,0.0,0.0,0.0,0.0,0.0,0.0,0.0,0.0,0.0,0.0,0.0,0.0,0.0,0.0,-0.7771,-0.9066,-1.023,-1.1481,-1.2802,-1.2492,-1.2552,0.0,0.0,0.0,0.0,0.0,0.0,0.0,0.0,0.0,0.0,0.0,0.0,0.0,0.0,0.0,0.0,0.0,0.0,0.0,0.0,0.0,0.0,0.0,0.0,0.0,0.0,0.0,0.0,0.0,0.0,0.0,0.0,0.0,0.0,0.0,0.0,0.0,0.0,0.0,0.0,0.0,0.0,0.0,0.0,0.0,0.0,0.0,0.0,0.0,0.0,0.0,0.0,0.0,0.0,0.0,0.0,0.0,0.0,0.0,0.0,0.0,0.0,0.0,0.0,0.0,0.0,0.0,0.0,0.0,0.0,0.0,0.0,0.0,0.0,0.0,0.0,0.0,0.0,0.0,0.0,0.0,0.0,0.0,0.0,0.0,0.0,0.0,0.0,0.0,0.0,0.0,0.0,0.0,0.0,0.0,0.0,0.0,0.0,0.0,0.0,0.0,0.0,0.0,0.0,0.0,0.0,0.0,0.0,-0.7831,-0.892,-1.0159,-1.1786,-1.3793,-1.3147,-1.3165,0.0,0.0,0.0,0.0,0.0,0.0,0.0,0.0,0.0,0.0,0.0,0.0,0.0,0.0,0.0,0.0,0.0,0.0,0.0,0.0,0.0,0.0,0.0,0.0,0.0,0.0,0.0,0.0,0.0,0.0,0.0,0.0,0.0,0.0,0.0,0.0,0.0,0.0,0.0,0.0,0.0,0.0,0.0,0.0,0.0,0.0,0.0,0.0,0.0,0.0,0.0,0.0,0.0,0.0,0.0,0.0,0.0,0.0,0.0,0.0,0.0,0.0,0.0,0.0,0.0,0.0,0.0,0.0,0.0,0.0,0.0,0.0,0.0,0.0,0.0,0.0,0.0,0.0,0.0,0.0,0.0,0.0,0.0,0.0,0.0,0.0,0.0,0.0,0.0,0.0,0.0,0.0,0.0,0.0,0.0,0.0,0.0,0.0,0.0,0.0,0.0,0.0,0.0,0.0,0.0,0.0,0.0,0.0,-0.8221,-0.9567,-1.0379,-1.1886,-1.4182,-1.3803,-1.3987,0.0,0.0,0.0,0.0,0.0,0.0,0.0,0.0,0.0,0.0,0.0,0.0,0.0,0.0,0.0,0.0,0.0,0.0,0.0,0.0,0.0,0.0,0.0,0.0,0.0,0.0,0.0,0.0,0.0,0.0,0.0,0.0,0.0,0.0,0.0,0.0,0.0,0.0,0.0,0.0,0.0,0.0,0.0,0.0,0.0,0.0,0.0,0.0,-1.8465,0.0,0.0,0.0,0.0,0.0,0.0,0.0,0.0,0.0,0.0,0.0,0.0,0.0,0.0,0.0,0.0,0.0,0.0,0.0,0.0,0.0,0.0,0.0,0.0,0.0,0.0,0.0,0.0,0.0,0.0,0.0,0.0,0.0,0.0,0.0,0.0,0.0,0.0,0.0,0.0,0.0,0.0,0.0,0.0,0.0,0.0,0.0,0.0,0.0,0.0,0.0,0.0,0.0,0.0,0.0,0.0,0.0,0.0,0.0,-0.818,-0.9486,-1.026,-1.1784,-1.4089,-1.4195,-1.4523,0.0,0.0,0.0,0.0,0.0,0.0,0.0,0.0,0.0,0.0,0.0,0.0,0.0,0.0,0.0,0.0,0.0,0.0,0.0,0.0,0.0,0.0,0.0,0.0,0.0,0.0,0.0,0.0,0.0,0.0,0.0,0.0,0.0,0.0,0.0,0.0,0.0,0.0,0.0,0.0,0.0,0.0,0.0,0.0,0.0,0.0,0.0,0.0,0.0,0.0,0.0,0.0,0.0,0.0,0.0,0.0,0.0,0.0,0.0,0.0,0.0,0.0,0.0,0.0,0.0,0.0,0.0,0.0,0.0,0.0,0.0,0.0,0.0,0.0,0.0,0.0,0.0,0.0,0.0,0.0,0.0,0.0,0.0,0.0,0.0,0.0,0.0,0.0,0.0,0.0,0.0,0.0,0.0,0.0,0.0,0.0,0.0,0.0,0.0,0.0,0.0,0.0,0.0,0.0,0.0,0.0,0.0,-0.7085,-0.8112,-0.9379,-1.0212,-1.175,-1.4029,-1.4416,-1.4868,-1.5452,0.0,0.0,0.0,0.0,0.0,0.0,0.0,0.0,0.0,0.0,0.0,0.0,0.0,0.0,0.0,0.0,0.0,0.0,0.0,0.0,0.0,0.0,0.0,0.0,0.0,0.0,0.0,0.0,0.0,0.0,0.0,0.0,0.0,0.0,0.0,0.0,0.0,0.0,-1.1941,-1.2482,0.0,0.0,0.0,0.0,0.0,0.0,0.0,0.0,-2.0563,0.0,0.0,0.0,0.0,0.0,0.0,0.0,0.0,0.0,0.0,0.0,0.0,0.0,0.0,0.0,0.0,0.0,0.0,0.0,0.0,0.0,0.0,0.0,0.0,0.0,0.0,0.0,0.0,0.0,0.0,0.0,0.0,0.0,0.0,0.0,0.0,0.0,0.0,0.0,0.0,0.0,0.0,0.0,0.0,0.0,0.0,0.0,0.0,0.0,0.0,0.0,0.0,0.0,0.0,0.0,0.0,-0.6941,-0.7149,-0.8169,-0.9984,-1.0975,-1.2204,-1.3884,-1.4597,-1.5187,-1.5766,0.0,0.0,0.0,0.0,0.0,0.0,0.0,0.0,0.0,0.0,0.0,0.0,0.0,0.0,0.0,0.0,0.0,0.0,0.0,0.0,0.0,0.0,0.0,0.0,0.0,0.0,0.0,0.0,0.0,0.0,0.0,0.0,0.0,0.0,0.0,0.0,0.0,0.0,0.0,-1.2333,-1.3057,0.0,0.0,0.0,0.0,0.0,0.0,0.0,0.0,-2.0752,0.0,0.0,0.0,0.0,0.0,0.0,0.0,0.0,0.0,0.0,0.0,0.0,0.0,0.0,0.0,0.0,0.0,0.0,0.0,0.0,0.0,0.0,0.0,0.0,0.0,0.0,0.0,0.0,0.0,0.0,0.0,0.0,0.0,0.0,0.0,0.0,0.0,0.0,0.0,0.0,0.0,0.0,0.0,0.0,0.0,0.0,0.0,0.0,0.0,0.0,0.0,0.0,0.0,0.0,0.0,-0.7102,-0.7302,-0.8332,-1.0401,-1.0983,-1.2092,-1.3843,-1.4672,-1.5294,0.0,0.0,0.0,0.0,0.0,0.0,0.0,0.0,0.0,0.0,0.0,0.0,0.0,0.0,0.0,0.0,0.0,0.0,0.0,0.0,0.0,0.0,0.0,0.0,0.0,0.0,0.0,0.0,0.0,0.0,0.0,0.0,0.0,0.0,0.0,0.0,0.0,0.0,0.0,0.0,-1.2016,-1.2645,-1.3888,0.0,0.0,0.0,0.0,0.0,0.0,-2.0016,-2.0707,0.0,0.0,0.0,0.0,0.0,0.0,0.0,0.0,0.0,0.0,0.0,0.0,0.0,0.0,0.0,0.0,0.0,0.0,0.0,0.0,0.0,0.0,0.0,0.0,0.0,0.0,0.0,0.0,0.0,0.0,0.0,0.0,0.0,0.0,0.0,0.0,0.0,0.0,0.0,0.0,0.0,0.0,0.0,0.0,0.0,0.0,0.0,0.0,0.0,0.0,0.0,0.0,0.0,0.0,0.0,-0.7057,-0.733,-0.8562,-1.0685,-1.1076,-1.2086,-1.3924,-1.4795,-1.5346,0.0,0.0,0.0,0.0,0.0,0.0,0.0,0.0,0.0,0.0,0.0,0.0,0.0,0.0,0.0,0.0,0.0,0.0,0.0,0.0,0.0,0.0,0.0,0.0,0.0,0.0,0.0,0.0,0.0,0.0,0.0,0.0,0.0,0.0,0.0,0.0,0.0,0.0,0.0,0.0,0.0,-1.2538,-1.3679,-1.5129,0.0,0.0,0.0,0.0,-1.9356,-2.0198,0.0,0.0,0.0,0.0,0.0,0.0,0.0,0.0,0.0,0.0,0.0,0.0,0.0,0.0,0.0,0.0,0.0,0.0,0.0,0.0,0.0,0.0,0.0,0.0,0.0,0.0,0.0,0.0,0.0,0.0,0.0,0.0,0.0,0.0,0.0,0.0,0.0,0.0,0.0,0.0,0.0,0.0,0.0,0.0,0.0,0.0,0.0,0.0,0.0,0.0,0.0,0.0,0.0,0.0,0.0,0.0,-0.6782,-0.7119,-0.8548,-1.1064,-1.1692,-1.2645,-1.4155,-1.5061,-1.5556,0.0,0.0,0.0,0.0,0.0,0.0,0.0,0.0,0.0,0.0,0.0,0.0,0.0,0.0,0.0,0.0,0.0,0.0,0.0,0.0,0.0,0.0,0.0,0.0,0.0,0.0,0.0,0.0,0.0,0.0,0.0,0.0,0.0,0.0,0.0,0.0,0.0,0.0,0.0,0.0,0.0,-1.3177,-1.3336,-1.4505,-1.5856,0.0,0.0,-1.8701,-2.0346,-2.0915,0.0,0.0,0.0,0.0,0.0,0.0,0.0,0.0,0.0,0.0,0.0,0.0,0.0,0.0,0.0,0.0,0.0,0.0,0.0,0.0,0.0,0.0,0.0,0.0,0.0,0.0,0.0,0.0,0.0,0.0,0.0,0.0,0.0,0.0,0.0,0.0,0.0,0.0,0.0,0.0,0.0,0.0,0.0,0.0,0.0,0.0,0.0,0.0,0.0,0.0,0.0,0.0,0.0,0.0,0.0,-0.5892,-0.713,-0.7516,-0.9049,-1.1499,-1.2027,-1.2806,-1.4061,-1.4836,-1.5099,0.0,0.0,0.0,0.0,0.0,0.0,0.0,0.0,0.0,0.0,0.0,0.0,0.0,0.0,0.0,0.0,0.0,0.0,0.0,0.0,0.0,0.0,0.0,0.0,0.0,0.0,0.0,0.0,0.0,0.0,0.0,0.0,0.0,0.0,0.0,0.0,0.0,0.0,0.0,0.0,0.0,0.0,-1.4799,-1.6323,0.0,0.0,0.0,-1.9947,-2.0689,0.0,0.0,0.0,0.0,0.0,0.0,0.0,0.0,0.0,0.0,0.0,0.0,0.0,0.0,0.0,0.0,0.0,0.0,0.0,0.0,0.0,0.0,0.0,0.0,0.0,0.0,0.0,0.0,0.0,0.0,0.0,0.0,0.0,0.0,0.0,0.0,0.0,0.0,0.0,0.0,0.0,0.0,0.0,0.0,0.0,0.0,0.0,0.0,0.0,0.0,0.0,0.0,0.0,0.0,0.0,0.0,0.0,-0.7501,-0.8149,-0.9574,-1.1862,-1.2195,-1.2875,-1.4091,-1.4569,0.0,0.0,0.0,0.0,0.0,0.0,0.0,0.0,0.0,0.0,0.0,0.0,0.0,0.0,0.0,0.0,0.0,0.0,0.0,0.0,0.0,0.0,0.0,0.0,0.0,0.0,0.0,-0.9884,0.0,0.0,0.0,0.0,0.0,0.0,0.0,0.0,0.0,0.0,0.0,0.0,0.0,0.0,-1.4291,-1.5932,-1.7407,-1.8593,0.0,0.0,-2.0724,-2.0897,-2.108,-2.1112,0.0,0.0,0.0,0.0,0.0,0.0,0.0,0.0,0.0,0.0,0.0,0.0,0.0,0.0,0.0,0.0,0.0,0.0,0.0,0.0,0.0,0.0,0.0,0.0,0.0,0.0,0.0,0.0,0.0,0.0,0.0,0.0,0.0,0.0,0.0,0.0,0.0,0.0,0.0,0.0,0.0,0.0,0.0,0.0,0.0,0.0,0.0,0.0,0.0,0.0,0.0,0.0,0.0,0.0,-0.7418,-0.7876,-0.876,-1.0155,-1.1984,-1.2195,-1.2989,-1.448,-1.4264,-1.4054,0.0,0.0,0.0,0.0,0.0,0.0,0.0,0.0,0.0,0.0,0.0,0.0,0.0,0.0,0.0,0.0,0.0,0.0,0.0,0.0,0.0,0.0,0.0,0.0,0.0,0.0,0.0,0.0,0.0,0.0,0.0,0.0,0.0,0.0,0.0,0.0,0.0,0.0,0.0,0.0,0.0,-1.501,-1.5802,-1.6215,-1.7062,0.0,-1.9227,-1.9803,-2.1153,-2.1569,-2.1596,-2.1225,0.0,0.0,0.0,0.0,0.0,0.0,0.0,0.0,0.0,0.0,0.0,0.0,0.0,0.0,0.0,0.0,0.0,0.0,0.0,0.0,0.0,0.0,0.0,0.0,0.0,0.0,0.0,0.0,0.0,0.0,0.0,0.0,0.0,0.0,0.0,0.0,0.0,0.0,0.0,0.0,0.0,0.0,0.0,0.0,0.0,0.0,0.0,0.0,0.0,0.0,0.0,0.0,0.0,-0.7517,-0.7908,-0.8938,-1.0098,-1.1368,-1.1772,-1.2414,-1.3455,-1.3568,-1.3308,0.0,0.0,0.0,0.0,0.0,0.0,0.0,0.0,0.0,0.0,0.0,0.0,0.0,0.0,0.0,0.0,0.0,0.0,0.0,0.0,0.0,0.0,0.0,0.0,0.0,0.0,0.0,0.0,-1.0479,-1.0644,-1.0554,0.0,0.0,0.0,0.0,0.0,0.0,0.0,0.0,0.0,0.0,-1.5888,-1.7002,-1.7591,0.0,0.0,-2.0342,-2.0698,-2.174,-2.1557,-2.1276,-2.1124,-2.1742,0.0,0.0,0.0,0.0,0.0,0.0,0.0,0.0,0.0,0.0,0.0,0.0,0.0,0.0,0.0,0.0,0.0,0.0,0.0,0.0,0.0,0.0,0.0,0.0,0.0,0.0,0.0,0.0,0.0,0.0,0.0,0.0,0.0,0.0,0.0,0.0,0.0,0.0,0.0,0.0,0.0,0.0,0.0,0.0,0.0,0.0,0.0,0.0,0.0,0.0,0.0,0.0,-0.7999,-0.8149,-0.9257,-1.0244,-1.0986,-1.1487,-1.2047,-1.2712,-1.2942,-1.28,0.0,0.0,0.0,0.0,0.0,0.0,0.0,0.0,0.0,0.0,0.0,0.0,0.0,0.0,0.0,0.0,0.0,0.0,0.0,0.0,0.0,0.0,0.0,0.0,0.0,0.0,0.0,0.0,-1.0587,-1.0845,-1.0636,0.0,0.0,0.0,0.0,0.0,0.0,0.0,0.0,0.0,0.0,-1.6667,-1.7825,-1.8327,-1.9056,-2.0264,-2.0701,-2.1104,-2.1812,-2.1663,-2.1386,-2.1281,0.0,0.0,0.0,0.0,0.0,0.0,0.0,0.0,0.0,0.0,0.0,0.0,0.0,0.0,0.0,0.0,0.0,0.0,0.0,0.0,0.0,0.0,0.0,0.0,0.0,0.0,0.0,-0.3432,0.0,0.0,-0.323,0.0,0.0,0.0,0.0,0.0,0.0,0.0,0.0,0.0,0.0,0.0,0.0,0.0,0.0,0.0,0.0,0.0,0.0,0.0,0.0,0.0,0.0,-0.9068,-0.8794,-0.9917,-1.0666,-1.0971,-1.1423,-1.1975,-1.252,-1.2565,-1.2674,-1.2957,0.0,0.0,0.0,0.0,0.0,0.0,0.0,0.0,0.0,0.0,0.0,0.0,0.0,0.0,0.0,0.0,0.0,0.0,0.0,0.0,0.0,0.0,0.0,0.0,0.0,0.0,-1.0381,-1.0303,-1.0449,0.0,0.0,0.0,0.0,0.0,0.0,0.0,0.0,0.0,-1.5666,-1.6638,-1.7359,-1.783,-1.7941,-1.8322,-1.934,-1.9934,-2.0535,-2.1368,-2.2018,-2.2325,0.0,0.0,0.0,0.0,0.0,0.0,0.0,0.0,0.0,0.0,0.0,0.0,0.0,0.0,0.0,0.0,0.0,0.0,0.0,0.0,0.0,0.0,0.0,0.0,0.0,0.0,0.0,-0.3483,-0.345,0.0,0.0,0.0,0.0,0.0,0.0,0.0,0.0,0.0,0.0,0.0,-0.6417,-0.6534,0.0,0.0,0.0,0.0,0.0,0.0,0.0,0.0,0.0,0.0,0.0,0.0,-0.9119,-0.8869,-0.9735,-1.0208,-1.0065,-1.0645,-1.1129,-1.1592,-1.1833,-1.2485,-1.3637,0.0,0.0,0.0,0.0,0.0,0.0,0.0,0.0,0.0,0.0,0.0,0.0,0.0,0.0,0.0,0.0,0.0,0.0,0.0,0.0,0.0,0.0,0.0,0.0,0.0,-1.1861,0.0,0.0,0.0,0.0,0.0,0.0,0.0,0.0,0.0,0.0,0.0,-1.578,-1.6316,-1.6849,-1.7482,-1.8349,-1.8232,-1.8664,0.0,0.0,0.0,0.0,0.0,0.0,0.0,0.0,0.0,0.0,0.0,0.0,0.0,0.0,-2.5364,-2.5075,-2.5472,-2.5753,-2.5359,0.0,0.0,0.0,0.0,0.0,0.0,0.0,0.0,0.0,0.0,0.0,0.0,0.0,0.0,-0.3601,0.0,-0.3338,0.0,0.0,0.0,0.0,0.0,0.0,0.0,0.0,-0.5901,-0.6467,-0.6352,-0.639,-0.6464,0.0,-0.7095,-0.7678,0.0,0.0,0.0,0.0,0.0,0.0,0.0,0.0,-0.9125,-0.8856,-0.9588,-0.9825,-0.9643,-1.0198,-1.0667,-1.1023,-1.1666,-1.2434,-1.3261,-1.4082,-1.4732,0.0,0.0,0.0,0.0,0.0,0.0,0.0,0.0,0.0,0.0,0.0,0.0,0.0,0.0,0.0,0.0,0.0,0.0,0.0,0.0,0.0,0.0,0.0,-1.275,0.0,0.0,0.0,0.0,0.0,0.0,0.0,0.0,0.0,-1.4725,-1.5763,-1.6602,-1.6758,-1.7312,-1.7828,-1.8437,0.0,0.0,0.0,0.0,0.0,0.0,0.0,-2.2644,-2.35,-2.382,-2.4239,-2.5091,-2.5777,-2.6258,-2.6233,0.0,0.0,-2.5805,-2.6131,-2.6427,-2.6245,-2.6678,-2.7053,-2.6834,-2.6523,-2.6226,0.0,0.0,0.0,0.0,0.0,0.0,0.0,0.0,-0.3772,-0.371,0.0,-0.3172,0.0,0.0,0.0,0.0,0.0,-0.3336,0.0,0.0,-0.5943,-0.6291,-0.6211,-0.6214,-0.6272,-0.639,-0.6946,-0.7749,-0.8756,-0.9137,0.0,0.0,0.0,0.0,0.0,0.0,-0.9055,-0.885,-0.9404,-0.9681,-0.9584,-1.0198,-1.0624,-1.0922,-1.1969,-1.2442,-1.2154,-1.3896,-1.466,-1.422,-1.516,0.0,0.0,0.0,0.0,0.0,0.0,0.0,0.0,0.0,0.0,0.0,0.0,0.0,0.0,0.0,0.0,0.0,0.0,0.0,0.0,-1.2732,0.0,0.0,0.0,0.0,0.0,0.0,0.0,0.0,0.0,0.0,-1.6367,-1.6567,-1.6831,-1.7189,0.0,0.0,0.0,0.0,-1.9625,-2.0316,-2.1129,-2.2058,-2.2924,-2.4147,-2.4669,-2.3692,0.0,0.0,-2.5574,-2.5777,-2.596,-2.6068,-2.6481,-2.6835,-2.6905,-2.6454,-2.6202,-2.6666,-2.6863,-2.6863,-2.6807,-2.6792,-2.6849,-0.3185,0.0,0.0,0.0,0.0,-0.2967,-0.2977,-0.2975,-0.2943,-0.283,-0.2791,-0.2667,0.0,0.0,0.0,0.0,0.0,0.0,-0.3882,-0.4523,-0.5464,-0.5874,-0.5762,-0.5874,-0.5938,-0.6093,-0.6692,-0.7551,-0.8487,-0.9097,-0.9508,-0.9836,0.0,0.0,0.0,0.0,-0.9061,-0.8856,-0.9398,-0.958,-0.9316,-0.9844,-1.0419,-1.1015,-1.1969,-1.266,-1.3129,-1.4082,-1.4756,-1.5077,-1.568,0.0,0.0,0.0,0.0,0.0,0.0,0.0,0.0,0.0,0.0,0.0,0.0,0.0,0.0,0.0,0.0,0.0,0.0,0.0,-1.3234,-1.3086,-1.3391,0.0,0.0,0.0,0.0,0.0,0.0,0.0,0.0,0.0,-1.7111,-1.7235,-1.733,0.0,0.0,-1.808,-1.806,-1.8563,-1.9199,-2.0098,-2.072,0.0,-2.2643,-2.2615,-2.2869,-2.3872,-2.4562,-2.499,-2.5026,-2.5481,-2.5848,-2.5862,-2.6261,-2.6569,-2.6531,-2.6947,-2.7074,-2.6919,-2.7169,-2.7307,-2.6918,-2.7173,-2.7357,-0.2389,-0.2849,-0.26,-0.2565,-0.2568,-0.2591,-0.2587,-0.2565,-0.2552,-0.2533,-0.2506,-0.2218,-0.2037,-0.1725,-0.1537,0.0,0.0,0.0,-0.3808,-0.4742,-0.5378,-0.56,-0.5502,-0.5585,-0.5713,-0.5818,-0.614,-0.6936,-0.8093,-0.8484,-0.9,-0.9614,0.0,0.0,-0.8986,-0.9035,-0.901,-0.8905,-0.9282,-0.9393,-0.9218,-0.9836,-1.0462,-1.1015,-1.1715,-1.2428,-1.3073,-1.3849,-1.4495,-1.5084,-1.5532,-1.5672,0.0,0.0,0.0,0.0,0.0,0.0,0.0,0.0,0.0,0.0,0.0,-1.3478,-1.321,0.0,0.0,0.0,-1.3608,-1.3873,-1.4562,-1.4483,0.0,0.0,0.0,0.0,0.0,0.0,0.0,-1.6477,-1.6589,-1.694,-1.7775,-1.7774,-1.7829,-1.8324,-1.8127,-1.8181,-1.8881,0.0,-1.9264,-2.0146,-2.088,-2.1708,-2.2564,-2.2549,-2.275,-2.3809,-2.4083,-2.423,-2.439,-2.4867,-2.5221,-2.5344,-2.5502,-2.5744,-2.5912,-2.638,-2.6722,-2.6483,-2.6905,-2.7103,-2.6734,-2.7152,-2.7403,-0.1561,-0.2083,-0.2312,-0.2429,-0.2438,-0.2489,-0.2477,-0.2423,-0.2475,-0.2468,-0.2336,-0.1907,-0.1756,-0.1785,-0.114,0.0,-0.3173,-0.3028,-0.3842,-0.5292,-0.5359,-0.5362,-0.5428,-0.5348,-0.5404,-0.5529,-0.5446,-0.6057,-0.7422,-0.7432,-0.7989,-0.9136,-0.9513,-0.9445,-0.9014,-0.8858,-0.8831,-0.8935,-0.9098,-0.9211,-0.9263,-1.0043,-1.0624,-1.0863,-1.1398,-1.1915,-1.2383,-1.3288,-1.3981,-1.4502,-1.507,-1.5452,-1.5578,0.0,0.0,0.0,0.0,0.0,0.0,0.0,0.0,0.0,0.0,0.0,0.0,0.0,0.0,0.0,-1.4678,0.0,-1.6037,-1.6375,0.0,0.0,0.0,-1.6365,-1.6798,-1.655,-1.6563,-1.7001,0.0,0.0,-1.8459,-1.8293,-1.8495,-1.9457,-1.8653,-1.8575,-2.0118,-1.9684,-1.9575,-2.0346,-2.128,-2.207,-2.2432,-2.307,-2.3476,-2.3402,-2.3412,-2.3474,-2.3612,-2.4038,-2.4361,-2.4517,-2.4496,-2.4626,-2.5226,-2.528,-2.5289,-2.5694,-2.6204,-2.6529,-2.6621,-2.6945,-2.7276,-0.1351,-0.1514,-0.147,-0.1544,-0.1571,-0.158,-0.1546,-0.1487,-0.1493,-0.1493,-0.1483,-0.1401,-0.1241,-0.1081,-0.0788,-0.1195,-0.205,-0.2647,-0.3437,-0.4353,-0.4888,-0.5223,-0.5355,-0.5117,-0.5125,-0.5236,-0.5102,-0.5517,-0.6358,-0.6782,-0.7274,-0.7932,-0.8392,-0.8679,-0.8664,-0.8764,-0.8735,-0.853,-0.899,-0.9316,-0.951,-1.0146,-1.0514,-1.0616,-1.1167,-1.1738,-1.2403,-1.3033,-1.3795,-1.462,-1.5499,-1.5869,-1.5669,-1.5329,0.0,0.0,0.0,0.0,0.0,0.0,0.0,0.0,0.0,-1.4032,-1.3037,0.0,-1.4038,0.0,-1.4853,-1.5459,-1.5547,-1.5674,0.0,0.0,-1.6525,-1.6631,-1.7398,-1.7163,-1.7269,-1.8017,-1.8172,-1.8368,-1.8805,-1.8935,-1.9204,-1.9818,-1.9199,-1.8808,-1.8985,-1.9218,-1.9436,-1.9678,-2.0345,-2.1015,-2.1632,-2.2221,-2.2653,-2.2658,-2.269,-2.2737,-2.2844,-2.3454,-2.3856,-2.3947,-2.437,-2.4667,-2.4719,-2.4719,-2.4697,-2.4722,-2.5788,-2.6841,-2.6922,-2.733,-2.7714,-0.11,-0.1019,-0.1071,-0.1062,-0.1141,-0.1217,-0.1198,-0.1166,-0.1166,-0.1166,-0.1166,-0.1093,-0.0934,-0.0771,-0.056,-0.0902,-0.1639,-0.236,-0.3149,-0.3954,-0.4625,-0.4992,-0.5065,-0.4855,-0.4848,-0.4905,-0.4706,-0.4991,-0.5809,-0.6249,-0.6714,-0.7334,-0.7891,-0.8172,-0.8276,-0.8369,-0.8394,-0.8474,-0.8949,-0.9309,-0.9614,-1.0043,-1.0411,-1.0702,-1.1255,-1.2027,-1.3145,-1.3547,-1.4105,-1.4868,-1.5421,-1.5548,-1.5297,-1.5145,-1.5033,0.0,0.0,0.0,0.0,0.0,0.0,0.0,0.0,0.0,0.0,0.0,-1.4658,-1.5234,-1.5723,-1.6152,-1.6533,-1.6562,-1.6699,-1.6992,-1.7307,-1.756,-1.7876,-1.7784,-1.7969,-1.8432,-1.8395,-1.8445,-1.8934,-1.9043,-1.9361,-1.9999,-1.9392,-1.892,-1.9124,-1.915,-1.9064,-1.9133,-1.9477,-1.9948,-2.0516,-2.1495,-2.2118,-2.1956,-2.2218,-2.2523,-2.2598,-2.2994,-2.3331,-2.3346,-2.3714,-2.4047,-2.4177,-2.4235,-2.4278,-2.4829,-2.5713,-2.6433,-2.652,-2.704,-2.7531,-0.0701,-0.0621,-0.0758,-0.0888,-0.087,-0.1084,-0.1155,-0.1155,-0.1155,-0.1155,-0.1083,-0.0867,-0.0713,-0.0558,-0.0349,-0.0696,-0.1527,-0.2103,-0.2818,-0.3623,-0.4411,-0.4677,-0.4623,-0.4526,-0.4575,-0.4639,-0.4324,-0.4602,-0.5396,-0.5716,-0.6215,-0.6876,-0.7441,-0.7747,-0.784,-0.7784,-0.8063,-0.862,-0.8995,-0.9309,-0.9562,-0.9836,-1.0249,-1.0838,-1.1372,-1.233,-1.3791,-1.4068,-1.4424,-1.4974,-1.5056,-1.4941,-1.4758,-1.4718,-1.4797,0.0,-1.5442,0.0,0.0,0.0,0.0,0.0,0.0,0.0,0.0,-1.4961,-1.5303,-1.6543,-1.6641,-1.6953,-1.7695,-1.7832,-1.7658,-1.7353,-1.8046,-1.8379,-1.8107,-1.8228,-1.8405,-1.8594,-1.8376,-1.8438,-1.904,-1.9016,-1.9244,-1.9745,-1.9181,-1.883,-1.9384,-1.8933,-1.861,-1.8737,-1.8891,-1.9271,-1.975,-2.0927,-2.1707,-2.1375,-2.1735,-2.2341,-2.2264,-2.2476,-2.2611,-2.2743,-2.2786,-2.3018,-2.3659,-2.3714,-2.4075,-2.4889,-2.5545,-2.5953,-2.603,-2.6632,-2.7121,-0.0148,-0.059,-0.0647,-0.0638,-0.0634,-0.0622,-0.0821,-0.1093,-0.0958,-0.0822,-0.0616,-0.0479,-0.0409,-0.034,-0.0136,-0.0136,-0.0407,-0.1751,-0.2484,-0.2681,-0.3936,-0.4528,-0.4611,-0.4281,-0.4169,-0.4259,-0.4125,-0.4116,-0.4337,-0.4835,-0.5379,-0.5897,-0.6444,-0.6959,-0.7291,0.0,0.0,0.0,-0.9061,-0.9256,-0.9413,-0.9784,-1.0058,-1.0198,-1.0981,0.0,-1.2607,-1.321,-1.3876,-1.462,-1.4772,0.0,0.0,0.0,0.0,0.0,0.0,0.0,0.0,0.0,0.0,0.0,-1.5979,-1.513,-1.4443,-1.4629,-1.5176,-1.6084,-1.6191,-1.625,-1.6488,-1.6776,-1.6925,-1.6821,-1.7024,-1.7234,-1.7615,-1.7644,-1.7989,-1.916,-1.9132,-1.916,-1.9517,-1.9654,-1.9389,-1.8998,-1.8744,-1.84,-1.7978,-1.8201,-1.8469,-1.8652,-1.8845,-1.9261,-1.9561,-2.0089,-2.0615,-2.0603,-2.0753,-2.0968,-2.1053,-2.1141,-2.1413,-2.1859,-2.2076,-2.2323,-2.2855,-2.3333,-2.3629,-2.3807,-2.4606,-2.5558,-2.647,-2.7137,-2.7633,0.0218,0.0,-0.0425,-0.042,0.0,-0.0409,-0.0539,-0.0808,-0.0674,-0.054,-0.0405,-0.0337,-0.027,-0.0135,-0.0067,0.0,0.0,-0.1523,-0.2168,-0.2296,-0.3573,-0.4185,-0.4174,-0.3991,-0.3958,-0.4008,-0.3834,-0.3858,-0.4015,-0.4467,-0.5012,-0.5629,-0.6136,-0.6665,-0.7194,-0.7201,-0.7576,-0.8414,-0.8809,-0.916,-0.9406,-0.9673,-0.9984,-1.0285,-1.0973,0.0,0.0,0.0,0.0,0.0,0.0,0.0,0.0,0.0,0.0,-1.4807,-1.5828,-1.6402,-1.6343,-1.6668,-1.6818,-1.6634,-1.597,-1.5302,-1.4785,-1.5166,-1.5596,-1.6066,-1.6125,-1.6213,-1.6377,-1.6874,-1.7091,-1.69,-1.7564,-1.8148,-1.8246,-1.8321,-1.8643,-1.929,-1.9215,-1.9126,-1.9291,-1.9102,-1.8936,-1.862,-1.813,-1.7721,-1.7455,-1.7485,-1.76,-1.7557,-1.8363,-1.8842,-1.8843,-1.9537,-1.9961,-2.0007,-2.0274,-2.0372,-2.0169,-2.021,-2.0364,-2.0462,-2.0717,-2.1093,-2.1425,-2.2096,-2.2753,-2.3277,-2.3969,-2.4932,-2.6046,-2.6574,-2.6698,0.0718,0.0,0.0,-0.0139,-0.0278,-0.0272,-0.0337,-0.0405,0.0,0.0,0.0,-0.027,-0.0135,0.0,0.0,0.0,-0.0067,-0.1365,-0.1985,-0.2037,-0.3276,-0.3849,-0.3815,-0.379,-0.3729,-0.3744,-0.3616,-0.366,-0.3923,-0.4236,-0.4758,-0.5406,-0.5921,-0.6476,-0.706,-0.7248,-0.7502,-0.7842,-0.8373,-0.8848,-0.9139,-0.9344,-0.9693,-1.0232,-1.0847,-1.1666,-1.2814,-1.3377,-1.373,-1.3882,-1.3801,-1.36,-1.3268,-1.3982,-1.4498,-1.4558,-1.6045,-1.6789,-1.6367,-1.6884,-1.6921,-1.6068,-1.5635,-1.542,-1.542,-1.5742,-1.6007,-1.5937,-1.6007,-1.6103,-1.6455,-1.688,-1.7095,-1.6773,-1.8065,-1.877,-1.8634,-1.9023,-1.9182,-1.9368,-1.9079,-1.8744,-1.8568,-1.8265,-1.8065,-1.802,-1.7405,-1.6893,-1.7061,-1.6946,-1.6828,-1.6647,-1.7523,-1.8145,-1.8085,-1.874,-1.9461,-1.9319,-1.976,-1.9957,-1.9561,-1.9435,-1.9329,-1.9055,-1.9315,-1.9725,-2.006,-2.0965,-2.1879,-2.2856,-2.3522,-2.423,-2.5102,-2.5455,-2.5412,0.1766,0.0068,0.0677,0.0541,-0.0068,-0.0068,-0.0067,-0.0067,-0.027,-0.0202,-0.0067,-0.0067,0.0,0.0,0.0202,0.0133,-0.0065,-0.1224,-0.184,-0.2043,-0.3237,-0.3829,-0.3807,-0.354,-0.3543,-0.3577,-0.3366,-0.3319,-0.3509,-0.3844,-0.4234,-0.4777,-0.5335,-0.5903,-0.6482,-0.6606,-0.6799,-0.7173,-0.7829,-0.8242,-0.8283,-0.8516,-0.8699,-0.8809,-0.978,-1.0744,-1.1796,-1.2341,-1.3006,-1.3821,-1.352,-1.3278,-1.3238,-1.3711,-1.3982,-1.4043,-1.5346,-1.5816,-1.5292,-1.572,-1.5673,-1.5096,-1.5234,-1.542,-1.542,-1.5469,-1.5498,-1.5508,-1.5527,-1.5518,-1.5586,-1.5752,-1.584,-1.5742,-1.6358,-1.6917,-1.749,-1.8024,-1.8545,-1.9005,-1.9048,-1.8565,-1.7811,-1.7541,-1.7207,-1.6712,-1.6544,-1.6306,-1.625,-1.6536,-1.6648,-1.641,-1.6857,-1.7363,-1.7624,-1.7869,-1.8342,-1.8567,-1.8835,-1.8851,-1.8426,-1.8361,-1.8303,-1.8281,-1.8496,-1.8939,-1.9485,-2.0788,-2.1537,-2.2035,-2.2802,-2.3668,-2.3981,-2.4166,-2.4365,0.2211,0.0806,0.1008,0.0673,0.0,0.0,0.0,0.0,-0.0066,-0.0066,0.0,0.0,0.0067,0.0135,0.0199,0.0065,-0.0257,-0.112,-0.1704,-0.2159,-0.3018,-0.3431,-0.3419,-0.3262,-0.3212,-0.3255,-0.3101,-0.31,-0.3184,-0.3271,-0.3651,-0.4237,-0.5021,-0.5707,-0.6276,-0.6404,-0.6551,-0.6755,-0.7432,-0.7842,-0.8051,-0.8287,-0.8381,-0.8428,-0.9599,-1.0483,-1.1014,-1.2004,-1.2795,-1.3363,-1.3164,-1.3045,-1.3055,-1.3462,-1.37,-1.3729,-1.4701,-1.5061,-1.4562,-1.4729,-1.4704,-1.4408,-1.4508,-1.4722,-1.484,-1.5177,-1.542,-1.542,-1.542,-1.542,-1.542,-1.5968,-1.6358,-1.6368,-1.7191,-1.7875,-1.8147,-1.8321,-1.856,-1.8815,-1.8641,-1.8175,-1.7373,-1.6824,-1.6484,-1.6105,-1.6188,-1.6181,-1.5863,-1.6112,-1.635,-1.6294,-1.682,-1.7394,-1.7639,-1.7649,-1.7758,-1.8017,-1.7896,-1.7577,-1.7127,-1.7026,-1.691,-1.6669,-1.7063,-1.7617,-1.8059,-1.9132,-2.0082,-2.0798,-2.1423,-2.2082,-2.2549,-2.2803,-2.3264,0.2813,0.1608,0.1678,0.1139,0.0333,0.0129,0.0065,0.0066,0.0065,0.0065,0.0066,0.0067,0.0134,0.0333,0.0324,0.0127,-0.0251,-0.0781,-0.1288,-0.1857,-0.2433,-0.274,-0.2896,-0.2806,-0.2867,-0.2956,-0.2847,-0.2837,-0.2918,-0.3013,-0.3416,-0.4176,-0.4905,-0.5572,-0.6142,-0.6233,-0.6325,-0.641,-0.6949,-0.7399,-0.7709,-0.79,-0.7999,-0.8105,-0.9188,-1.0026,-1.032,-1.1443,-1.2264,-1.2569,-1.2627,-1.2676,-1.2783,-1.3084,-1.3258,-1.3326,-1.3966,-1.4247,-1.3927,-1.3879,-1.3835,-1.3792,-1.3878,-1.4064,-1.4383,-1.4869,-1.5206,-1.5342,-1.5294,-1.5303,-1.542,-1.6093,-1.6754,-1.6933,-1.7875,-1.8317,-1.8502,-1.8555,-1.8507,-1.8377,-1.7938,-1.7369,-1.6681,-1.5942,-1.5488,-1.5599,-1.5948,-1.6061,-1.5834,-1.5868,-1.6017,-1.6099,-1.673,-1.7236,-1.7531,-1.7429,-1.7352,-1.7444,-1.7178,-1.6798,-1.635,-1.6124,-1.5946,-1.5739,-1.6084,-1.6683,-1.6876,-1.7825,-1.885,-1.9541,-2.0127,-2.0652,-2.123,-2.1444,-2.2015,0.382,0.2746,0.3218,0.2644,0.1096,0.0439,0.0187,0.0187,0.0186,0.0248,0.0376,0.0256,0.0324,0.0452,0.0628,0.0489,0.0298,-0.0118,-0.0463,-0.0677,-0.1176,-0.1733,-0.2227,-0.2103,-0.2336,-0.2887,-0.267,-0.2583,-0.2721,-0.3124,-0.3902,-0.4863,-0.5106,-0.5404,-0.5933,-0.6019,-0.6067,-0.6062,-0.6349,-0.6588,-0.6785,-0.6956,-0.7072,-0.7157,-0.7891,-0.8613,-0.926,-0.9875,-1.0728,-1.1601,-1.1751,-1.1968,-1.2431,-1.2567,-1.2586,-1.2615,-1.3023,-1.3233,-1.3204,-1.3195,-1.3195,-1.3223,-1.3527,-1.3908,-1.427,-1.444,-1.4697,-1.5013,-1.5059,-1.5059,-1.5205,-1.5274,-1.5553,-1.6084,-1.6669,-1.6994,-1.7209,-1.7583,-1.7741,-1.7293,-1.6751,-1.6114,-1.5219,-1.4642,-1.4385,-1.4599,-1.5233,-1.562,-1.552,-1.5623,-1.5721,-1.5556,-1.601,-1.6507,-1.6717,-1.6859,-1.6821,-1.6697,-1.6754,-1.658,-1.6268,-1.6206,-1.6226,-1.5947,-1.6126,-1.6542,-1.6923,-1.7613,-1.8326,-1.8641,-1.9168,-1.9737,-1.9997,-2.0194,-2.0853,0.4289,0.3473,0.3554,0.2702,0.1314,0.0608,0.0304,0.0308,0.0303,0.0425,0.0554,0.0491,0.0556,0.0628,0.067,0.0536,0.0294,0.0058,-0.0284,-0.0559,-0.0932,-0.1195,-0.1406,-0.164,-0.1896,-0.2185,-0.2266,-0.239,-0.247,-0.275,-0.3344,-0.418,-0.4268,-0.4748,-0.562,-0.5712,-0.5804,-0.6019,-0.6105,-0.6196,-0.6282,-0.6623,-0.6793,-0.6917,-0.7613,-0.8325,-0.8956,-0.9835,-1.0753,-1.1459,-1.146,-1.1534,-1.181,-1.1841,-1.1891,-1.1968,-1.2473,-1.2726,-1.2786,-1.2776,-1.2676,-1.2525,-1.2674,-1.2911,-1.3149,-1.3141,-1.336,-1.3904,-1.4354,-1.4582,-1.4457,-1.4603,-1.4969,-1.5558,-1.6138,-1.6488,-1.6531,-1.6683,-1.6594,-1.6115,-1.5542,-1.497,-1.4322,-1.3867,-1.3727,-1.3917,-1.4514,-1.4965,-1.5032,-1.4979,-1.5031,-1.5171,-1.5385,-1.5687,-1.6123,-1.6177,-1.6201,-1.6197,-1.6074,-1.5877,-1.6083,-1.6055,-1.6096,-1.6176,-1.6463,-1.6675,-1.6805,-1.7264,-1.7823,-1.8012,-1.8191,-1.8682,-1.9192,-1.9391,-2.0135,0.4758,0.4328,0.3675,0.2746,0.1637,0.0824,0.0471,0.048,0.047,0.059,0.0719,0.0764,0.0766,0.0779,0.0764,0.0639,0.052,0.0337,0.0111,-0.022,-0.032,-0.0472,-0.0678,-0.1131,-0.1428,-0.1657,-0.2016,-0.2243,-0.2324,-0.2413,-0.2815,-0.3476,-0.3653,-0.4224,-0.5096,-0.5318,-0.5545,-0.5717,-0.5847,-0.5933,-0.5927,-0.6282,-0.6538,-0.6649,-0.7321,-0.7989,-0.8524,-0.943,-1.0287,-1.0962,-1.0971,-1.098,-1.1096,-1.1323,-1.1534,-1.1651,-1.2026,-1.2274,-1.2274,-1.2274,-1.2184,-1.2026,-1.1977,-1.2099,-1.2235,-1.229,-1.2467,-1.2887,-1.3561,-1.3881,-1.3994,-1.4271,-1.4778,-1.5401,-1.5824,-1.5932,-1.5975,-1.58,-1.5406,-1.4917,-1.4363,-1.3906,-1.3458,-1.3165,-1.3077,-1.3454,-1.3946,-1.4305,-1.4372,-1.4275,-1.4333,-1.4611,-1.453,-1.4853,-1.5608,-1.5792,-1.5707,-1.567,-1.5511,-1.558,-1.5809,-1.5894,-1.6157,-1.6512,-1.6738,-1.6968,-1.7126,-1.7377,-1.7559,-1.7629,-1.7833,-1.8138,-1.8626,-1.8819,-1.9521,0.5359,0.5114,0.3726,0.2909,0.2523,0.1255,0.0675,0.0681,0.0676,0.0732,0.0849,0.0902,0.0901,0.0849,0.0847,0.0957,0.1008,0.0926,0.0913,0.0907,0.0825,0.0506,-0.0151,-0.0533,-0.1046,-0.1607,-0.2012,-0.2241,-0.2279,-0.2324,-0.2635,-0.3214,-0.352,-0.3957,-0.4522,-0.5014,-0.5203,-0.5159,-0.5539,-0.5707,-0.5577,-0.5847,-0.6153,-0.6349,-0.683,-0.7314,-0.7795,-0.8126,-0.8764,-0.9752,-1.0153,-1.0343,-1.0416,-1.1169,-1.1619,-1.1669,-1.1728,-1.1778,-1.1778,-1.1778,-1.1728,-1.1678,-1.1678,-1.1837,-1.2061,-1.2123,-1.2193,-1.2307,-1.2745,-1.3242,-1.3879,-1.4123,-1.4634,-1.5356,-1.5224,-1.5067,-1.512,-1.4683,-1.4235,-1.3719,-1.3271,-1.2846,-1.2383,-1.2257,-1.2599,-1.3103,-1.343,-1.3604,-1.3667,-1.3815,-1.3786,-1.3604,-1.3672,-1.4004,-1.4917,-1.5229,-1.5277,-1.5387,-1.5475,-1.5551,-1.5796,-1.6077,-1.647,-1.6809,-1.701,-1.7248,-1.7479,-1.7641,-1.7755,-1.7861,-1.8048,-1.8327,-1.8478,-1.847,-1.912,0.4903,0.4373,0.3045,0.2332,0.205,0.1183,0.0841,0.0841,0.0841,0.0841,0.0897,0.0897,0.0673,0.0336,0.0729,0.0954,0.1064,0.0996,0.098,0.1064,0.0923,0.0547,-0.0048,-0.0513,-0.0962,-0.1462,-0.1943,-0.2199,-0.2241,-0.2241,-0.2551,-0.3126,-0.3303,-0.3741,-0.4439,-0.4748,-0.4888,-0.5029,-0.5198,-0.5241,-0.5198,-0.5323,-0.5496,-0.5588,-0.6055,-0.6581,-0.7095,-0.7647,-0.8258,-0.8834,-0.9313,-0.9573,-0.9774,-1.0464,-1.0897,-1.104,-1.1451,-1.1628,-1.1469,-1.1569,-1.1528,-1.1124,-1.1226,-1.1268,-1.1199,-1.1129,-1.1284,-1.1635,-1.2067,-1.2645,-1.3292,-1.3461,-1.3671,-1.4143,-1.3931,-1.3718,-1.3586,-1.3292,-1.2843,-1.2385,-1.2106,-1.1976,-1.2,-1.1993,-1.2171,-1.2516,-1.2805,-1.2975,-1.3035,-1.3202,-1.3293,-1.3386,-1.3594,-1.398,-1.4452,-1.4664,-1.4814,-1.525,-1.5507,-1.595,-1.6254,-1.6602,-1.6986,-1.7272,-1.7415,-1.7509,-1.7755,-1.7888,-1.7975,-1.8163,-1.8342,-1.8406,-1.8467,-1.8642,-1.9165,0.4417,0.3764,0.2609,0.1943,0.1738,0.1176,0.0897,0.0897,0.0897,0.0897,0.0841,0.0729,0.039,0.0111,0.0223,0.0389,0.0551,0.0763,0.0964,0.1044,0.0896,0.0527,0.0,-0.0499,-0.094,-0.1435,-0.193,-0.2201,-0.2201,-0.2201,-0.2422,-0.2862,-0.3081,-0.352,-0.4092,-0.4443,-0.4666,-0.4762,-0.4902,-0.4937,-0.4893,-0.4975,-0.5062,-0.5149,-0.5626,-0.6099,-0.6465,-0.7171,-0.7671,-0.8077,-0.8638,-0.913,-0.9527,-0.9913,-1.0293,-1.0584,-1.0998,-1.1217,-1.1074,-1.1226,-1.1124,-1.0726,-1.0769,-1.0769,-1.047,-1.0616,-1.0913,-1.1267,-1.19,-1.2482,-1.2832,-1.3017,-1.3248,-1.3622,-1.3265,-1.2869,-1.2827,-1.2334,-1.1877,-1.161,-1.156,-1.1601,-1.17,-1.1726,-1.1884,-1.2066,-1.2246,-1.2365,-1.2591,-1.2697,-1.2826,-1.3173,-1.3602,-1.3986,-1.4443,-1.4756,-1.5051,-1.5463,-1.5809,-1.6282,-1.6706,-1.706,-1.7392,-1.7658,-1.7816,-1.7883,-1.7992,-1.8142,-1.8287,-1.8448,-1.8584,-1.8678,-1.8771,-1.8929,-1.9385,0.3925,0.3536,0.2466,0.1852,0.1626,0.112,0.0897,0.0897,0.0897,0.0897,0.0841,0.0336,0.0055,-0.0054,-0.0495,-0.0768,-0.0534,0.0311,0.0764,0.0806,0.0802,0.0409,-0.0135,-0.0583,-0.103,-0.1479,-0.193,-0.2201,-0.2156,-0.2201,-0.2245,-0.2375,-0.2907,-0.3258,-0.3258,-0.4136,-0.4491,-0.4451,-0.4723,-0.4806,-0.4661,-0.4801,-0.4898,-0.4985,-0.542,-0.5755,-0.5996,-0.6653,-0.7139,-0.7405,-0.8128,-0.8965,-0.9481,-0.9681,-0.9873,-1.0308,-1.0522,-1.0522,-1.0514,-1.0522,-1.0565,-1.036,-1.047,-1.036,-1.0249,-1.0659,-1.1015,-1.1116,-1.1819,-1.2569,-1.2657,-1.289,-1.3362,-1.4089,-1.3322,-1.2733,-1.2551,-1.1855,-1.1228,-1.1282,-1.1367,-1.1468,-1.1468,-1.1479,-1.159,-1.1763,-1.1799,-1.1872,-1.2246,-1.2401,-1.2556,-1.2873,-1.3591,-1.4324,-1.4669,-1.4989,-1.5389,-1.5794,-1.6145,-1.6538,-1.701,-1.7392,-1.767,-1.791,-1.8103,-1.8187,-1.8373,-1.8508,-1.8567,-1.8734,-1.8825,-1.8964,-1.9095,-1.9234,-1.9421,0.3082,0.2585,0.1824,0.1329,0.118,0.0953,0.0897,0.0897,0.0897,0.0897,0.0782,0.0328,-0.0161,-0.0481,-0.0755,-0.1021,-0.1325,-0.0615,-0.0252,-0.025,-0.0191,-0.0413,-0.0899,-0.112,-0.1344,-0.166,-0.202,-0.2111,-0.1975,-0.2111,-0.2288,-0.2598,-0.286,-0.3211,-0.348,-0.3917,-0.41,-0.4192,-0.4284,-0.428,-0.414,-0.428,-0.4372,-0.446,-0.498,-0.5318,-0.5351,-0.6349,-0.6907,-0.7027,-0.7722,-0.8254,-0.865,-0.9336,-0.9666,-0.9681,-1.0051,-1.0198,-1.0035,-1.0079,-0.9984,-0.9725,-0.9784,-0.9732,-0.9569,-0.9777,-1.0087,-1.0285,-1.0787,-1.1233,-1.1931,-1.2267,-1.2745,-1.3494,-1.2758,-1.2191,-1.2047,-1.1426,-1.0999,-1.0964,-1.105,-1.1136,-1.125,-1.1228,-1.1244,-1.1431,-1.1505,-1.1579,-1.1689,-1.2029,-1.2282,-1.2532,-1.3634,-1.4604,-1.4882,-1.5647,-1.6594,-1.6687,-1.6821,-1.6969,-1.7375,-1.7726,-1.7971,-1.8191,-1.8391,-1.8566,-1.8734,-1.886,-1.8946,-1.9044,-1.9204,-1.931,-1.9397,-1.9556,-1.9715,0.2711,0.2137,0.1504,0.1136,0.0992,0.0991,0.0928,0.0865,0.0864,0.087,0.0765,0.0323,-0.0107,-0.048,-0.0701,-0.1129,-0.1589,-0.123,-0.121,-0.1248,-0.0857,-0.0917,-0.1257,-0.1344,-0.1479,-0.1658,-0.1839,-0.1794,-0.166,-0.1928,-0.2107,-0.2237,-0.2724,-0.3078,-0.3347,-0.3704,-0.3928,-0.402,-0.402,-0.3972,-0.3928,-0.3972,-0.402,-0.4148,-0.4753,-0.514,-0.5178,-0.6221,-0.6787,-0.6826,-0.7409,-0.7859,-0.8049,-0.8848,-0.9336,-0.9211,-0.9511,-0.9725,-0.9614,-0.9666,-0.9562,-0.9316,-0.9361,-0.9361,-0.9204,-0.9256,-0.9666,-0.9814,-1.0474,-1.0973,-1.1575,-1.203,-1.2327,-1.2645,-1.2163,-1.1575,-1.1281,-1.0934,-1.0738,-1.0697,-1.0784,-1.0871,-1.0937,-1.0888,-1.0905,-1.1105,-1.1094,-1.1169,-1.1244,-1.1457,-1.1641,-1.2232,-1.3569,-1.4373,-1.4958,-1.6165,-1.7682,-1.7754,-1.7653,-1.7687,-1.7854,-1.813,-1.8391,-1.8641,-1.8843,-1.8981,-1.9148,-1.9265,-1.9364,-1.9476,-1.9529,-1.9637,-1.9722,-1.9869,-2.0016,0.274,0.2122,0.1566,0.1207,0.1117,0.1062,0.0993,0.0813,0.081,0.0829,0.0743,0.0265,0.0053,-0.0054,-0.06,-0.1141,-0.1537,-0.1538,-0.1665,-0.1778,-0.1313,-0.0988,-0.1165,-0.1344,-0.1389,-0.1389,-0.1435,-0.1435,-0.1435,-0.1705,-0.1658,-0.1657,-0.2457,-0.2901,-0.2907,-0.348,-0.3796,-0.388,-0.3884,-0.3884,-0.3836,-0.3884,-0.3928,-0.3968,-0.4792,-0.5265,-0.5443,-0.6184,-0.6575,-0.6502,-0.7227,-0.767,-0.7813,-0.8359,-0.8778,-0.8742,-0.9015,-0.9179,-0.9169,-0.9197,-0.9211,-0.9166,-0.9166,-0.9093,-0.8999,-0.9372,-0.9621,-0.9636,-1.0503,-1.1249,-1.1358,-1.1729,-1.1955,-1.1817,-1.1477,-1.0983,-1.0281,-1.0409,-1.0477,-1.0467,-1.0582,-1.0746,-1.0621,-1.0505,-1.0534,-1.0687,-1.0572,-1.0601,-1.084,-1.0905,-1.0743,-1.1748,-1.324,-1.4424,-1.5089,-1.7265,-1.8645,-1.8663,-1.8518,-1.8427,-1.8364,-1.8565,-1.8786,-1.9018,-1.923,-1.9368,-1.9476,-1.9574,-1.9638,-1.967,-1.9787,-1.9907,-2.003,-2.0137,-2.0231,0.2705,0.1675,0.1513,0.1322,0.1179,0.1074,0.1018,0.0958,0.0857,0.0823,0.079,0.031,0.0104,0.0,-0.0537,-0.0911,-0.1056,-0.1334,-0.1564,-0.1695,-0.1628,-0.1393,-0.1344,-0.1344,-0.1299,-0.121,-0.13,-0.1389,-0.1435,-0.1658,-0.1749,-0.1705,-0.2101,-0.2502,-0.2729,-0.2951,-0.3303,-0.3656,-0.3711,-0.3619,-0.3571,-0.3619,-0.3796,-0.4092,-0.4705,-0.5231,-0.5583,-0.6153,-0.6581,-0.6764,-0.7139,-0.7437,-0.756,-0.797,-0.8222,-0.8276,-0.8565,-0.8744,-0.8786,-0.8847,-0.8903,-0.891,-0.8883,-0.8815,-0.8599,-0.8933,-0.9177,-0.922,-0.9627,-1.0069,-1.0521,-1.0631,-1.0565,-1.0489,-1.0628,-1.0548,-1.0202,-1.0118,-1.0235,-1.0196,-1.0351,-1.039,-1.0341,-1.0099,-0.9972,-1.0225,-1.0147,-0.9991,-1.0215,-1.0389,-1.0253,-1.1344,-1.2726,-1.4171,-1.5743,-1.8061,-1.9387,-1.9467,-1.9339,-1.915,-1.906,-1.9026,-1.9212,-1.9383,-1.9499,-1.9641,-1.9713,-1.9787,-1.9824,-1.9901,-2.0067,-2.0218,-2.025,-2.0328,-2.0371,0.2753,0.1824,0.1616,0.1428,0.1237,0.1151,0.1041,0.0973,0.0847,0.0765,0.0725,0.0467,0.0316,0.0326,0.0,-0.027,-0.0477,-0.0923,-0.1301,-0.1561,-0.1569,-0.1482,-0.1299,-0.1166,-0.1032,-0.0942,-0.1033,-0.1166,-0.1299,-0.1524,-0.1614,-0.1658,-0.1967,-0.2277,-0.2593,-0.2726,-0.3037,-0.348,-0.3534,-0.3442,-0.335,-0.3398,-0.3483,-0.3829,-0.4439,-0.5101,-0.5761,-0.611,-0.6404,-0.6642,-0.6755,-0.6799,-0.6956,-0.7335,-0.753,-0.7603,-0.8116,-0.8527,-0.8575,-0.8689,-0.8791,-0.8718,-0.8652,-0.8441,-0.8333,-0.8461,-0.8609,-0.8456,-0.8892,-0.9376,-0.9647,-0.9692,-0.9645,-0.9692,-0.973,-0.979,-0.9783,-0.9892,-0.9971,-0.9971,-0.9971,-0.9961,-0.9981,-0.9549,-0.943,-0.9509,-0.939,-0.935,-0.9469,-0.963,-1.018,-1.1242,-1.2796,-1.4442,-1.624,-1.8456,-1.9738,-1.9916,-1.9896,-1.9739,-1.9578,-1.9449,-1.9564,-1.9686,-1.9807,-1.99,-1.9954,-2.0027,-2.0119,-2.0237,-2.0385,-2.0443,-2.0452,-2.0439,-2.0494,0.2835,0.2278,0.1828,0.1489,0.131,0.1243,0.1077,0.0936,0.0836,0.0709,0.0615,0.0578,0.054,0.0673,0.0445,0.0331,-0.0107,-0.0566,-0.1087,-0.1436,-0.1523,-0.1362,-0.1135,-0.09,-0.0809,-0.0808,-0.0764,-0.0988,-0.1256,-0.1435,-0.1435,-0.1567,-0.1878,-0.219,-0.246,-0.2679,-0.299,-0.335,-0.3398,-0.3306,-0.3214,-0.3214,-0.3258,-0.352,-0.4136,-0.4971,-0.5583,-0.589,-0.6013,-0.6441,-0.6167,-0.6202,-0.6318,-0.6591,-0.6765,-0.7024,-0.7739,-0.8333,-0.8407,-0.8544,-0.8712,-0.8567,-0.8338,-0.8143,-0.8035,-0.8125,-0.8118,-0.8058,-0.8727,-0.899,-0.9013,-0.9088,-0.9147,-0.9164,-0.8898,-0.896,-0.9279,-0.9576,-0.9704,-0.9695,-0.9527,-0.9448,-0.9279,-0.899,-0.8667,-0.8901,-0.874,-0.865,-0.8691,-0.8804,-0.9718,-1.1075,-1.2892,-1.4968,-1.6845,-1.8818,-1.9687,-2.0257,-2.0222,-2.0096,-1.9909,-1.9821,-1.9896,-1.9979,-2.0021,-2.0099,-2.0173,-2.0263,-2.0366,-2.0418,-2.0483,-2.0547,-2.0579,-2.0549,-2.0578,0.2942,0.2366,0.1896,0.1548,0.1352,0.1256,0.11,0.0936,0.0751,0.0617,0.0577,0.0478,0.0435,0.0505,0.0449,0.0223,-0.0109,-0.0571,-0.1187,-0.1767,-0.1657,-0.1412,-0.1167,-0.087,-0.0856,-0.0945,-0.1032,-0.1256,-0.1526,-0.1663,-0.1705,-0.1748,-0.1657,-0.188,-0.2415,-0.2366,-0.2632,-0.3217,-0.3306,-0.317,-0.3081,-0.3078,-0.3211,-0.3517,-0.4049,-0.4622,-0.5145,-0.5231,-0.5491,-0.597,-0.6245,-0.6257,-0.6294,-0.6588,-0.673,-0.6774,-0.7418,-0.7988,-0.8041,-0.8224,-0.8397,-0.8482,-0.8067,-0.7768,-0.7904,-0.7748,-0.7893,-0.8115,-0.8345,-0.8424,-0.8527,-0.8593,-0.8598,-0.8522,-0.8445,-0.8332,-0.8496,-0.8773,-0.9016,-0.9096,-0.8967,-0.8886,-0.8837,-0.83,-0.8136,-0.8259,-0.817,-0.799,-0.8008,-0.8115,-0.9692,-1.1361,-1.3404,-1.5576,-1.7576,-1.9198,-1.9876,-2.0399,-2.0383,-2.0355,-2.0157,-1.9941,-1.993,-2.0058,-2.0217,-2.0288,-2.0338,-2.0392,-2.0447,-2.05,-2.0544,-2.0585,-2.0605,-2.0605,-2.0605,0.3414,0.3056,0.2282,0.1899,0.1773,0.1334,0.1025,0.0916,0.0734,0.0584,0.0427,0.0325,0.0331,0.0336,0.0392,0.0278,0.0054,-0.057,-0.0998,-0.1326,-0.142,-0.1371,-0.1068,-0.0944,-0.1016,-0.1151,-0.1082,-0.1357,-0.1693,-0.1813,-0.1884,-0.193,-0.1614,-0.1744,-0.2235,-0.2142,-0.2368,-0.286,-0.3126,-0.3126,-0.2996,-0.2951,-0.3167,-0.352,-0.3829,-0.4224,-0.4666,-0.4923,-0.5281,-0.5793,-0.6228,-0.6351,-0.6208,-0.6441,-0.6569,-0.6711,-0.7262,-0.7846,-0.799,-0.8065,-0.812,-0.81,-0.7614,-0.7361,-0.7345,-0.7238,-0.7368,-0.7644,-0.7713,-0.7831,-0.796,-0.796,-0.7935,-0.7903,-0.7878,-0.7836,-0.7961,-0.8201,-0.8398,-0.8431,-0.8267,-0.8136,-0.7923,-0.769,-0.7474,-0.7516,-0.7697,-0.7543,-0.8,-0.84,-1.0444,-1.2246,-1.4221,-1.6253,-1.8289,-1.9585,-2.0165,-2.0448,-2.0449,-2.0406,-2.0298,-2.006,-1.985,-2.0048,-2.0269,-2.0373,-2.041,-2.0488,-2.0508,-2.0526,-2.0542,-2.058,-2.0601,-2.0602,-2.0605,0.3865,0.3827,0.2813,0.2405,0.2263,0.1535,0.111,0.0937,0.071,0.0495,0.0217,0.0166,0.0168,0.0168,0.0336,0.044,0.0214,-0.0367,-0.0876,-0.0916,-0.1271,-0.122,-0.1008,-0.108,-0.1257,-0.13,-0.1301,-0.1578,-0.1867,-0.1937,-0.2041,-0.207,-0.1658,-0.17,-0.201,-0.2142,-0.2277,-0.2637,-0.3037,-0.3126,-0.2954,-0.2912,-0.3096,-0.3356,-0.353,-0.3813,-0.4229,-0.4587,-0.502,-0.5574,-0.6195,-0.6276,-0.6146,-0.6395,-0.658,-0.6887,-0.7459,-0.7791,-0.7909,-0.7942,-0.7816,-0.7607,-0.7176,-0.6951,-0.6862,-0.6846,-0.6943,-0.7075,-0.7269,-0.7447,-0.744,-0.7433,-0.7447,-0.7433,-0.7419,-0.7412,-0.7538,-0.7739,-0.778,-0.7897,-0.7731,-0.7558,-0.7482,-0.728,-0.7027,-0.6816,-0.6992,-0.7176,-0.7566,-0.8469,-1.0202,-1.2104,-1.3856,-1.6642,-1.8846,-1.9706,-2.0316,-2.0324,-2.035,-2.0231,-2.0222,-2.019,-2.0019,-2.0136,-2.0312,-2.0341,-2.0393,-2.0492,-2.051,-2.0499,-2.0547,-2.0594,-2.0596,-2.0596,-2.0602,0.3797,0.3787,0.3187,0.2914,0.2695,0.2103,0.1656,0.1378,0.0779,0.0335,0.0223,0.0112,0.0056,0.0112,0.0168,0.0165,0.0054,-0.0431,-0.0754,-0.0741,-0.1003,-0.1056,-0.1154,-0.1273,-0.1573,-0.1887,-0.1862,-0.1947,-0.2142,-0.2217,-0.2165,-0.2078,-0.1658,-0.1655,-0.1921,-0.2142,-0.2277,-0.2593,-0.2993,-0.3126,-0.2993,-0.2926,-0.297,-0.3181,-0.3256,-0.3504,-0.3817,-0.4073,-0.439,-0.5088,-0.5823,-0.5995,-0.616,-0.686,-0.7173,-0.7145,-0.748,-0.7772,-0.7828,-0.7652,-0.7665,-0.7528,-0.7104,-0.6964,-0.691,-0.6778,-0.6759,-0.6969,-0.7125,-0.7341,-0.7669,-0.7332,-0.726,-0.7328,-0.7254,-0.7034,-0.7034,-0.7034,-0.7196,-0.7482,-0.7273,-0.707,-0.6985,-0.6923,-0.6765,-0.6645,-0.6706,-0.6504,-0.6437,-0.756,-0.914,-1.1078,-1.3071,-1.6272,-1.9386,-1.9842,-2.0258,-2.0099,-2.0001,-1.9726,-1.9802,-2.0133,-2.0208,-1.9818,-1.987,-2.0016,-2.0146,-2.0422,-2.0509,-2.0514,-2.0545,-2.0593,-2.0591,-2.057,-2.0568,0.429,0.4187,0.3685,0.3408,0.3241,0.2625,0.2068,0.1566,0.1175,0.0728,0.0393,0.0224,0.0224,0.028,0.0393,0.0444,0.0276,-0.0166,-0.0333,-0.0328,-0.0765,-0.1039,-0.1197,-0.1476,-0.1862,-0.2124,-0.2143,-0.2203,-0.2346,-0.2299,-0.2191,-0.1947,-0.1569,-0.1477,-0.1654,-0.1921,-0.2144,-0.246,-0.286,-0.3123,-0.3001,-0.2959,-0.2952,-0.3011,-0.3107,-0.331,-0.3515,-0.3913,-0.43,-0.4859,-0.5595,-0.6111,-0.6625,-0.7053,-0.7472,-0.725,-0.7321,-0.7566,-0.7632,-0.7499,-0.7303,-0.7292,-0.6917,-0.6884,-0.6933,-0.6754,-0.66,-0.6749,-0.6885,-0.7009,-0.7171,-0.7128,-0.7092,-0.7102,-0.7042,-0.694,-0.68,-0.6636,-0.6787,-0.707,-0.6865,-0.6696,-0.6605,-0.6573,-0.651,-0.6475,-0.6529,-0.6249,-0.5871,-0.7663,-0.955,-1.1449,-1.3744,-1.6452,-1.9047,-1.9336,-1.9676,-1.9593,-1.9449,-1.9162,-1.8981,-1.9093,-1.9026,-1.8765,-1.9007,-1.953,-2.0095,-2.0437,-2.0474,-2.0489,-2.0531,-2.0555,-2.0543,-2.0543,-2.0519,0.4632,0.4632,0.4128,0.3962,0.3796,0.3181,0.2567,0.2012,0.1679,0.1175,0.0616,0.0449,0.0393,0.0449,0.0561,0.0728,0.0841,0.0336,0.0336,0.0224,-0.039,-0.0839,-0.1109,-0.1524,-0.1986,-0.2322,-0.2334,-0.2419,-0.2391,-0.2323,-0.2096,-0.1858,-0.1524,-0.1299,-0.1298,-0.1654,-0.1878,-0.2233,-0.2635,-0.299,-0.2979,-0.3001,-0.3035,-0.3053,-0.3163,-0.3251,-0.3422,-0.3731,-0.4082,-0.4561,-0.5238,-0.5976,-0.6758,-0.7117,-0.7248,-0.72,-0.6954,-0.7285,-0.7448,-0.7372,-0.7062,-0.6974,-0.6744,-0.6679,-0.671,-0.6544,-0.651,-0.6516,-0.6805,-0.6982,-0.7173,-0.7058,-0.7048,-0.6976,-0.6956,-0.6888,-0.6656,-0.6471,-0.6325,-0.6447,-0.6404,-0.652,-0.6634,-0.6537,-0.6529,-0.6973,-0.7044,-0.7229,-0.7231,-0.9445,-1.1304,-1.2842,-1.484,-1.7123,-1.8589,-1.8563,-1.8742,-1.8701,-1.8501,-1.8267,-1.7986,-1.7823,-1.7758,-1.7871,-1.8554,-1.9128,-1.9779,-2.0281,-2.0207,-2.0218,-2.0412,-2.051,-2.049,-2.0471,-2.0467,0.4519,0.4519,0.446,0.4405,0.4298,0.3738,0.34,0.3012,0.2122,0.1454,0.1119,0.0672,0.0449,0.0505,0.0617,0.0785,0.0841,0.0781,0.0669,0.0557,0.0111,-0.0498,-0.0887,-0.1135,-0.1912,-0.2338,-0.2409,-0.2425,-0.2339,-0.2315,-0.2096,-0.1763,-0.1524,-0.1299,-0.112,-0.1477,-0.1654,-0.2055,-0.2457,-0.2732,-0.2911,-0.2944,-0.3076,-0.3153,-0.3282,-0.3395,-0.3493,-0.365,-0.3845,-0.4072,-0.4692,-0.5148,-0.555,-0.6095,-0.6637,-0.7101,-0.7427,-0.7706,-0.7509,-0.7143,-0.6844,-0.6673,-0.6468,-0.624,-0.6309,-0.6471,-0.6549,-0.6586,-0.7019,-0.7345,-0.7386,-0.7309,-0.7263,-0.7077,-0.6908,-0.6672,-0.6472,-0.6361,-0.6209,-0.6226,-0.6324,-0.6647,-0.6904,-0.6729,-0.6678,-0.7187,-0.7613,-0.7738,-0.8486,-1.0387,-1.2651,-1.4126,-1.4996,-1.709,-1.7804,-1.7819,-1.7826,-1.778,-1.7478,-1.7289,-1.7234,-1.7029,-1.6951,-1.7194,-1.7837,-1.8479,-1.907,-1.9459,-1.9702,-2.0056,-2.0363,-2.0428,-2.043,-2.0415,-2.0405,0.4463,0.4463,0.4463,0.4463,0.4463,0.4236,0.3904,0.3458,0.2956,0.2289,0.1677,0.1343,0.1008,0.0785,0.0785,0.0841,0.0894,0.0879,0.0708,0.0433,0.0,-0.0583,-0.121,-0.1665,-0.2219,-0.2301,-0.2395,-0.2242,-0.2227,-0.2205,-0.2052,-0.1623,-0.1479,-0.1211,-0.0987,-0.1478,-0.1789,-0.2144,-0.2504,-0.2855,-0.2946,-0.2985,-0.3054,-0.3216,-0.3328,-0.34,-0.3527,-0.3691,-0.3965,-0.4236,-0.4625,-0.4901,-0.5441,-0.571,-0.5819,-0.6317,-0.6593,-0.6869,-0.709,-0.6874,-0.6652,-0.648,-0.6303,-0.6313,-0.6401,-0.6593,-0.68,-0.7002,-0.7194,-0.7382,-0.7413,-0.7267,-0.7162,-0.699,-0.6878,-0.6758,-0.652,-0.6259,-0.6203,-0.6217,-0.6249,-0.65,-0.6654,-0.6578,-0.6316,-0.6357,-0.7059,-0.7635,-0.8615,-1.0296,-1.271,-1.5192,-1.5845,-1.667,-1.6837,-1.6856,-1.69,-1.6766,-1.6239,-1.6173,-1.6464,-1.6413,-1.6272,-1.6073,-1.6258,-1.7045,-1.8095,-1.8847,-1.9313,-1.9828,-2.0362,-2.0366,-2.0349,-2.0352,-2.0344,0.4901,0.4897,0.4629,0.4463,0.4463,0.4463,0.4236,0.3849,0.3624,0.307,0.2347,0.1902,0.1456,0.1006,0.0889,0.0883,0.0883,0.0855,0.0632,0.0208,-0.0308,-0.0761,-0.1214,-0.1758,-0.2036,-0.2282,-0.2055,-0.1926,-0.1874,-0.1866,-0.1745,-0.1344,-0.1299,-0.1076,-0.0988,-0.1211,-0.1611,-0.2012,-0.2632,-0.2945,-0.2949,-0.2947,-0.3003,-0.3104,-0.3214,-0.3302,-0.3413,-0.3577,-0.4018,-0.4239,-0.4242,-0.4622,-0.5487,-0.5601,-0.5769,-0.6159,-0.6495,-0.6445,-0.6554,-0.644,-0.6327,-0.6213,-0.615,-0.6206,-0.6408,-0.6706,-0.7035,-0.7174,-0.7362,-0.7288,-0.7203,-0.7264,-0.7162,-0.7076,-0.6919,-0.6844,-0.6718,-0.6449,-0.6096,-0.5924,-0.5956,-0.5949,-0.6138,-0.6222,-0.6076,-0.5744,-0.6349,-0.752,-0.9322,-1.1256,-1.2861,-1.542,-1.5553,-1.59,-1.5919,-1.5936,-1.5961,-1.591,-1.5392,-1.5266,-1.5658,-1.5668,-1.5471,-1.5242,-1.5165,-1.5939,-1.717,-1.8076,-1.8995,-1.9716,-2.0295,-2.0276,-2.0283,-2.0283,-2.0295,0.61,0.5991,0.4952,0.4515,0.4515,0.4463,0.4463,0.4294,0.3849,0.3569,0.3181,0.2341,0.1448,0.1055,0.0922,0.0909,0.0907,0.0823,0.0711,0.0556,0.0252,-0.0398,-0.0936,-0.1259,-0.148,-0.1854,-0.1758,-0.159,-0.1443,-0.15,-0.1353,-0.112,-0.1165,-0.0987,-0.0853,-0.0942,-0.1345,-0.1791,-0.2499,-0.2826,-0.2825,-0.2848,-0.2871,-0.2982,-0.3021,-0.3081,-0.3357,-0.3466,-0.3691,-0.3968,-0.391,-0.4346,-0.5214,-0.5328,-0.5555,-0.5996,-0.6164,-0.6114,-0.595,-0.5955,-0.59,-0.59,-0.5946,-0.6041,-0.625,-0.687,-0.7127,-0.7225,-0.7471,-0.7617,-0.7547,-0.7441,-0.7285,-0.7302,-0.7214,-0.7039,-0.6862,-0.6569,-0.6225,-0.5815,-0.575,-0.5937,-0.5817,-0.5991,-0.5824,-0.5529,-0.808,-0.9345,-1.1714,-1.3528,-1.3887,-1.5006,-1.4947,-1.5028,-1.5001,-1.5103,-1.5345,-1.5418,-1.5131,-1.4982,-1.5077,-1.4965,-1.5011,-1.4996,-1.5061,-1.564,-1.6216,-1.7152,-1.8246,-1.9576,-2.0234,-2.0241,-2.0275,-2.0294,-2.0294,0.6209,0.6154,0.5719,0.5336,0.4952,0.5007,0.4787,0.4515,0.4239,0.3904,0.3511,0.2353,0.1626,0.1345,0.0945,0.0825,0.082,0.0794,0.0636,0.0338,0.0048,-0.0471,-0.0885,-0.1116,-0.1329,-0.1649,-0.1533,-0.1344,-0.1256,-0.121,-0.1032,-0.0942,-0.1031,-0.0897,-0.0808,-0.0852,-0.1166,-0.1523,-0.2107,-0.2433,-0.2472,-0.2616,-0.2707,-0.2736,-0.2844,-0.2925,-0.315,-0.3327,-0.3732,-0.4015,-0.3904,-0.4346,-0.4838,-0.4787,-0.4956,-0.534,-0.5504,-0.5449,-0.5513,-0.5572,-0.585,-0.5896,-0.5891,-0.5996,-0.6376,-0.7025,-0.7354,-0.7503,-0.7616,-0.7723,-0.7937,-0.761,-0.7368,-0.761,-0.7558,-0.7344,-0.7104,-0.6809,-0.6527,-0.6238,-0.6149,-0.6168,-0.5959,-0.5776,-0.5571,-0.5564,-0.8529,-1.1248,-1.3168,-1.4755,-1.4814,-1.4841,-1.4794,-1.4776,-1.4794,-1.4813,-1.486,-1.4868,-1.4876,-1.4859,-1.4841,-1.4894,-1.4936,-1.4892,-1.4959,-1.5418,-1.5904,-1.6437,-1.7524,-1.9038,-1.9868,-2.0241,-2.0265,-2.0254,-2.0235,0.6696,0.6696,0.6696,0.6154,0.5332,0.5332,0.5011,0.457,0.446,0.4184,0.3561,0.2591,0.2071,0.1839,0.1317,0.1042,0.0982,0.0862,0.0565,0.0325,0.0091,-0.0359,-0.0672,-0.0897,-0.09,-0.1299,-0.1211,-0.0941,-0.0987,-0.0987,-0.0898,-0.0854,-0.0853,-0.0808,-0.0808,-0.0941,-0.1165,-0.1343,-0.1615,-0.1851,-0.1907,-0.1989,-0.2205,-0.223,-0.236,-0.2663,-0.2901,-0.3174,-0.3558,-0.3851,-0.3984,-0.4122,-0.4349,-0.4405,-0.4242,-0.4408,-0.4625,-0.4787,-0.5069,-0.5293,-0.5681,-0.5786,-0.5946,-0.6376,-0.6972,-0.73,-0.7574,-0.7735,-0.7783,-0.7783,-0.8109,-0.7759,-0.7706,-0.7919,-0.7913,-0.7745,-0.7455,-0.7188,-0.6997,-0.6717,-0.6544,-0.6235,-0.6532,-0.6471,-0.6875,-0.687,-0.8477,-1.0872,-1.2562,-1.3942,-1.4738,-1.4738,-1.4728,-1.4747,-1.4774,-1.4794,-1.4803,-1.4811,-1.4812,-1.4765,-1.4765,-1.4823,-1.4813,-1.4766,-1.4897,-1.5188,-1.5572,-1.6003,-1.7195,-1.86,-1.9334,-2.004,-2.0049,-2.004,-2.006,0.7794,0.7848,0.7794,0.6853,0.5479,0.5332,0.4999,0.4597,0.4481,0.42,0.3681,0.3311,0.2949,0.2439,0.1811,0.1481,0.128,0.0968,0.0771,0.0679,0.0361,0.0179,0.0089,-0.0089,-0.0358,-0.0447,-0.0403,-0.0449,-0.0629,-0.0584,-0.0584,-0.0629,-0.0584,-0.0674,-0.0719,-0.0942,-0.103,-0.0985,-0.1164,-0.1303,-0.1271,-0.1303,-0.1511,-0.1675,-0.1878,-0.2267,-0.2642,-0.2975,-0.329,-0.3514,-0.361,-0.3911,-0.4382,-0.4522,-0.4703,-0.5265,-0.5437,-0.5445,-0.5352,-0.5183,-0.5403,-0.5782,-0.6055,-0.6539,-0.7085,-0.7521,-0.7794,-0.7901,-0.7681,-0.7788,-0.7871,-0.7941,-0.8053,-0.8171,-0.8165,-0.8061,-0.7804,-0.7603,-0.7384,-0.6994,-0.6473,-0.6201,-0.676,-0.7291,-0.8096,-0.8608,-0.9242,-1.0684,-1.2617,-1.3694,-1.4794,-1.4658,-1.4658,-1.4687,-1.4705,-1.4744,-1.4753,-1.4759,-1.4728,-1.4651,-1.4643,-1.4666,-1.4656,-1.4643,-1.4751,-1.4972,-1.5235,-1.5527,-1.6668,-1.7785,-1.9115,-1.9781,-1.9794,-1.9842,-1.9888,0.7901,0.7901,0.7901,0.7264,0.625,0.599,0.5541,0.4881,0.4476,0.4172,0.3933,0.3565,0.3306,0.2906,0.2362,0.1879,0.1599,0.1456,0.1257,0.09,0.0674,0.0493,0.0448,0.0403,0.0179,0.0,0.0045,0.0134,0.0045,-0.0045,0.0,0.0,-0.0269,-0.0405,-0.045,-0.0539,-0.0404,-0.0404,-0.0627,-0.0851,-0.0762,-0.1,-0.1191,-0.1238,-0.1572,-0.2036,-0.243,-0.2766,-0.3072,-0.3243,-0.3345,-0.3534,-0.3819,-0.3884,-0.416,-0.4649,-0.4812,-0.4962,-0.5082,-0.5234,-0.5673,-0.6,-0.6268,-0.6756,-0.7467,-0.7741,-0.7901,-0.7848,-0.7628,-0.7788,-0.799,-0.787,-0.797,-0.8389,-0.8436,-0.8336,-0.8092,-0.7975,-0.7742,-0.722,-0.6722,-0.7378,-0.8001,-0.8912,-0.9702,-1.1205,-1.2104,-1.2722,-1.4312,-1.469,-1.5369,-1.4807,-1.4595,-1.4606,-1.4635,-1.4614,-1.4624,-1.4614,-1.4567,-1.4511,-1.4504,-1.456,-1.4571,-1.4589,-1.4651,-1.4741,-1.4968,-1.525,-1.5873,-1.6899,-1.8022,-1.896,-1.9119,-1.937,-1.9736,0.7955,0.7907,0.7955,0.7635,0.7035,0.6581,0.5877,0.4974,0.4411,0.4225,0.4098,0.3726,0.3614,0.3426,0.2919,0.2504,0.2146,0.1744,0.1657,0.1256,0.1032,0.0941,0.0851,0.0806,0.0672,0.0447,0.0447,0.0537,0.0358,0.0358,0.0358,0.0269,0.0179,0.0,-0.0135,-0.0225,-0.0225,-0.018,-0.0269,-0.0269,-0.0314,-0.0539,-0.0943,-0.113,-0.1469,-0.2003,-0.2354,-0.2647,-0.2967,-0.3045,-0.3094,-0.3108,-0.3144,-0.3303,-0.3653,-0.4118,-0.4545,-0.4754,-0.4984,-0.5014,-0.5508,-0.6159,-0.6372,-0.6972,-0.7681,-0.7848,-0.7901,-0.7848,-0.7628,-0.7895,-0.8156,-0.7976,-0.8146,-0.8573,-0.8684,-0.8582,-0.82,-0.8031,-0.7735,-0.7261,-0.733,-0.8167,-0.9357,-1.0547,-1.15,-1.3299,-1.5058,-1.5487,-1.5706,-1.5681,-1.5668,-1.514,-1.4566,-1.4444,-1.4444,-1.4451,-1.4456,-1.4475,-1.4456,-1.4429,-1.4464,-1.4522,-1.4533,-1.4533,-1.4552,-1.4611,-1.4674,-1.4981,-1.5406,-1.5855,-1.6548,-1.7447,-1.8198,-1.8795,-1.9281,0.8115,0.7955,0.8103,0.7982,0.7556,0.6867,0.5882,0.4743,0.4394,0.4239,0.4231,0.4109,0.4044,0.3933,0.3446,0.317,0.299,0.2275,0.2008,0.1787,0.1432,0.1343,0.1254,0.1254,0.1074,0.0985,0.0895,0.0806,0.0492,0.0582,0.0582,0.0492,0.0537,0.0403,0.0224,0.009,0.0,0.0,0.0,0.0045,0.0045,-0.0179,-0.0493,-0.0764,-0.1173,-0.1808,-0.2191,-0.2516,-0.2696,-0.279,-0.2857,-0.3054,-0.3192,-0.327,-0.3859,-0.4398,-0.4783,-0.4889,-0.4893,-0.4904,-0.5395,-0.6154,-0.6696,-0.7295,-0.7681,-0.7901,-0.7901,-0.7848,-0.7681,-0.8109,-0.8421,-0.8415,-0.8408,-0.8718,-0.8954,-0.8639,-0.8194,-0.7882,-0.7548,-0.7373,-0.7525,-0.8419,-1.0172,-1.153,-1.3278,-1.5407,-1.6798,-1.6802,-1.6809,-1.5977,-1.5857,-1.5433,-1.4866,-1.4313,-1.4282,-1.4349,-1.4314,-1.4337,-1.4386,-1.4393,-1.4459,-1.4447,-1.4387,-1.4375,-1.4447,-1.4624,-1.5054,-1.4952,-1.469,-1.5215,-1.5851,-1.6323,-1.7215,-1.8115,-1.8658,0.8692,0.8249,0.8049,0.7816,0.7424,0.662,0.5825,0.5199,0.4813,0.4567,0.4468,0.4205,0.4198,0.4211,0.3947,0.366,0.3341,0.3025,0.2495,0.214,0.1875,0.1655,0.1478,0.1433,0.1344,0.1299,0.1254,0.1165,0.112,0.1074,0.0895,0.0806,0.094,0.0896,0.0762,0.0762,0.0449,0.018,0.0135,0.0225,0.027,0.0,-0.0135,-0.0313,-0.0716,-0.1297,-0.1668,-0.1992,-0.224,-0.2532,-0.2611,-0.2668,-0.2394,-0.2635,-0.3131,-0.3926,-0.4407,-0.4794,-0.4798,-0.5011,-0.5441,-0.6095,-0.6696,-0.73,-0.7741,-0.7901,-0.7901,-0.7794,-0.7735,-0.8109,-0.8349,-0.8442,-0.8475,-0.8697,-0.8803,-0.8432,-0.8017,-0.7728,-0.7435,-0.7454,-0.7596,-0.9349,-1.1074,-1.3064,-1.4919,-1.7233,-1.841,-1.8236,-1.7801,-1.6933,-1.636,-1.5937,-1.5234,-1.4701,-1.4329,-1.4325,-1.4265,-1.4227,-1.4474,-1.4578,-1.4469,-1.4438,-1.4255,-1.4409,-1.4765,-1.526,-1.5773,-1.5493,-1.504,-1.4972,-1.5486,-1.5803,-1.6266,-1.7327,-1.8099,0.904,0.8992,0.8464,0.8061,0.7603,0.678,0.6217,0.5919,0.5325,0.5014,0.4923,0.4631,0.4495,0.4543,0.428,0.4008,0.3781,0.347,0.3117,0.2851,0.2453,0.2277,0.2055,0.1789,0.17,0.1657,0.1523,0.1344,0.1433,0.1389,0.1254,0.1165,0.1344,0.1299,0.121,0.121,0.0985,0.0583,0.0359,0.0359,0.0269,0.0045,0.0045,0.0045,-0.0358,-0.0806,-0.1165,-0.152,-0.1878,-0.215,-0.2217,-0.228,-0.2165,-0.2438,-0.2745,-0.3553,-0.4073,-0.4442,-0.4609,-0.4685,-0.5317,-0.6018,-0.6583,-0.7139,-0.7628,-0.7901,-0.7901,-0.7848,-0.7842,-0.7937,-0.8112,-0.8338,-0.8495,-0.8649,-0.8387,-0.8173,-0.7876,-0.7641,-0.7527,-0.7467,-0.8557,-1.0345,-1.2249,-1.4303,-1.6218,-1.7971,-1.8837,-1.873,-1.8324,-1.7654,-1.7182,-1.6781,-1.5911,-1.5117,-1.4816,-1.4704,-1.492,-1.507,-1.53,-1.5278,-1.4831,-1.4859,-1.5104,-1.5203,-1.528,-1.576,-1.6219,-1.5952,-1.5593,-1.5555,-1.5551,-1.5867,-1.6371,-1.7093,-1.7681,0.932,0.9832,0.9133,0.8435,0.8011,0.7305,0.6992,0.6823,0.6007,0.5577,0.5486,0.5221,0.5009,0.4836,0.4578,0.4364,0.4092,0.3873,0.3653,0.3561,0.312,0.281,0.2588,0.241,0.2233,0.201,0.1876,0.1834,0.1567,0.1478,0.1435,0.1435,0.1658,0.1703,0.1657,0.188,0.1611,0.0986,0.0851,0.0851,0.0359,0.0,-0.0268,-0.0179,-0.0492,-0.094,-0.1075,-0.1344,-0.1569,-0.1749,-0.1894,-0.2064,-0.2065,-0.2376,-0.2711,-0.3123,-0.3655,-0.4111,-0.432,-0.4414,-0.5071,-0.5735,-0.6249,-0.6912,-0.7521,-0.7848,-0.7901,-0.8109,-0.8156,-0.8285,-0.8495,-0.8287,-0.8311,-0.8297,-0.8146,-0.793,-0.7688,-0.7568,-0.7573,-0.7772,-0.8816,-1.065,-1.2684,-1.4654,-1.6464,-1.8317,-1.9067,-1.8981,-1.8696,-1.814,-1.7714,-1.7359,-1.6474,-1.5673,-1.5624,-1.5587,-1.5897,-1.6089,-1.6108,-1.586,-1.5331,-1.5603,-1.6098,-1.6063,-1.6011,-1.6167,-1.641,-1.629,-1.6273,-1.6216,-1.6198,-1.6201,-1.6586,-1.7061,-1.7393,0.9891,0.9329,0.8952,0.8429,0.7814,0.7635,0.7314,0.6979,0.6768,0.6386,0.6007,0.5701,0.5351,0.5096,0.4923,0.4705,0.4316,0.4228,0.3921,0.3741,0.3473,0.3344,0.2987,0.2854,0.2719,0.2719,0.2632,0.241,0.2233,0.1878,0.1614,0.1884,0.2062,0.2061,0.2148,0.2415,0.219,0.1432,0.1477,0.1164,0.0538,0.0359,0.0269,0.0269,0.0045,-0.0359,-0.0583,-0.0895,-0.1435,-0.1885,-0.1884,-0.1714,-0.1363,-0.1844,-0.2203,-0.2589,-0.3177,-0.3748,-0.402,-0.4196,-0.4792,-0.5615,-0.6231,-0.6919,-0.7461,-0.7735,-0.7996,-0.8243,-0.8449,-0.8604,-0.8599,-0.8313,-0.8075,-0.7989,-0.7902,-0.7693,-0.7486,-0.7549,-0.7588,-0.8351,-0.9244,-1.1014,-1.3043,-1.4917,-1.6721,-1.7903,-1.8651,-1.8877,-1.8771,-1.836,-1.7876,-1.7434,-1.6799,-1.622,-1.6255,-1.634,-1.657,-1.6483,-1.6378,-1.6098,-1.5854,-1.601,-1.6284,-1.6592,-1.6745,-1.6863,-1.6952,-1.703,-1.6969,-1.6886,-1.6676,-1.6601,-1.6582,-1.6971,-1.7222,1.0026,0.9897,0.9377,0.8845,0.8258,0.7889,0.7516,0.7308,0.7105,0.6852,0.652,0.6167,0.5776,0.5524,0.5394,0.5053,0.4661,0.4618,0.436,0.4049,0.3917,0.3877,0.3653,0.3341,0.33,0.3255,0.3031,0.2854,0.2765,0.2586,0.241,0.2415,0.2415,0.246,0.2593,0.2724,0.2635,0.1969,0.2012,0.1566,0.0807,0.0674,0.0584,0.0584,0.0494,0.018,-0.009,-0.0403,-0.094,-0.1389,-0.1389,-0.1435,-0.1307,-0.1695,-0.1987,-0.2412,-0.2918,-0.3522,-0.373,-0.4052,-0.4487,-0.5276,-0.584,-0.6406,-0.6968,-0.7222,-0.7532,-0.777,-0.7967,-0.8111,-0.813,-0.792,-0.7882,-0.7827,-0.7596,-0.7311,-0.7466,-0.7652,-0.7859,-0.8359,-0.9677,-1.1599,-1.3529,-1.5241,-1.6962,-1.8334,-1.8925,-1.8807,-1.8697,-1.8489,-1.8034,-1.7619,-1.7018,-1.6891,-1.7004,-1.7055,-1.7119,-1.6949,-1.673,-1.6807,-1.6784,-1.6436,-1.6396,-1.6853,-1.7228,-1.7458,-1.7569,-1.7453,-1.7559,-1.7518,-1.7219,-1.6915,-1.6932,-1.6987,-1.7277,0.9995,1.0602,0.9933,0.9357,0.892,0.8218,0.7807,0.7641,0.7266,0.7056,0.6937,0.655,0.638,0.6161,0.5947,0.5524,0.5183,0.4923,0.4661,0.4491,0.4408,0.432,0.4184,0.4049,0.3917,0.3653,0.3429,0.33,0.3211,0.294,0.276,0.2763,0.281,0.2812,0.2724,0.2768,0.2724,0.2413,0.219,0.1876,0.1387,0.0943,0.0764,0.0674,0.0719,0.0674,0.0359,0.0,-0.0447,-0.0672,-0.0895,-0.103,-0.1165,-0.1441,-0.1751,-0.2125,-0.2582,-0.3095,-0.3426,-0.368,-0.4182,-0.4783,-0.5251,-0.5829,-0.6385,-0.6747,-0.7046,-0.7224,-0.741,-0.7646,-0.7615,-0.7577,-0.7582,-0.7599,-0.733,-0.7216,-0.7503,-0.7821,-0.8177,-0.8577,-1.0249,-1.217,-1.3841,-1.5555,-1.704,-1.8439,-1.8931,-1.8807,-1.862,-1.8328,-1.8,-1.7749,-1.7433,-1.7427,-1.758,-1.7507,-1.7446,-1.7527,-1.7377,-1.7623,-1.7653,-1.713,-1.6956,-1.7266,-1.7625,-1.7609,-1.7625,-1.7524,-1.7704,-1.7839,-1.754,-1.7154,-1.731,-1.7361,-1.753,1.0031,0.9934,0.9731,0.9417,0.9024,0.8814,0.8357,0.7765,0.7641,0.7447,0.7202,0.6979,0.6677,0.6289,0.6246,0.5947,0.5567,0.5308,0.5096,0.4971,0.4714,0.4583,0.4535,0.4399,0.4399,0.4224,0.3957,0.3829,0.3741,0.3249,0.294,0.3123,0.2724,0.2768,0.2946,0.299,0.2993,0.2726,0.2591,0.241,0.1832,0.1299,0.0809,0.0719,0.0719,0.0449,0.0179,-0.0045,-0.0268,-0.0447,-0.0582,-0.0851,-0.1075,-0.121,-0.1432,-0.1876,-0.2366,-0.265,-0.2973,-0.3355,-0.3943,-0.4381,-0.491,-0.55,-0.5949,-0.6283,-0.6479,-0.6526,-0.6754,-0.7207,-0.7288,-0.7173,-0.7148,-0.7328,-0.7202,-0.753,-0.7863,-0.8154,-0.8488,-0.9389,-1.063,-1.234,-1.3876,-1.5506,-1.7025,-1.8109,-1.8569,-1.8448,-1.8426,-1.8176,-1.7917,-1.7749,-1.7595,-1.7664,-1.7653,-1.7591,-1.7575,-1.7766,-1.7816,-1.7698,-1.7612,-1.7595,-1.7555,-1.7439,-1.7368,-1.7327,-1.7361,-1.7432,-1.7455,-1.7502,-1.7502,-1.7389,-1.7529,-1.7626,-1.7642]}]]